[[{"header":{"parameterUnit":"m.s-1","parameterCategory":1,"la1":31.0,"la2":29.5877,"lo1":-88.7671,"lo2":-86.6584,"dy":0.0162,"dx":0.0185,"nx":115,"ny":88,"refTime":"2023-05-01T12:00:00:Z","depth":0,"parameterNumber":2,"parameterNumberName":"U-component_of_WINDS"},"data":[0.0,0.0,0.0,0.0,0.0,0.0,0.0,0.0,0.0,0.0,0.0,0.0,0.0,0.0,0.0,0.0,0.0,0.0,0.0,0.0,0.0,0.0,0.0,0.0,0.0,0.0,0.0,0.0,0.0,0.0,0.0,0.0,0.0,0.0,0.0,0.0,0.0,0.0,0.0,0.0,0.0,0.0,0.0,0.0,0.0,0.0,0.0,0.0,0.0,0.0,0.0,0.0,0.0,0.0,0.0,0.0,0.0,0.0,0.0,0.0,0.0,0.0,0.0,0.0,0.0,0.0,0.0,0.0,0.0,0.0,0.0,0.0,0.0,0.0,0.0,0.0,0.0,0.0,0.0,0.0,0.0,0.0,0.0,0.0,0.0,0.0,0.0,0.0,0.0,0.0,0.0,0.0,0.0,0.0,0.0,0.0,0.0,0.0,0.0,0.0,0.0,0.0,0.0,0.0,0.0,0.0,0.0,0.0,0.0,0.0,0.0,0.0,0.0,0.0,0.0,0.0,0.0,0.0,0.0,0.0,0.0,0.0,0.0,0.0,0.0,0.0,0.0,0.0,0.0,0.0,0.0,0.0,0.0,0.0,0.0,0.0,0.0,0.0,0.0,0.0,0.0,0.0,0.0,0.0,0.0,0.0,0.0,0.0,0.0,0.0,0.0,0.0,0.0,0.0,0.0,0.0,0.0,0.0,0.0,0.0,0.0,0.0,0.0,0.0,0.0,0.0,0.0,0.0,0.0,0.0,0.0,0.0,0.0,0.0,0.0,0.0,0.0,0.0,0.0,0.0,0.0,0.0,0.0,0.0,0.0,0.0,0.0,0.0,0.0,0.0,0.0,0.0,0.0,0.0,0.0,0.0,0.0,0.0,0.0,0.0,0.0,0.0,0.0,0.0,0.0,0.0,0.0,0.0,0.0,0.0,0.0,0.0,0.0,0.0,0.0,0.0,0.0,0.0,0.0,0.0,0.0,0.0,0.0,0.0,0.0,0.0,0.0,0.0,0.0,0.0,0.0,0.0,0.0,0.0,0.0,0.0,0.0,0.0,0.0,0.0,0.0,0.0,0.0,0.0,0.0,0.0,0.0,0.0,0.0,0.0,0.0,0.0,0.0,0.0,0.0,0.0,0.0,0.0,0.0,0.0,0.0,0.0,0.0,0.0,0.0,0.0,0.0,0.0,0.0,0.0,0.0,0.0,0.0,0.0,0.0,0.0,0.0,0.0,0.0,0.0,0.0,0.0,0.0,0.0,0.0,0.0,0.0,0.0,0.0,0.0,0.0,0.0,0.0,0.0,0.0,0.0,0.0,0.0,0.0,0.0,0.0,0.0,0.0,0.0,0.0,0.0,0.0,0.0,0.0,0.0,0.0,0.0,0.0,0.0,0.0,0.0,0.0,0.0,0.0,0.0,0.0,0.0,0.0,0.0,0.0,0.0,0.0,0.0,0.0,0.0,0.0,0.0,0.0,0.0,0.0,0.0,0.0,0.0,0.0,0.0,0.0,0.0,0.0,0.0,0.0,0.0,0.0,0.0,0.0,0.0,0.0,0.0,0.0,0.0,0.0,0.0,0.0,0.0,0.0,0.0,0.0,0.0,0.0,0.0,0.0,0.0,0.0,0.0,0.0,0.0,0.0,0.0,0.0,0.0,0.0,0.0,0.0,0.0,0.0,0.0,0.0,0.0,0.0,0.0,0.0,0.0,0.0,0.0,0.0,0.0,0.0,0.0,0.0,0.0,0.0,0.0,0.0,0.0,0.0,0.0,0.0,0.0,0.0,0.0,0.0,0.0,0.0,0.0,0.0,0.0,0.0,0.0,0.0,0.0,0.0,0.0,0.0,0.0,0.0,0.0,0.0,0.0,0.0,0.0,0.0,0.0,0.0,0.0,0.0,0.0,0.0,0.0,0.0,0.0,0.0,0.0,0.0,0.0,0.0,0.0,0.0,0.0,0.0,0.0,0.0,0.0,0.0,0.0,0.0,0.0,0.0,0.0,0.0,0.0,0.0,0.0,0.0,0.0,0.0,0.0,0.0,0.0,0.0,0.0,0.0,0.0,0.0,0.0,0.0,0.0,0.0,0.0,0.0,0.0,0.0,0.0,0.0,0.0,0.0,0.0,0.0,0.0,0.0,0.0,0.0,0.0,0.0,0.0,0.0,0.0,0.0,0.0,0.0,0.0,0.0,0.0,0.0,0.0,0.0,0.0,0.0,0.0,0.0,0.0,0.0,0.0,0.0,0.0,0.0,0.0,0.0,0.0,0.0,0.0,0.0,0.0,0.0,0.0,0.0,0.0,0.0,0.0,0.0,0.0,0.0,0.0,0.0,0.0,0.0,0.0,0.0,0.0,0.0,0.0,0.0,0.0,0.0,0.0,0.0,0.0,0.0,0.0,0.0,0.0,0.0,0.0,0.0,0.0,0.0,0.0,0.0,0.0,0.0,0.0,0.0,0.0,0.0,0.0,0.0,0.0,0.0,0.0,0.0,0.0,0.0,0.0,0.0,0.0,0.0,0.0,0.0,0.0,0.0,0.0,0.0,0.0,0.0,0.0,0.0,0.0,0.0,0.0,0.0,0.0,0.0,0.0,0.0,0.0,0.0,0.0,0.0,0.0,0.0,0.0,0.0,0.0,0.0,0.0,0.0,0.0,0.0,0.0,0.0,0.0,0.0,0.0,0.0,0.0,0.0,0.0,0.0,0.0,0.0,0.0,0.0,0.0,0.0,0.0,0.0,0.0,0.0,0.0,0.0,0.0,0.0,0.0,0.0,0.0,0.0,0.0,0.0,0.0,0.0,0.0,0.0,0.0,0.0,0.0,0.0,0.0,0.0,0.0,0.0,0.0,0.0,0.0,0.0,0.0,0.0,0.0,0.0,0.0,0.0,0.0,0.0,0.0,0.0,0.0,0.0,0.0,0.0,0.0,0.0,0.0,0.0,0.0,0.0,0.0,0.0,0.0,0.0,0.0,0.0,0.0,0.0,0.0,0.0,0.0,0.0,0.0,0.0,0.0,0.0,0.0,0.0,0.0,0.0,0.0,0.0,0.0,0.0,0.0,0.0,0.0,0.0,0.0,0.0,0.0,0.0,0.0,0.0,0.0,0.0,0.0,0.0,0.0,0.0,0.0,0.0,0.0,0.0,0.0,0.0,0.0,0.0,0.0,0.0,0.0,0.0,0.0,0.0,0.0,0.0,0.0,0.0,0.0,0.0,0.0,0.0,0.0,0.0,0.0,0.0,0.0,0.0,0.0,0.0,0.0,0.0,0.0,0.0,0.0,0.0,0.0,0.0,0.0,0.0,0.0,0.0,0.0,0.0,0.0,0.0,0.0,0.0,0.0,0.0,0.0,0.0,0.0,0.0,0.0,0.0,0.0,0.0,0.0,0.0,0.0,0.0,0.0,0.0,0.0,0.0,0.0,0.0,0.0,0.0,0.0,0.0,0.0,0.0,0.0,0.0,0.0,0.0,0.0,0.0,0.0,0.0,0.0,0.0,0.0,0.0,0.0,0.0,0.0,0.0,0.0,0.0,0.0,0.0,0.0,0.0,0.0,0.0,0.0,0.0,0.0,0.0,0.0,0.0,0.0,0.0,0.0,0.0,0.0,0.0,0.0,0.0,0.0,0.0,0.0,0.0,0.0,0.0,0.0,0.0,0.0,0.0,0.0,0.0,0.0,0.0,0.0,0.0,0.0,0.0,0.0,0.0,0.0,0.0,0.0,0.0,0.0,0.0,0.0,0.0,0.0,0.0,0.0,0.0,0.0,0.0,0.0,0.0,0.0,0.0,0.0,0.0,0.0,0.0,0.0,0.0,0.0,0.0,0.0,0.0,0.0,0.0,0.0,0.0,0.0,0.0,0.0,0.0,0.0,0.0,0.0,0.0,0.0,0.0,0.0,0.0,0.0,0.0,0.0,0.0,0.0,0.0,0.0,0.0,0.0,0.0,0.0,0.0,0.0,0.0,0.0,0.0,0.0,0.0,0.0,0.0,0.0,0.0,0.0,0.0,0.0,0.0,0.0,0.0,0.0,0.0,0.0,0.0,0.0,0.0,0.0,0.0,0.0,0.0,0.0,0.0,0.0,0.0,0.0,0.0,0.0,0.0,0.0,0.0,0.0,0.0,0.0,0.0,0.0,0.0,0.0,0.0,0.0,0.0,0.0,0.0,0.0,0.0,0.0,0.0,0.0,0.0,0.0,0.0,0.0,0.0,0.0,0.0,0.0,0.0,0.0,0.0,0.0,0.0,0.0,0.0,0.0,0.0,0.0,-4.109,0.0,0.0,0.0,0.0,0.0,0.0,0.0,0.0,0.0,0.0,0.0,0.0,0.0,0.0,0.0,0.0,0.0,0.0,0.0,0.0,0.0,0.0,0.0,0.0,0.0,0.0,0.0,0.0,0.0,0.0,0.0,0.0,0.0,0.0,0.0,0.0,0.0,0.0,0.0,0.0,0.0,0.0,0.0,0.0,0.0,0.0,0.0,0.0,0.0,0.0,0.0,0.0,0.0,0.0,0.0,0.0,0.0,0.0,0.0,0.0,0.0,0.0,0.0,0.0,0.0,0.0,0.0,0.0,0.0,0.0,0.0,0.0,0.0,0.0,0.0,0.0,0.0,0.0,0.0,0.0,0.0,0.0,0.0,0.0,0.0,0.0,0.0,0.0,0.0,0.0,0.0,0.0,0.0,0.0,0.0,0.0,0.0,0.0,0.0,0.0,0.0,0.0,0.0,0.0,0.0,0.0,0.0,0.0,0.0,0.0,-4.1109,-4.1109,-4.1109,-4.1109,-4.107,0.0,0.0,0.0,0.0,0.0,0.0,0.0,0.0,0.0,0.0,0.0,0.0,0.0,0.0,0.0,0.0,0.0,0.0,0.0,0.0,0.0,0.0,0.0,0.0,0.0,0.0,0.0,0.0,0.0,0.0,0.0,0.0,0.0,0.0,0.0,0.0,0.0,0.0,0.0,0.0,0.0,0.0,0.0,0.0,0.0,0.0,0.0,0.0,0.0,0.0,0.0,0.0,0.0,0.0,0.0,0.0,0.0,0.0,0.0,0.0,0.0,0.0,0.0,0.0,0.0,0.0,0.0,0.0,0.0,0.0,0.0,0.0,0.0,0.0,0.0,0.0,0.0,0.0,0.0,0.0,0.0,0.0,0.0,0.0,0.0,0.0,0.0,0.0,0.0,0.0,0.0,0.0,0.0,0.0,0.0,0.0,0.0,0.0,0.0,0.0,0.0,0.0,0.0,0.0,0.0,0.0,0.0,0.0,0.0,0.0,0.0,0.0,-4.1109,-4.0914,-4.0524,0.0,0.0,0.0,0.0,0.0,0.0,0.0,0.0,0.0,0.0,0.0,0.0,0.0,0.0,0.0,0.0,0.0,0.0,0.0,0.0,0.0,0.0,0.0,0.0,0.0,0.0,0.0,0.0,0.0,0.0,0.0,0.0,0.0,0.0,0.0,0.0,0.0,0.0,0.0,0.0,0.0,0.0,0.0,0.0,0.0,0.0,0.0,0.0,0.0,0.0,0.0,0.0,0.0,0.0,0.0,0.0,0.0,0.0,0.0,0.0,0.0,0.0,0.0,0.0,0.0,0.0,0.0,0.0,0.0,0.0,0.0,0.0,0.0,0.0,0.0,0.0,0.0,0.0,0.0,0.0,0.0,0.0,0.0,0.0,0.0,0.0,0.0,0.0,0.0,0.0,0.0,0.0,0.0,0.0,0.0,0.0,0.0,0.0,0.0,0.0,0.0,0.0,0.0,0.0,0.0,0.0,0.0,0.0,0.0,0.0,-4.1109,-4.1109,-4.1109,0.0,-3.8962,0.0,0.0,0.0,0.0,0.0,0.0,0.0,0.0,0.0,0.0,0.0,0.0,0.0,0.0,0.0,0.0,0.0,0.0,0.0,0.0,0.0,0.0,0.0,0.0,0.0,0.0,0.0,0.0,0.0,0.0,0.0,0.0,0.0,0.0,0.0,0.0,0.0,0.0,0.0,0.0,0.0,0.0,0.0,0.0,0.0,0.0,0.0,0.0,0.0,0.0,0.0,0.0,0.0,0.0,0.0,0.0,0.0,0.0,0.0,0.0,0.0,0.0,0.0,0.0,0.0,0.0,0.0,0.0,0.0,0.0,0.0,0.0,0.0,0.0,0.0,0.0,0.0,0.0,0.0,0.0,0.0,0.0,0.0,0.0,0.0,0.0,0.0,0.0,0.0,0.0,0.0,0.0,0.0,0.0,0.0,0.0,0.0,0.0,0.0,0.0,0.0,0.0,0.0,0.0,0.0,0.0,0.0,0.0,0.0,0.0,-4.1109,-4.1109,-4.1109,-4.0309,0.0,0.0,0.0,0.0,0.0,0.0,0.0,0.0,0.0,0.0,0.0,0.0,0.0,0.0,0.0,0.0,0.0,0.0,0.0,0.0,0.0,0.0,0.0,0.0,0.0,0.0,0.0,0.0,0.0,0.0,0.0,0.0,0.0,0.0,0.0,0.0,0.0,0.0,0.0,0.0,0.0,0.0,0.0,0.0,0.0,0.0,0.0,0.0,0.0,0.0,0.0,0.0,0.0,0.0,0.0,0.0,0.0,0.0,0.0,0.0,0.0,0.0,0.0,0.0,0.0,0.0,0.0,0.0,0.0,0.0,0.0,0.0,0.0,0.0,0.0,0.0,0.0,0.0,0.0,0.0,0.0,0.0,0.0,0.0,0.0,0.0,0.0,0.0,0.0,0.0,0.0,0.0,0.0,0.0,0.0,0.0,0.0,0.0,0.0,0.0,0.0,0.0,0.0,0.0,0.0,0.0,0.0,0.0,0.0,0.0,-4.1109,-4.1109,-4.1109,-4.1109,-4.0309,-3.8669,0.0,0.0,0.0,0.0,0.0,0.0,0.0,0.0,0.0,0.0,0.0,0.0,0.0,0.0,0.0,0.0,0.0,0.0,0.0,0.0,0.0,0.0,0.0,0.0,0.0,0.0,0.0,0.0,0.0,0.0,0.0,0.0,0.0,0.0,0.0,0.0,0.0,0.0,0.0,0.0,0.0,0.0,0.0,0.0,0.0,0.0,0.0,0.0,0.0,0.0,0.0,0.0,0.0,0.0,0.0,0.0,0.0,0.0,0.0,0.0,0.0,0.0,0.0,0.0,0.0,0.0,0.0,0.0,0.0,0.0,0.0,0.0,0.0,0.0,0.0,0.0,0.0,0.0,0.0,0.0,0.0,0.0,0.0,0.0,0.0,0.0,0.0,0.0,0.0,0.0,0.0,0.0,0.0,0.0,0.0,0.0,0.0,0.0,0.0,0.0,0.0,0.0,0.0,0.0,0.0,0.0,0.0,0.0,-4.1109,-4.1109,-4.1109,-4.1109,-4.1109,-4.0309,0.0,0.0,0.0,0.0,0.0,0.0,0.0,0.0,0.0,0.0,0.0,0.0,0.0,0.0,0.0,0.0,0.0,0.0,0.0,0.0,0.0,0.0,0.0,0.0,0.0,0.0,0.0,0.0,0.0,0.0,0.0,0.0,0.0,0.0,0.0,0.0,0.0,0.0,0.0,0.0,0.0,0.0,0.0,0.0,0.0,0.0,0.0,0.0,0.0,0.0,0.0,0.0,0.0,0.0,0.0,0.0,0.0,0.0,0.0,0.0,0.0,0.0,0.0,0.0,0.0,0.0,0.0,0.0,0.0,0.0,0.0,0.0,0.0,0.0,0.0,0.0,0.0,0.0,0.0,0.0,0.0,0.0,0.0,0.0,0.0,0.0,0.0,0.0,0.0,0.0,0.0,0.0,0.0,0.0,0.0,0.0,0.0,0.0,0.0,0.0,0.0,0.0,0.0,0.0,0.0,0.0,0.0,0.0,0.0,-4.1109,-4.1109,-4.1109,-4.1109,-4.1109,-4.0309,0.0,0.0,0.0,0.0,0.0,0.0,0.0,0.0,0.0,0.0,0.0,0.0,0.0,0.0,0.0,0.0,0.0,0.0,0.0,0.0,0.0,0.0,0.0,0.0,0.0,0.0,0.0,0.0,0.0,0.0,0.0,0.0,0.0,0.0,0.0,0.0,0.0,0.0,0.0,0.0,0.0,0.0,0.0,0.0,0.0,0.0,0.0,0.0,0.0,0.0,0.0,0.0,0.0,0.0,0.0,0.0,0.0,0.0,0.0,0.0,0.0,0.0,0.0,0.0,0.0,0.0,0.0,0.0,0.0,0.0,0.0,0.0,0.0,0.0,0.0,0.0,0.0,0.0,0.0,0.0,0.0,0.0,0.0,0.0,0.0,0.0,0.0,0.0,0.0,0.0,0.0,0.0,0.0,0.0,0.0,0.0,0.0,0.0,0.0,0.0,0.0,0.0,0.0,0.0,0.0,0.0,0.0,0.0,0.0,-4.1109,0.0,-4.1109,-4.1109,-4.1109,-4.0446,0.0,0.0,0.0,0.0,0.0,0.0,0.0,0.0,0.0,0.0,0.0,0.0,0.0,0.0,0.0,0.0,0.0,0.0,0.0,0.0,0.0,0.0,0.0,0.0,0.0,0.0,0.0,0.0,0.0,0.0,0.0,0.0,0.0,0.0,0.0,0.0,0.0,0.0,0.0,0.0,0.0,0.0,0.0,0.0,0.0,0.0,0.0,0.0,0.0,0.0,0.0,0.0,0.0,0.0,0.0,0.0,0.0,0.0,0.0,0.0,0.0,0.0,0.0,0.0,0.0,0.0,0.0,0.0,0.0,0.0,0.0,0.0,0.0,0.0,0.0,0.0,0.0,0.0,0.0,0.0,0.0,0.0,0.0,0.0,0.0,0.0,0.0,0.0,0.0,0.0,0.0,0.0,0.0,0.0,0.0,0.0,0.0,0.0,0.0,0.0,0.0,0.0,0.0,0.0,0.0,0.0,0.0,0.0,-4.1109,-4.1109,-4.1109,-4.1109,-4.1109,-4.1109,-4.0678,0.0,0.0,0.0,0.0,0.0,0.0,0.0,0.0,0.0,0.0,0.0,0.0,0.0,0.0,0.0,0.0,0.0,0.0,0.0,0.0,0.0,0.0,0.0,0.0,0.0,0.0,0.0,0.0,0.0,0.0,0.0,0.0,0.0,0.0,0.0,0.0,0.0,0.0,0.0,0.0,0.0,0.0,0.0,0.0,0.0,0.0,0.0,0.0,0.0,0.0,0.0,0.0,0.0,0.0,0.0,0.0,0.0,0.0,0.0,0.0,0.0,0.0,0.0,0.0,0.0,0.0,0.0,0.0,0.0,0.0,0.0,0.0,0.0,0.0,0.0,0.0,0.0,0.0,0.0,0.0,0.0,0.0,0.0,0.0,0.0,0.0,0.0,0.0,0.0,0.0,0.0,0.0,0.0,0.0,0.0,0.0,0.0,0.0,0.0,0.0,0.0,0.0,0.0,0.0,0.0,0.0,0.0,0.0,0.0,-4.1109,-4.1109,-4.1109,-4.1109,-4.1109,-4.0698,0.0,0.0,0.0,0.0,0.0,0.0,0.0,0.0,0.0,0.0,0.0,0.0,0.0,0.0,0.0,0.0,0.0,0.0,0.0,0.0,0.0,0.0,0.0,0.0,0.0,0.0,0.0,0.0,0.0,0.0,0.0,0.0,0.0,0.0,0.0,0.0,0.0,0.0,0.0,0.0,0.0,0.0,0.0,0.0,0.0,0.0,0.0,0.0,0.0,0.0,0.0,0.0,0.0,0.0,0.0,0.0,0.0,0.0,0.0,0.0,0.0,0.0,0.0,0.0,0.0,0.0,0.0,0.0,0.0,0.0,0.0,0.0,0.0,0.0,0.0,0.0,0.0,0.0,0.0,0.0,0.0,0.0,0.0,0.0,0.0,0.0,0.0,0.0,0.0,0.0,0.0,0.0,0.0,0.0,0.0,0.0,0.0,0.0,0.0,0.0,0.0,0.0,0.0,0.0,0.0,0.0,0.0,0.0,0.0,-4.1557,-4.1265,-4.1246,-4.1596,-4.1285,-4.0834,-4.0268,0.0,0.0,0.0,0.0,0.0,0.0,0.0,0.0,0.0,0.0,0.0,0.0,0.0,0.0,0.0,0.0,0.0,0.0,0.0,0.0,0.0,0.0,0.0,0.0,0.0,0.0,0.0,0.0,0.0,0.0,0.0,0.0,0.0,0.0,0.0,0.0,0.0,0.0,0.0,0.0,0.0,0.0,0.0,0.0,0.0,0.0,0.0,0.0,0.0,0.0,0.0,0.0,0.0,0.0,0.0,0.0,0.0,0.0,0.0,0.0,0.0,0.0,0.0,0.0,0.0,0.0,0.0,0.0,0.0,0.0,0.0,0.0,0.0,0.0,0.0,0.0,0.0,0.0,0.0,0.0,0.0,0.0,0.0,0.0,0.0,0.0,0.0,0.0,0.0,0.0,0.0,0.0,0.0,0.0,0.0,0.0,0.0,0.0,0.0,0.0,0.0,0.0,0.0,0.0,0.0,0.0,0.0,0.0,-4.2454,-4.1615,-4.1557,-4.2357,-4.1596,-4.1168,0.0,0.0,0.0,0.0,0.0,0.0,0.0,0.0,0.0,0.0,0.0,0.0,0.0,0.0,0.0,0.0,0.0,0.0,0.0,0.0,0.0,0.0,0.0,0.0,0.0,0.0,0.0,0.0,0.0,0.0,0.0,0.0,0.0,0.0,0.0,0.0,0.0,0.0,0.0,0.0,0.0,0.0,0.0,0.0,0.0,0.0,0.0,0.0,0.0,0.0,0.0,0.0,0.0,0.0,0.0,0.0,0.0,0.0,0.0,0.0,0.0,0.0,0.0,0.0,0.0,0.0,0.0,0.0,0.0,0.0,0.0,0.0,0.0,0.0,0.0,0.0,0.0,0.0,0.0,0.0,0.0,0.0,0.0,0.0,0.0,0.0,0.0,0.0,0.0,0.0,0.0,0.0,0.0,0.0,0.0,0.0,0.0,0.0,0.0,0.0,0.0,0.0,0.0,0.0,0.0,0.0,0.0,0.0,0.0,-4.3255,-4.2513,-4.2162,-4.2376,-4.2181,-4.1752,0.0,0.0,0.0,0.0,0.0,0.0,0.0,0.0,0.0,0.0,0.0,0.0,0.0,0.0,0.0,0.0,0.0,0.0,0.0,0.0,0.0,0.0,0.0,0.0,0.0,0.0,0.0,0.0,0.0,0.0,0.0,0.0,0.0,0.0,0.0,0.0,0.0,0.0,0.0,0.0,0.0,0.0,0.0,0.0,0.0,0.0,0.0,0.0,0.0,0.0,0.0,0.0,0.0,0.0,0.0,0.0,0.0,0.0,0.0,0.0,0.0,0.0,0.0,0.0,0.0,0.0,0.0,0.0,0.0,0.0,0.0,0.0,0.0,0.0,0.0,0.0,0.0,0.0,0.0,0.0,0.0,0.0,0.0,0.0,0.0,0.0,0.0,0.0,0.0,0.0,0.0,0.0,0.0,0.0,0.0,0.0,0.0,0.0,0.0,0.0,0.0,0.0,0.0,0.0,0.0,0.0,0.0,0.0,-4.1949,-4.3647,-4.3216,-4.2962,-4.2942,-4.2611,-4.1986,0.0,0.0,0.0,0.0,0.0,0.0,0.0,0.0,0.0,0.0,0.0,0.0,0.0,0.0,0.0,0.0,0.0,0.0,0.0,0.0,0.0,0.0,0.0,0.0,0.0,0.0,0.0,0.0,0.0,0.0,0.0,0.0,0.0,0.0,0.0,0.0,0.0,0.0,0.0,0.0,0.0,0.0,0.0,0.0,0.0,0.0,0.0,0.0,0.0,0.0,0.0,0.0,0.0,0.0,0.0,0.0,0.0,0.0,0.0,0.0,0.0,0.0,0.0,0.0,0.0,0.0,0.0,0.0,0.0,0.0,0.0,0.0,0.0,0.0,0.0,0.0,0.0,0.0,0.0,0.0,0.0,0.0,0.0,0.0,0.0,0.0,0.0,0.0,0.0,0.0,0.0,0.0,0.0,0.0,0.0,0.0,0.0,0.0,0.0,0.0,0.0,0.0,0.0,0.0,0.0,0.0,0.0,0.0,-4.1945,-4.3663,-4.3702,-4.3702,-4.3684,-4.2942,-4.2084,0.0,0.0,0.0,0.0,0.0,0.0,0.0,0.0,0.0,0.0,0.0,0.0,0.0,0.0,0.0,0.0,0.0,0.0,0.0,0.0,0.0,0.0,0.0,0.0,0.0,0.0,0.0,0.0,0.0,0.0,0.0,0.0,0.0,0.0,0.0,0.0,0.0,0.0,0.0,0.0,0.0,0.0,0.0,0.0,0.0,0.0,0.0,0.0,0.0,0.0,0.0,0.0,0.0,0.0,0.0,0.0,0.0,0.0,0.0,0.0,0.0,0.0,0.0,0.0,0.0,0.0,0.0,0.0,0.0,0.0,0.0,0.0,0.0,0.0,0.0,0.0,0.0,0.0,0.0,0.0,0.0,0.0,0.0,0.0,0.0,0.0,0.0,0.0,0.0,0.0,0.0,0.0,0.0,0.0,0.0,0.0,0.0,0.0,0.0,0.0,0.0,0.0,0.0,0.0,0.0,0.0,0.0,0.0,-4.1961,-4.3641,-4.3708,-4.3712,-4.3712,-4.3525,-4.269,0.0,0.0,0.0,0.0,0.0,0.0,0.0,0.0,0.0,0.0,0.0,0.0,0.0,0.0,0.0,0.0,0.0,0.0,0.0,0.0,0.0,0.0,0.0,0.0,0.0,0.0,0.0,0.0,0.0,0.0,0.0,0.0,0.0,0.0,0.0,0.0,0.0,0.0,0.0,0.0,0.0,0.0,0.0,0.0,0.0,0.0,0.0,0.0,-3.0204,0.0,0.0,0.0,0.0,0.0,0.0,0.0,0.0,0.0,0.0,0.0,0.0,0.0,0.0,0.0,0.0,0.0,0.0,0.0,0.0,0.0,0.0,0.0,0.0,0.0,0.0,0.0,0.0,0.0,0.0,0.0,0.0,0.0,0.0,0.0,0.0,0.0,0.0,0.0,0.0,0.0,0.0,0.0,0.0,0.0,0.0,0.0,0.0,0.0,0.0,0.0,0.0,0.0,0.0,0.0,0.0,0.0,0.0,0.0,-4.2364,-4.3651,-4.4111,-4.4118,-4.3728,-4.37,-4.2866,0.0,0.0,0.0,0.0,0.0,0.0,0.0,0.0,0.0,0.0,0.0,0.0,0.0,0.0,0.0,0.0,0.0,0.0,0.0,0.0,0.0,0.0,0.0,0.0,0.0,0.0,0.0,0.0,0.0,0.0,0.0,0.0,0.0,0.0,0.0,0.0,0.0,0.0,0.0,0.0,0.0,0.0,0.0,0.0,0.0,0.0,0.0,0.0,0.0,0.0,0.0,0.0,0.0,0.0,0.0,0.0,0.0,0.0,0.0,0.0,0.0,0.0,0.0,0.0,0.0,0.0,0.0,0.0,0.0,0.0,0.0,0.0,0.0,0.0,0.0,0.0,0.0,0.0,0.0,0.0,0.0,0.0,0.0,0.0,0.0,0.0,0.0,0.0,0.0,0.0,0.0,0.0,0.0,0.0,0.0,0.0,0.0,0.0,0.0,0.0,0.0,0.0,0.0,0.0,0.0,0.0,0.0,-4.1947,-4.2805,-4.3663,-4.4534,-4.4562,-4.3726,-4.3697,-4.2884,-4.1168,0.0,0.0,0.0,0.0,0.0,0.0,0.0,0.0,0.0,0.0,0.0,0.0,0.0,0.0,0.0,0.0,0.0,0.0,0.0,0.0,0.0,0.0,0.0,0.0,0.0,0.0,0.0,0.0,0.0,0.0,0.0,0.0,0.0,0.0,0.0,0.0,0.0,0.0,-3.0364,-3.0376,0.0,0.0,0.0,0.0,0.0,0.0,0.0,0.0,-3.0586,0.0,0.0,0.0,0.0,0.0,0.0,0.0,0.0,0.0,0.0,0.0,0.0,0.0,0.0,0.0,0.0,0.0,0.0,0.0,0.0,0.0,0.0,0.0,0.0,0.0,0.0,0.0,0.0,0.0,0.0,0.0,0.0,0.0,0.0,0.0,0.0,0.0,0.0,0.0,0.0,0.0,0.0,0.0,0.0,0.0,0.0,0.0,0.0,0.0,0.0,0.0,0.0,0.0,0.0,0.0,0.0,-4.1117,-4.1896,-4.2734,-4.3611,-4.4468,-4.4521,-4.3731,-4.3706,-4.2877,-4.1205,0.0,0.0,0.0,0.0,0.0,0.0,0.0,0.0,0.0,0.0,0.0,0.0,0.0,0.0,0.0,0.0,0.0,0.0,0.0,0.0,0.0,0.0,0.0,0.0,0.0,0.0,0.0,0.0,0.0,0.0,0.0,0.0,0.0,0.0,0.0,0.0,0.0,0.0,0.0,-3.1255,-3.1541,0.0,0.0,0.0,0.0,0.0,0.0,0.0,0.0,-3.2069,0.0,0.0,0.0,0.0,0.0,0.0,0.0,0.0,0.0,0.0,0.0,0.0,0.0,0.0,0.0,0.0,0.0,0.0,0.0,0.0,0.0,0.0,0.0,0.0,0.0,0.0,0.0,0.0,0.0,0.0,0.0,0.0,0.0,0.0,0.0,0.0,0.0,0.0,0.0,0.0,0.0,0.0,0.0,0.0,0.0,0.0,0.0,0.0,0.0,0.0,0.0,0.0,0.0,0.0,0.0,-4.1169,-4.2335,-4.3192,-4.362,-4.489,-4.4983,-4.3748,-4.3702,-4.2875,0.0,0.0,0.0,0.0,0.0,0.0,0.0,0.0,0.0,0.0,0.0,0.0,0.0,0.0,0.0,0.0,0.0,0.0,0.0,0.0,0.0,0.0,0.0,0.0,0.0,0.0,0.0,0.0,0.0,0.0,0.0,0.0,0.0,0.0,0.0,0.0,0.0,0.0,0.0,0.0,-3.184,-3.226,-3.2661,0.0,0.0,0.0,0.0,0.0,0.0,-3.268,-3.2565,0.0,0.0,0.0,0.0,0.0,0.0,0.0,0.0,0.0,0.0,0.0,0.0,0.0,0.0,0.0,0.0,0.0,0.0,0.0,0.0,0.0,0.0,0.0,0.0,0.0,0.0,0.0,0.0,0.0,0.0,0.0,0.0,0.0,0.0,0.0,0.0,0.0,0.0,0.0,0.0,0.0,0.0,0.0,0.0,0.0,0.0,0.0,0.0,0.0,0.0,0.0,0.0,0.0,0.0,0.0,-4.1383,-4.2822,-4.3698,-4.3913,-4.5391,-4.539,-4.3765,-4.37,-4.2893,0.0,0.0,0.0,0.0,0.0,0.0,0.0,0.0,0.0,0.0,0.0,0.0,0.0,0.0,0.0,0.0,0.0,0.0,0.0,0.0,0.0,0.0,0.0,0.0,0.0,0.0,0.0,0.0,0.0,0.0,0.0,0.0,0.0,0.0,0.0,0.0,0.0,0.0,0.0,0.0,0.0,-3.3024,-3.3196,-3.3215,0.0,0.0,0.0,0.0,-3.3215,-3.3196,0.0,0.0,0.0,0.0,0.0,0.0,0.0,0.0,0.0,0.0,0.0,0.0,0.0,0.0,0.0,0.0,0.0,0.0,0.0,0.0,0.0,0.0,0.0,0.0,0.0,0.0,0.0,0.0,0.0,0.0,0.0,0.0,0.0,0.0,0.0,0.0,0.0,0.0,0.0,0.0,0.0,0.0,0.0,0.0,0.0,0.0,0.0,0.0,0.0,0.0,0.0,0.0,0.0,0.0,0.0,0.0,-4.2163,-4.3114,-4.3971,-4.4754,-4.5693,-4.5417,-4.3768,-4.3709,-4.2882,0.0,0.0,0.0,0.0,0.0,0.0,0.0,0.0,0.0,0.0,0.0,0.0,0.0,0.0,0.0,0.0,0.0,0.0,0.0,0.0,0.0,0.0,0.0,0.0,0.0,0.0,0.0,0.0,0.0,0.0,0.0,0.0,0.0,0.0,0.0,0.0,0.0,0.0,0.0,0.0,0.0,-3.412,-3.4827,-3.4904,-3.4923,0.0,0.0,0.0,-3.4923,-3.4904,0.0,0.0,0.0,0.0,0.0,0.0,0.0,0.0,0.0,0.0,0.0,0.0,0.0,0.0,0.0,0.0,0.0,0.0,0.0,0.0,0.0,0.0,0.0,0.0,0.0,0.0,0.0,0.0,0.0,0.0,0.0,0.0,0.0,0.0,0.0,0.0,0.0,0.0,0.0,0.0,0.0,0.0,0.0,0.0,0.0,0.0,0.0,0.0,0.0,0.0,0.0,0.0,0.0,0.0,0.0,-4.1978,-4.2338,-4.3643,-4.454,-4.4913,-4.5761,-4.5618,-4.4409,-4.3929,-4.3123,0.0,0.0,0.0,0.0,0.0,0.0,0.0,0.0,0.0,0.0,0.0,0.0,0.0,0.0,0.0,0.0,0.0,0.0,0.0,0.0,0.0,0.0,0.0,0.0,0.0,0.0,0.0,0.0,0.0,0.0,0.0,0.0,0.0,0.0,0.0,0.0,0.0,0.0,0.0,0.0,0.0,0.0,-3.6528,-3.6623,0.0,0.0,0.0,-3.6623,-3.6623,0.0,0.0,0.0,0.0,0.0,0.0,0.0,0.0,0.0,0.0,0.0,0.0,0.0,0.0,0.0,0.0,0.0,0.0,0.0,0.0,0.0,0.0,0.0,0.0,0.0,0.0,0.0,0.0,0.0,0.0,0.0,0.0,0.0,0.0,0.0,0.0,0.0,0.0,0.0,0.0,0.0,0.0,0.0,0.0,0.0,0.0,0.0,0.0,0.0,0.0,0.0,0.0,0.0,0.0,0.0,0.0,0.0,-4.2653,-4.4114,-4.5011,-4.5244,-4.5865,-4.5783,-4.4916,-4.4111,0.0,0.0,0.0,0.0,0.0,0.0,0.0,0.0,0.0,0.0,0.0,0.0,0.0,0.0,0.0,0.0,0.0,0.0,0.0,0.0,0.0,0.0,0.0,0.0,0.0,0.0,0.0,-3.2038,0.0,0.0,0.0,0.0,0.0,0.0,0.0,0.0,0.0,0.0,0.0,0.0,0.0,0.0,-3.7024,-3.7617,-3.7693,-3.7693,0.0,0.0,-3.7693,-3.7693,-3.7693,-3.7483,0.0,0.0,0.0,0.0,0.0,0.0,0.0,0.0,0.0,0.0,0.0,0.0,0.0,0.0,0.0,0.0,0.0,0.0,0.0,0.0,0.0,0.0,0.0,0.0,0.0,0.0,0.0,0.0,0.0,0.0,0.0,0.0,0.0,0.0,0.0,0.0,0.0,0.0,0.0,0.0,0.0,0.0,0.0,0.0,0.0,0.0,0.0,0.0,0.0,0.0,0.0,0.0,0.0,0.0,0.0,-4.3509,-4.4433,-4.5303,-4.6082,-4.6177,-4.5802,-4.4916,-4.4131,-4.3304,0.0,0.0,0.0,0.0,0.0,0.0,0.0,0.0,0.0,0.0,0.0,0.0,0.0,0.0,0.0,0.0,0.0,0.0,0.0,0.0,0.0,0.0,0.0,0.0,0.0,0.0,0.0,0.0,0.0,0.0,0.0,0.0,0.0,0.0,0.0,0.0,0.0,0.0,0.0,0.0,0.0,-3.7636,-3.7693,-3.7693,-3.7693,0.0,0.0,-3.7693,-3.7693,-3.7712,-3.7693,-3.7636,0.0,0.0,0.0,0.0,0.0,0.0,0.0,0.0,0.0,0.0,0.0,0.0,0.0,0.0,0.0,0.0,0.0,0.0,0.0,0.0,0.0,0.0,0.0,0.0,0.0,0.0,0.0,0.0,0.0,0.0,0.0,0.0,0.0,0.0,0.0,0.0,0.0,0.0,0.0,0.0,0.0,0.0,0.0,0.0,0.0,0.0,0.0,0.0,0.0,0.0,0.0,0.0,0.0,-4.36,-4.4404,-4.5256,-4.5861,-4.6189,-4.6242,-4.6097,-4.577,-4.4961,-4.4091,0.0,0.0,0.0,0.0,0.0,0.0,0.0,0.0,0.0,0.0,0.0,0.0,0.0,0.0,0.0,0.0,0.0,0.0,0.0,0.0,0.0,0.0,0.0,0.0,0.0,0.0,0.0,0.0,-3.4227,-3.4227,-3.4246,0.0,0.0,0.0,0.0,0.0,0.0,0.0,0.0,0.0,0.0,-3.8706,-3.9221,-3.9298,0.0,0.0,-3.9317,-3.9317,-3.9317,-3.9298,-3.9126,-3.8591,-3.8458,0.0,0.0,0.0,0.0,0.0,0.0,0.0,0.0,0.0,0.0,0.0,0.0,0.0,0.0,0.0,0.0,0.0,0.0,0.0,0.0,0.0,0.0,0.0,0.0,0.0,0.0,0.0,0.0,0.0,0.0,0.0,0.0,0.0,0.0,0.0,0.0,0.0,0.0,0.0,0.0,0.0,0.0,0.0,0.0,0.0,0.0,0.0,0.0,0.0,0.0,0.0,0.0,-4.4367,-4.4926,-4.576,-4.6206,-4.6206,-4.626,-4.6303,-4.6264,-4.5455,-4.4717,0.0,0.0,0.0,0.0,0.0,0.0,0.0,0.0,0.0,0.0,0.0,0.0,0.0,0.0,0.0,0.0,0.0,0.0,0.0,0.0,0.0,0.0,0.0,0.0,0.0,0.0,0.0,0.0,-3.5583,-3.5679,-3.5916,0.0,0.0,0.0,0.0,0.0,0.0,0.0,0.0,0.0,0.0,-3.9613,-4.0225,-4.032,-4.032,-4.032,-4.032,-4.032,-4.032,-4.032,-4.0091,-3.947,0.0,0.0,0.0,0.0,0.0,0.0,0.0,0.0,0.0,0.0,0.0,0.0,0.0,0.0,0.0,0.0,0.0,0.0,0.0,0.0,0.0,0.0,0.0,0.0,0.0,0.0,0.0,0.0,0.0,0.0,-4.2322,0.0,0.0,0.0,0.0,0.0,0.0,0.0,0.0,0.0,0.0,0.0,0.0,0.0,0.0,0.0,0.0,0.0,0.0,0.0,0.0,0.0,0.0,0.0,-4.5013,-4.5804,-4.6209,-4.6209,-4.626,-4.6306,-4.6286,-4.5455,-4.4992,-4.4953,0.0,0.0,0.0,0.0,0.0,0.0,0.0,0.0,0.0,0.0,0.0,0.0,0.0,0.0,0.0,0.0,0.0,0.0,0.0,0.0,0.0,0.0,0.0,0.0,0.0,0.0,-3.6481,-3.6462,-3.6776,0.0,0.0,0.0,0.0,0.0,0.0,0.0,0.0,0.0,0.0,-3.9747,-4.0263,-4.0301,-4.032,-4.032,-4.032,-4.032,-4.032,-4.032,-4.0301,-4.0272,0.0,0.0,0.0,0.0,0.0,0.0,0.0,0.0,0.0,0.0,0.0,0.0,0.0,0.0,0.0,0.0,0.0,0.0,0.0,0.0,0.0,0.0,0.0,0.0,0.0,0.0,0.0,-4.362,-4.362,0.0,0.0,0.0,0.0,0.0,0.0,0.0,0.0,0.0,0.0,0.0,-4.6319,-4.6846,0.0,0.0,0.0,0.0,0.0,0.0,0.0,0.0,0.0,0.0,0.0,0.0,-4.5279,-4.5845,-4.6136,-4.6271,-4.6271,-4.6294,-4.6296,-4.6296,-4.6005,-4.5594,-4.5,0.0,0.0,0.0,0.0,0.0,0.0,0.0,0.0,0.0,0.0,0.0,0.0,0.0,0.0,0.0,0.0,0.0,0.0,0.0,0.0,0.0,0.0,0.0,0.0,0.0,-3.7292,0.0,0.0,0.0,0.0,0.0,0.0,0.0,0.0,0.0,0.0,0.0,-3.9871,-3.9862,-4.011,-4.032,-4.032,-4.032,-4.032,0.0,0.0,0.0,0.0,0.0,0.0,0.0,0.0,0.0,0.0,0.0,0.0,0.0,0.0,-3.5824,-3.4925,-3.4487,-3.4265,-3.4205,0.0,0.0,0.0,0.0,0.0,0.0,0.0,0.0,0.0,0.0,0.0,0.0,0.0,0.0,0.0,0.0,-4.4497,0.0,0.0,0.0,0.0,0.0,0.0,0.0,0.0,-4.6899,-4.7584,-4.7645,-4.8427,-4.8525,0.0,-4.8016,-4.7139,0.0,0.0,0.0,0.0,0.0,0.0,0.0,0.0,-4.5734,-4.6302,-4.6593,-4.6593,-4.6319,-4.6612,-4.6612,-4.63,-4.6302,-4.5884,-4.5016,-4.3903,-4.3017,0.0,0.0,0.0,0.0,0.0,0.0,0.0,0.0,0.0,0.0,0.0,0.0,0.0,0.0,0.0,0.0,0.0,0.0,0.0,0.0,0.0,0.0,0.0,-3.8285,0.0,0.0,0.0,0.0,0.0,0.0,0.0,0.0,0.0,-3.9441,-3.9938,-4.032,-4.032,-4.032,-4.032,-4.032,0.0,0.0,0.0,0.0,0.0,0.0,0.0,-4.0196,-4.0166,-4.0026,-3.9845,-3.9647,-3.9298,-3.8779,-3.8048,0.0,0.0,-3.6093,-3.588,-3.5849,-3.5802,-3.5786,-3.5786,-3.5786,-3.5369,-3.517,0.0,0.0,0.0,0.0,0.0,0.0,0.0,0.0,-4.624,-4.6248,0.0,-4.6208,0.0,0.0,0.0,0.0,0.0,0.0,0.0,0.0,-4.724,-4.7615,-4.7742,-4.8545,-4.8876,-4.8837,-4.8837,-4.8798,-4.8642,-4.712,0.0,0.0,0.0,0.0,0.0,0.0,-4.638,-4.6436,-4.7235,-4.7235,-4.6475,-4.7178,-4.7178,-4.6339,-4.6302,-4.5904,-4.5091,-4.4974,-4.4178,-4.2494,-4.2335,0.0,0.0,0.0,0.0,0.0,0.0,0.0,0.0,0.0,0.0,0.0,0.0,0.0,0.0,0.0,0.0,0.0,0.0,0.0,0.0,-3.8534,0.0,0.0,0.0,0.0,0.0,0.0,0.0,0.0,0.0,0.0,-4.0396,-4.0377,-4.0339,-4.0358,0.0,0.0,0.0,0.0,-4.1533,-4.1533,-4.1533,-4.1543,-4.1552,-4.0845,-4.0272,-4.0231,0.0,0.0,-3.9363,-3.9073,-3.8803,-3.8538,-3.8348,-3.78,-3.6295,-3.5996,-3.5949,-3.5949,-3.5967,-3.5894,-3.5894,-3.5931,-3.5858,-4.8685,0.0,0.0,0.0,0.0,-4.7951,-4.7944,-4.7964,-4.8008,-4.7708,-4.7124,-4.7131,0.0,0.0,0.0,0.0,0.0,0.0,-4.715,-4.724,-4.8671,-4.936,-4.9421,-5.0262,-5.034,-4.9753,-4.9733,-4.9423,-4.8798,-4.831,-4.8076,-4.8076,0.0,0.0,0.0,0.0,-4.8076,-4.8096,-4.833,-4.833,-4.8096,-4.7764,-4.7178,-4.6319,-4.6302,-4.6156,-4.588,-4.5258,-4.4713,-4.4171,-4.296,0.0,0.0,0.0,0.0,0.0,0.0,0.0,0.0,0.0,0.0,0.0,0.0,0.0,0.0,0.0,0.0,0.0,0.0,0.0,-3.9508,-3.9766,-4.0014,0.0,0.0,0.0,0.0,0.0,0.0,0.0,0.0,0.0,-4.1991,-4.1533,-4.1151,0.0,0.0,-4.2087,-4.2087,-4.2278,-4.2431,-4.2431,0.0,0.0,0.0,-4.2141,-4.1888,-4.1897,-4.1124,-4.024,-3.9317,-3.8884,-3.8634,-3.8462,-3.8303,-3.8079,-3.7682,-3.7538,-3.7504,-3.7522,-3.7504,-3.7504,-3.7486,-3.7085,-3.6832,-5.0561,-5.0017,-4.9024,-4.8593,-4.8603,-4.8652,-4.8671,-4.8704,-4.8748,-4.8464,-4.8,-4.8004,-4.7715,-4.7232,-4.7232,0.0,0.0,0.0,-4.8017,-4.8089,-4.945,-5.012,-5.0163,-5.1004,-5.1141,-5.0631,-5.0612,-5.036,-4.9833,-4.9833,-4.9833,-4.9794,0.0,0.0,-4.8798,-4.8798,-4.8798,-4.8818,-4.913,-4.915,-4.8798,-4.8016,-4.7354,-4.6827,-4.6475,-4.6271,-4.6189,-4.5696,-4.5241,-4.4873,-4.3841,-4.3077,0.0,0.0,0.0,0.0,0.0,0.0,0.0,0.0,0.0,0.0,0.0,-3.8016,0.0,0.0,0.0,0.0,-3.9202,-3.9737,-4.0244,-4.032,0.0,0.0,0.0,0.0,0.0,0.0,0.0,-4.1934,-4.2011,-4.2221,-4.2717,-4.2622,-4.2374,-4.2068,-4.2469,-4.2794,-4.2794,0.0,-4.3291,-4.3291,-4.3271,-4.3261,-4.3271,-4.2914,-4.2612,-4.2514,-4.1843,-4.1038,-4.0254,-3.9804,-3.9431,-3.8998,-3.8779,-3.8589,-3.8281,-3.8209,-3.8209,-3.8209,-3.8209,-3.8209,-3.8209,-3.781,-3.7629,-5.251,-5.2321,-4.999,-4.8952,-4.8798,-4.8817,-4.8837,-4.8904,-4.8907,-4.8876,-4.8822,-4.8857,-4.8865,-4.8806,-4.8806,0.0,-4.881,-4.8867,-4.8922,-4.8937,-4.9811,-5.0193,-5.0241,-5.1023,-5.1394,-5.1394,-5.1394,-5.1394,-5.1375,-5.1375,-5.1394,-5.1355,-4.9794,-4.9013,-4.9013,-4.9013,-4.8993,-4.9013,-4.9792,-4.9772,-4.8935,-4.8191,-4.7742,-4.7586,-4.6827,-4.6329,-4.6209,-4.6215,-4.5793,-4.495,-4.4842,-4.4386,-4.344,0.0,0.0,0.0,0.0,0.0,0.0,0.0,0.0,0.0,0.0,0.0,0.0,0.0,0.0,0.0,-4.032,0.0,-4.0396,-4.0396,0.0,0.0,0.0,-4.0798,-4.1514,-4.159,-4.1934,-4.2794,0.0,0.0,-4.3004,0.0,-4.3815,-4.31,-4.2985,-4.3004,-4.3004,-4.3654,-4.4121,-4.4102,-4.4102,-4.4102,-4.4083,-4.3488,-4.2906,-4.2579,-4.2234,-4.1981,-4.1556,-4.124,-4.0694,-3.9856,-3.9579,-3.9278,-3.85,-3.85,-3.8373,-3.848,-3.8299,-3.8209,-3.8209,-3.8172,-3.8136,-5.3466,-5.3408,-5.281,-5.1808,-5.0606,-5.0588,-5.0632,-5.0679,-5.068,-5.0318,-4.9699,-4.9699,-4.9372,-4.8806,-4.8806,-4.8794,-4.8828,-4.949,-4.9798,-4.985,-5.0683,-5.11,-5.1102,-5.1297,-5.1394,-5.1394,-5.1394,-5.1394,-5.1394,-5.1394,-5.1394,-5.1375,-5.0984,-5.0789,-5.077,-5.077,-5.077,-5.077,-5.0984,-5.067,-4.9811,-4.9597,-4.8894,-4.7645,-4.7393,-4.6954,-4.6248,-4.6203,-4.6076,-4.5791,-4.5152,-4.466,-4.4311,-4.346,0.0,0.0,0.0,0.0,0.0,0.0,0.0,0.0,0.0,-3.9818,-4.0004,0.0,-4.009,0.0,-4.032,-4.0559,-4.117,-4.1208,0.0,0.0,-4.2202,-4.2278,-4.2469,-4.2488,-4.2794,-4.3624,-4.372,-4.3978,-4.4628,-4.4857,-4.4914,-4.4723,-4.4704,-4.4715,-4.4723,-4.4857,-4.4991,-4.4972,-4.4953,-4.4972,-4.4942,-4.4753,-4.4232,-4.3426,-4.3133,-4.2674,-4.176,-4.1314,-4.0952,-4.0586,-4.0379,-4.0166,-3.9948,-3.9967,-3.9948,-3.9876,-3.9025,-3.8209,-3.8209,-3.8227,-3.8227,-5.4382,-5.4343,-5.3954,-5.3234,-5.2339,-5.1984,-5.1827,-5.1849,-5.1468,-5.1028,-5.0579,-5.0599,-5.0346,-4.9917,-4.9909,-4.9896,-4.9949,-5.0438,-5.0689,-5.0713,-5.1195,-5.1394,-5.1394,-5.1394,-5.1394,-5.1394,-5.1394,-5.1394,-5.1394,-5.1394,-5.1394,-5.1394,-5.1394,-5.1394,-5.1394,-5.1394,-5.1394,-5.1394,-5.1394,-5.116,-5.069,-5.0299,-4.9636,-4.8757,-4.7996,-4.7342,-4.6794,-4.6396,-4.617,-4.6098,-4.5624,-4.5285,-4.5164,-4.4342,-4.3808,0.0,0.0,0.0,0.0,0.0,0.0,0.0,0.0,0.0,0.0,0.0,-4.1399,0.0,-4.1409,-4.159,-4.203,-4.2068,-4.2278,-4.2737,-4.2794,-4.2928,-4.331,-4.3338,-4.3654,-4.4475,-4.4571,-4.4762,-4.522,-4.5277,-4.543,-4.5774,-4.5831,-4.5698,-4.5383,-4.5277,-4.5277,-4.5277,-4.5277,-4.5277,-4.5277,-4.5181,-4.4897,-4.4357,-4.4033,-4.361,-4.2861,-4.243,-4.2029,-4.1444,-4.1179,-4.089,-4.0583,-4.0492,-4.0492,-4.0401,-3.984,-3.9152,-3.8808,-3.8735,-3.868,-5.5424,-5.537,-5.4509,-5.4154,-5.408,-5.3282,-5.2881,-5.2719,-5.1963,-5.1632,-5.1636,-5.1636,-5.1577,-5.1483,-5.1486,-5.1434,-5.132,-5.1369,-5.1457,-5.1557,-5.1566,-5.1609,-5.1726,-5.1726,-5.1687,-5.157,-5.157,-5.1511,-5.1394,-5.1394,-5.1394,-5.1394,-5.1394,-5.1394,-5.1394,-5.1394,-5.1394,-5.1394,-5.1394,-5.1394,-5.1375,-5.0651,-5.0202,-5.0046,-4.8699,-4.7773,-4.7496,-4.676,-4.63,-4.6126,-4.6051,-4.598,-4.5887,-4.5114,-4.4639,0.0,-4.378,0.0,0.0,0.0,0.0,0.0,0.0,0.0,0.0,-4.2794,-4.2794,-4.2794,-4.2794,-4.2851,-4.2947,-4.2966,-4.3004,-4.31,-4.3119,-4.3405,-4.4064,-4.4255,-4.4598,-4.5373,-4.5545,-4.5602,-4.5679,-4.5621,-4.5908,-4.6538,-4.6691,-4.6462,-4.5812,-4.5717,-4.5755,-4.5621,-4.5526,-4.5545,-4.5477,-4.5257,-4.508,-4.4979,-4.4701,-4.451,-4.4061,-4.3733,-4.3254,-4.2391,-4.1996,-4.1632,-4.0926,-4.0854,-4.0854,-4.0944,-4.0872,-4.0528,-3.9767,-3.9532,-3.9297,-5.7215,-5.7137,-5.6338,-5.5987,-5.5914,-5.5056,-5.4297,-5.3654,-5.3483,-5.3413,-5.3408,-5.3408,-5.3049,-5.2461,-5.2425,-5.2044,-5.1391,-5.1396,-5.1774,-5.2446,-5.2448,-5.2839,-5.3483,-5.3522,-5.3132,-5.2489,-5.245,-5.2078,-5.1394,-5.1394,-5.1394,-5.1394,-5.1394,-5.1394,-5.1394,0.0,0.0,0.0,-5.1394,-5.1394,-5.1394,-5.1238,-5.0809,-5.0143,-4.9792,0.0,-4.7587,-4.734,-4.6927,-4.6227,-4.6104,0.0,0.0,0.0,0.0,0.0,0.0,0.0,0.0,0.0,0.0,0.0,-4.4829,-4.4256,-4.2928,-4.2794,-4.2794,-4.2794,-4.2794,-4.3061,-4.3701,-4.3777,-4.4074,-4.4743,-4.4819,-4.4906,-4.5067,-4.5621,-4.6118,-4.6252,-4.6901,-4.7302,-4.7264,-4.733,-4.7379,-4.7502,-4.7551,-4.7494,-4.7349,-4.7283,-4.7302,-4.7302,-4.671,-4.629,-4.6271,-4.5638,-4.5156,-4.4979,-4.477,-4.4472,-4.417,-4.3825,-4.3529,-4.2995,-4.2813,-4.2611,-4.2429,-4.2466,-4.2339,-4.2429,-4.2411,-4.2013,-4.0601,-4.0311,-4.0256,-5.8334,0.0,-5.791,-5.7501,0.0,-5.6619,-5.5957,-5.5119,-5.4262,-5.3904,-5.3903,-5.3903,-5.368,-5.3289,-5.3337,-5.3089,-5.2667,-5.2691,-5.2932,-5.3327,-5.3346,-5.3561,-5.399,-5.399,-5.3776,-5.3346,-5.3327,-5.3112,-5.2683,-5.2234,-5.2038,-5.2038,-5.1629,-5.1394,-5.1394,-5.1394,-5.1394,-5.1394,-5.1394,-5.1394,-5.1394,-5.1394,-5.118,-5.0748,0.0,0.0,0.0,0.0,0.0,0.0,0.0,0.0,0.0,0.0,0.0,-4.5714,-4.5566,-4.5476,-4.541,-4.535,-4.5277,-4.5277,-4.5277,-4.4934,-4.4074,-4.4046,-4.4017,-4.4036,-4.4036,-4.4208,-4.459,-4.4628,-4.4972,-4.5774,-4.5889,-4.6042,-4.6481,-4.6901,-4.7131,-4.7158,-4.7532,-4.7788,-4.7788,-4.7788,-4.7979,-4.8353,-4.8449,-4.8582,-4.8869,-4.8304,-4.7788,-4.7788,-4.7483,-4.7169,-4.7081,-4.6344,-4.5719,-4.5641,-4.5124,-4.4578,-4.4236,-4.3955,-4.3649,-4.3339,-4.3105,-4.2994,-4.2919,-4.2919,-4.2919,-4.2919,-4.2919,-4.2683,-4.1796,-4.1379,-4.0945,-5.923,-5.9215,-5.9064,-5.8577,-5.7934,-5.7938,-5.7567,-5.6827,0.0,0.0,0.0,-5.4359,-5.4294,-5.4156,-5.4206,-5.4153,-5.3996,-5.3986,-5.4088,-5.4225,-5.4244,-5.4303,-5.4459,-5.4459,-5.4381,-5.4244,-5.4244,-5.4147,-5.3971,-5.3268,-5.2841,-5.2646,-5.198,-5.155,-5.1394,-5.1394,-5.1394,-5.1394,-5.1394,-5.1394,-5.1394,-5.1394,-5.1394,-5.1394,-5.0709,-5.0256,-5.0091,-4.8713,-4.7894,-4.7726,-4.6854,-4.6329,-4.6247,-4.5983,-4.5793,-4.5723,-4.5582,-4.5475,-4.541,-4.536,-4.5317,-4.5277,-4.543,-4.5449,-4.5297,-4.5277,-4.5277,-4.5277,-4.5422,-4.5488,-4.5507,-4.566,-4.6003,-4.6672,-4.6729,-4.7035,-4.7693,-4.7971,-4.8028,-4.8048,-4.8189,-4.8258,-4.8315,-4.8334,-4.8487,-4.9117,-4.9308,-4.9511,-4.9958,-4.9156,-4.8391,-4.8399,-4.8239,-4.8048,-4.7911,-4.724,-4.6675,-4.6575,-4.5685,-4.4872,-4.4576,-4.4206,-4.3783,-4.3355,-4.3196,-4.3068,-4.2938,-4.2919,-4.2919,-4.2919,-4.2919,-4.2919,-4.2865,-4.2375,-4.1723,-6.0107,-6.0068,-5.933,-5.8929,-5.8812,-5.887,-5.8838,-5.8581,-5.6886,-5.6149,-5.6131,-5.6143,-5.577,-5.5099,-5.5101,-5.4711,-5.4008,-5.3988,-5.44,0.0,-5.5125,-5.5513,-5.6216,-5.6235,-5.5845,-5.5164,-5.5125,-5.4732,-5.4068,-5.3873,-5.3444,-5.2782,-5.2587,-5.2136,-5.1472,-5.1394,-5.1394,-5.1394,-5.1394,-5.1394,-5.1394,-5.1394,-5.1394,-5.1394,-5.1277,-5.0865,-5.0141,-4.9857,-4.9377,-4.8655,-4.7785,-4.7267,-4.7184,-4.6441,-4.5925,-4.5788,-4.5676,-4.5528,-4.5429,-4.539,-4.5348,-4.5345,-4.5946,-4.6042,-4.5354,-4.5277,-4.5277,-4.5316,-4.5946,-4.6347,-4.6366,-4.6967,-4.7417,-4.7578,-4.7627,-4.7693,-4.7884,-4.8487,-4.8907,-4.8907,-4.9538,-4.9882,-4.9805,-4.9843,-4.9843,-5.0054,-4.9996,-5.0168,-5.0206,-5.0111,-4.9958,-4.9862,-4.9347,-4.8984,-4.882,-4.8078,-4.7512,-4.7443,-4.6531,-4.5733,-4.5467,-4.4705,-4.3985,-4.341,-4.3306,-4.3104,-4.2956,-4.2919,-4.2919,-4.2919,-4.2919,-4.2919,-4.2919,-4.2755,-4.2611,-6.1002,-6.0967,-6.0578,-6.0161,-5.9732,-5.929,-5.9118,-5.904,-5.8279,-5.7642,-5.7219,-5.7208,-5.677,-5.604,-5.6001,-5.5786,-5.5415,-5.5415,-5.5611,-5.6001,-5.6001,-5.6216,-5.6567,-5.6604,-5.6391,-5.602,-5.6001,-5.5786,-5.5396,-5.4947,-5.4498,-5.4071,-5.3192,-5.2509,-5.2117,-5.1629,-5.1394,-5.1394,-5.1394,-5.1394,-5.1394,-5.1394,-5.1394,-5.1394,-5.1394,-5.1238,-5.0809,-5.0349,-4.9925,-4.9522,-4.8633,-4.8117,-4.8044,-4.7598,-4.732,-4.7216,-4.7089,-4.694,-4.682,-4.6739,-4.6674,-4.6653,-4.6997,-4.7054,-4.671,-4.6653,-4.6653,-4.6672,-4.7016,-4.7196,-4.7215,-4.7559,-4.8009,-4.8468,-4.8506,-4.8697,-4.9117,-4.948,-4.9748,-4.9767,-5.0073,-5.0302,-5.0302,-5.0302,-5.0302,-5.0302,-5.0302,-5.0302,-5.0302,-5.0302,-5.0302,-5.0264,-4.9977,-4.9786,-4.971,-4.8972,-4.8424,-4.8312,-4.739,-4.6706,-4.6417,-4.573,-4.5045,-4.4352,-4.398,-4.3597,-4.3157,-4.2938,-4.2919,-4.2919,-4.2919,-4.2919,-4.2919,-4.2919,-4.2919,-6.1584,-6.1592,-6.1615,-6.1274,-6.0633,-5.997,-5.9677,-5.9697,-5.9689,-5.9207,-5.8426,-5.8192,-5.7631,-5.6916,-5.6879,-5.6782,-5.6623,-5.6604,-5.6604,-5.6604,-5.6604,-5.6604,-5.6604,-5.6604,-5.6604,-5.6604,-5.6604,-5.6604,-5.6528,-5.5923,-5.5474,-5.5144,-5.3563,-5.2704,-5.2685,-5.1824,-5.1394,-5.1394,-5.1394,-5.1394,-5.1394,-5.1394,-5.1394,-5.1394,-5.1394,-5.1394,-5.1375,-5.0761,-5.0399,-5.0363,-4.9517,-4.8986,-4.891,-4.8658,-4.8483,-4.8394,-4.829,-4.817,-4.802,-4.7878,-4.7829,-4.7807,-4.799,-4.8075,-4.8124,-4.8266,-4.817,-4.7884,-4.7952,-4.8086,-4.8124,-4.8304,-4.864,-4.9301,-4.9358,-4.9576,-5.0168,-5.0302,-5.0302,-5.0302,-5.0302,-5.0302,-5.0302,-5.0302,-5.0302,-5.0302,-5.0302,-5.0302,-5.0302,-5.0302,-5.0302,-5.0302,-5.0302,-5.0264,-5.0252,-4.9739,-4.9299,-4.9181,-4.8314,-4.7689,-4.7344,-4.694,-4.6271,-4.5389,-4.4966,-4.44,-4.3614,-4.3302,-4.3137,-4.301,-4.2919,-4.2919,-4.2919,-4.2919,-4.2919,-6.1596,-6.1595,-6.167,-6.1646,-6.154,-6.1442,-6.1383,-6.1403,-6.1444,-6.0976,-6.0078,-5.9336,-5.8517,-5.7758,-5.768,-5.727,-5.6662,-5.6604,-5.6604,-5.6604,-5.6604,-5.6604,-5.6604,-5.6604,-5.6604,-5.6604,-5.6604,-5.6604,-5.6604,-5.6508,-5.6079,-5.5181,-5.3563,-5.2743,-5.2626,-5.1843,-5.1394,-5.1394,-5.1394,-5.1394,-5.1394,-5.1394,-5.1394,-5.1394,-5.1394,-5.1394,-5.1394,-5.1334,-5.1264,-5.1202,-5.0436,-4.9939,-4.98,-4.9079,-4.8572,-4.8449,-4.8377,-4.8207,-4.8048,-4.7937,-4.793,-4.7857,-4.8582,-4.8984,-4.9014,-4.9633,-4.9385,-4.8361,-4.8563,-4.8945,-4.9033,-4.9557,-4.9939,-5.0015,-5.0111,-5.0245,-5.0283,-5.0302,-5.0302,-5.0302,-5.0302,-5.0302,-5.0302,-5.0302,-5.0302,-5.0302,-5.0302,-5.0302,-5.0302,-5.0302,-5.0302,-5.0302,-5.0302,-5.0302,-5.0271,-5.0217,-4.999,-4.9935,-4.9227,-4.8551,-4.8145,-4.7447,-4.6544,-4.6357,-4.5864,-4.5333,-4.4543,-4.4064,-4.3753,-4.3353,-4.3136,-4.2918,-4.2919,-4.2919,-4.2919,-6.1664,-6.1654,-6.1685,-6.1713,-6.1698,-6.1698,-6.1698,-6.1698,-6.1698,-6.1483,-6.1154,-6.0781,-5.9885,-5.8538,-5.805,-5.7601,-5.7289,-5.6821,-5.6604,-5.6604,-5.6604,-5.6604,-5.6604,-5.6604,-5.6604,-5.6604,-5.6604,-5.6604,-5.6604,-5.6604,-5.6411,-5.5923,-5.4322,-5.3463,-5.3346,-5.2097,-5.1394,-5.1394,-5.1394,-5.1394,-5.1394,-5.1394,-5.1394,-5.1394,-5.1394,-5.1394,-5.1394,-5.1394,-5.1384,-5.1378,-5.1043,-5.0816,-5.0709,-5.0339,-5.0103,-4.9995,-4.9837,-4.9643,-4.9475,-4.9412,-4.9357,-4.927,-4.9595,-4.9805,-4.9824,-5.013,-4.9977,-4.95,-4.9614,-4.9805,-4.9824,-5.0092,-5.0302,-5.0302,-5.0302,-5.0302,-5.0302,-5.0302,-5.0302,-5.0302,-5.0302,-5.0302,-5.0302,-5.0302,-5.0302,-5.0302,-5.0302,-5.0302,-5.0302,-5.0302,-5.0302,-5.0302,-5.0302,-5.0302,-5.0302,-5.029,-5.0255,-5.0042,-4.9398,-4.8787,-4.9021,-4.825,-4.7423,-4.7246,-4.6924,-4.6342,-4.5387,-4.507,-4.4753,-4.4243,-4.3751,-4.348,-4.3028,-4.2919,-4.2919,-6.1702,-6.1705,-6.1715,-6.1698,-6.1698,-6.1698,-6.1698,-6.1698,-6.1698,-6.1698,-6.1698,-6.1698,-6.1035,-5.9805,-5.8909,-5.8285,-5.7758,-5.7192,-5.6799,-5.6643,-5.6604,-5.6604,-5.6604,-5.6604,-5.6604,-5.6604,-5.6604,-5.6604,-5.6604,-5.6604,-5.6604,-5.6352,-5.4849,-5.399,-5.3815,-5.2273,-5.1394,-5.1394,-5.1394,-5.1394,-5.1394,-5.1394,-5.1394,-5.1394,-5.1394,-5.1394,-5.1394,-5.1394,-5.1384,-5.1397,-5.1394,-5.1346,-5.1225,-5.121,-5.1163,-5.1034,-5.0852,-5.0664,-5.0525,-5.047,-5.0404,-5.0337,-5.0325,-5.0314,-5.0302,-5.0302,-5.0302,-5.0264,-5.0302,-5.0283,-5.0302,-5.0302,-5.0302,-5.0302,-5.0302,-5.0302,-5.0302,-5.0302,-5.0302,-5.0302,-5.0302,-5.0302,-5.0302,-5.0302,-5.0302,-5.0302,-5.0302,-5.0302,-5.0302,-5.0302,-5.0302,-5.0302,-5.0302,-5.0302,-5.0302,-5.029,-5.0278,-5.0059,-4.9447,-4.9036,-4.9516,-4.8612,-4.8031,-4.7703,-4.7689,-4.737,-4.6452,-4.6063,-4.5629,-4.5296,-4.4802,-4.4277,-4.3878,-4.3625,-4.3588,-6.1707,-6.1718,-6.1698,-6.1698,-6.1698,-6.1698,-6.1698,-6.1698,-6.1698,-6.1698,-6.1698,-6.1698,-6.164,-6.1425,-6.0549,-5.9358,-5.7953,-5.7738,-5.727,-5.6662,-5.6604,-5.6604,-5.6604,-5.6604,-5.6604,-5.6604,-5.6604,-5.6604,-5.6604,-5.6604,-5.6604,-5.6506,-5.4849,-5.399,-5.3756,-5.2253,-5.1394,-5.1394,-5.1394,-5.1394,-5.1394,-5.1394,-5.1394,-5.1394,-5.1394,-5.1394,-5.1394,-5.1394,-5.1384,-5.1394,-5.1394,-5.1372,-5.1291,-5.124,-5.112,-5.0937,-5.0844,-5.0757,-5.0625,-5.0575,-5.0521,-5.0424,-5.0401,-5.0359,-5.0333,-5.0302,-5.0302,-5.0302,-5.0302,-5.0302,-5.0302,-5.0302,-5.0302,-5.0302,-5.0302,-5.0302,-5.0302,-5.0302,-5.0302,-5.0302,-5.0302,-5.0302,-5.0302,-5.0302,-5.0302,-5.0302,-5.0302,-5.0302,-5.0302,-5.0302,-5.0302,-5.0302,-5.0302,-5.0302,-5.0302,-5.0302,-5.0302,-5.0038,-4.952,-4.8945,-4.8802,-4.8594,-4.8277,-4.8193,-4.8296,-4.8044,-4.7426,-4.6854,-4.6292,-4.588,-4.5528,-4.5091,-4.4657,-4.5019,-4.4928,-6.1715,-6.1698,-6.1698,-6.1698,-6.1698,-6.1698,-6.1698,-6.1698,-6.1698,-6.1698,-6.1698,-6.1698,-6.1698,-6.1679,-6.1366,-6.0276,-5.8675,-5.807,-5.7348,-5.6662,-5.6604,-5.6604,-5.6604,-5.6604,-5.6604,-5.6604,-5.6604,-5.6604,-5.6604,-5.6604,-5.6604,-5.6311,-5.4869,-5.399,-5.3678,-5.2253,-5.1394,-5.1394,-5.1394,-5.1394,-5.1394,-5.1394,-5.1394,-5.1394,-5.1394,-5.1394,-5.1394,-5.1394,-5.1384,-5.1397,-5.1394,-5.1372,-5.1291,-5.1205,-5.1088,-5.0959,-5.0909,-5.0771,-5.0616,-5.0596,-5.0575,-5.0489,-5.0468,-5.0446,-5.039,-5.0379,-5.0337,-5.0314,-5.0302,-5.0302,-5.0302,-5.0302,-5.0302,-5.0302,-5.0302,-5.0302,-5.0302,-5.0302,-5.0302,-5.0302,-5.0302,-5.0302,-5.0302,-5.0302,-5.0302,-5.0302,-5.0302,-5.0302,-5.0302,-5.0302,-5.0302,-5.0302,-5.0302,-5.0302,-5.0302,-5.0302,-5.0214,-4.9839,-4.9384,-4.886,-4.8573,-4.7593,-4.7062,-4.7989,-4.8356,-4.8403,-4.7754,-4.7587,-4.7041,-4.6501,-4.6148,-4.587,-4.5381,-4.5653,-4.5544,-6.1698,-6.1698,-6.1698,-6.1698,-6.1698,-6.1698,-6.1698,-6.1698,-6.1698,-6.1698,-6.1698,-6.1698,-6.1698,-6.1698,-6.1698,-6.0761,-5.918,-5.846,-5.7641,-5.6662,-5.6604,-5.6604,-5.6604,-5.6604,-5.6604,-5.6604,-5.6604,-5.6604,-5.6604,-5.6604,-5.6604,-5.6506,-5.4869,-5.399,-5.3717,-5.2253,-5.1394,-5.1394,-5.1394,-5.1394,-5.1394,-5.1394,-5.1394,-5.1394,-5.1394,-5.1394,-5.1394,-5.1394,-5.1386,-5.1386,-5.1397,-5.1372,-5.1291,-5.1205,-5.1107,-5.1049,-5.0944,-5.085,-5.0727,-5.0682,-5.0645,-5.0575,-5.0544,-5.0513,-5.0468,-5.0424,-5.0371,-5.0337,-5.0302,-5.0302,-5.0302,-5.0302,-5.0302,-5.0302,-5.0302,-5.0302,-5.0302,-5.0302,-5.0302,-5.0302,-5.0302,-5.0302,-5.0302,-5.0302,-5.0302,-5.0302,-5.0302,-5.0302,-5.0302,-5.0302,-5.0302,-5.0302,-5.0302,-5.0302,-5.0302,-5.0302,-5.0302,-4.9985,-4.9075,-4.8602,-4.8067,-4.6946,-4.6651,-4.7634,-4.8164,-4.8287,-4.827,-4.8176,-4.7756,-4.7179,-4.6985,-4.6776,-4.645,-4.6214,-4.6214,-6.1698,-6.1698,-6.1698,-6.1698,-6.1698,-6.1698,-6.1698,-6.1698,-6.1698,-6.1698,-6.1698,-6.1698,-6.1698,-6.1698,-6.1601,-6.0683,-5.9317,-5.8909,-5.8011,-5.6701,-5.6604,-5.6604,-5.6604,-5.6604,-5.6604,-5.6604,-5.6604,-5.6604,-5.6604,-5.6604,-5.6604,-5.6294,-5.4849,-5.399,-5.399,-5.2331,-5.1394,-5.1394,-5.1394,-5.1394,-5.1394,-5.1394,-5.1394,-5.1394,-5.1394,-5.1394,-5.1394,-5.1394,-5.1388,-5.1396,-5.1383,-5.1372,-5.13,-5.1245,-5.1178,-5.1081,-5.0969,-5.0914,-5.089,-5.0825,-5.0784,-5.072,-5.0635,-5.0615,-5.0565,-5.0489,-5.0404,-5.0412,-5.0337,-5.0302,-5.0302,-5.0302,-5.0302,-5.0302,-5.0302,-5.0302,-5.0302,-5.0302,-5.0302,-5.0302,-5.0302,-5.0302,-5.0302,-5.0302,-5.0302,-5.0302,-5.0302,-5.0302,-5.0302,-5.0302,-5.0302,-5.0302,-5.0302,-5.0302,-5.0302,-5.0302,-5.0302,-5.0099,-4.8953,-4.8159,-4.7808,-4.6972,-4.6611,-4.7314,-4.8022,-4.8193,-4.8558,-4.842,-4.8168,-4.7735,-4.7684,-4.7521,-4.7246,-4.7011,-4.721,-6.1698,-6.1698,-6.1698,-6.1698,-6.1698,-6.1698,-6.1698,-6.1698,-6.1698,-6.1698,-6.1698,-6.1698,-6.1698,-6.1562,-6.1095,-6.0198,-5.9102,-5.848,-5.7621,-5.676,-5.6604,-5.6604,-5.6604,-5.6604,-5.6604,-5.6604,-5.6604,-5.6604,-5.6604,-5.6604,-5.6604,-5.6292,-5.4869,-5.4029,-5.3912,-5.2331,-5.1394,-5.1394,-5.1394,-5.1394,-5.1394,-5.1394,-5.1394,-5.1394,-5.1394,-5.1394,-5.1394,-5.1394,-5.139,-5.1399,-5.1394,-5.1372,-5.132,-5.1282,-5.1215,-5.1111,-5.1069,-5.1004,-5.0978,-5.0941,-5.0901,-5.0836,-5.0801,-5.0757,-5.0683,-5.0605,-5.0544,-5.0521,-5.0446,-5.0379,-5.0348,-5.0344,-5.0302,-5.0302,-5.0302,-5.0302,-5.0302,-5.0302,-5.0302,-5.0302,-5.0302,-5.0302,-5.0302,-5.0302,-5.0302,-5.0302,-5.0302,-5.0302,-5.0302,-5.0302,-5.0302,-5.0302,-5.0302,-5.0302,-5.0302,-5.0302,-5.0302,-5.013,-4.9213,-4.8151,-4.7678,-4.711,-4.6789,-4.698,-4.7692,-4.8265,-4.8623,-4.8624,-4.8363,-4.8128,-4.7913,-4.779,-4.7741,-4.7699,-4.7699,-6.1698,-6.1698,-6.1698,-6.1698,-6.1698,-6.1698,-6.1698,-6.1698,-6.1698,-6.1698,-6.1698,-6.1698,-6.1698,-6.1522,-6.0783,-5.9944,-5.9063,-5.8187,-5.7367,-5.6701,-5.6604,-5.6604,-5.6604,-5.6604,-5.6604,-5.6604,-5.6604,-5.6604,-5.6604,-5.6604,-5.6604,-5.6331,-5.5181,-5.4303,-5.3932,-5.2644,-5.1765,-5.1472,-5.1394,-5.1394,-5.1394,-5.1394,-5.1394,-5.1394,-5.1394,-5.1394,-5.1394,-5.1394,-5.139,-5.1386,-5.1401,-5.1361,-5.13,-5.1292,-5.1258,-5.119,-5.1153,-5.1132,-5.1076,-5.1049,-5.1015,-5.0983,-5.0945,-5.0897,-5.0782,-5.0709,-5.0664,-5.0576,-5.0532,-5.0446,-5.0412,-5.0379,-5.0325,-5.0302,-5.0302,-5.0302,-5.0302,-5.0302,-5.0302,-5.0302,-5.0302,-5.0302,-5.0302,-5.0302,-5.0302,-5.0302,-5.0302,-5.0302,-5.0302,-5.0302,-5.0302,-5.0302,-5.0302,-5.0302,-5.0302,-5.0302,-5.0302,-5.0015,-4.9557,-4.8621,-4.7892,-4.7098,-4.6572,-4.7131,-4.7786,-4.8442,-4.8845,-4.8747,-4.855,-4.8361,-4.8126,-4.7947,-4.7804,-4.772,-4.7699,-6.1698,-6.1698,-6.1698,-6.1698,-6.1698,-6.1698,-6.1698,-6.1698,-6.1698,-6.1698,-6.1698,-6.1698,-6.164,-6.1425,-6.0568,-5.9729,-5.8948,-5.8031,-5.727,-5.676,-5.6604,-5.6604,-5.6604,-5.6604,-5.6604,-5.6604,-5.6604,-5.6604,-5.6604,-5.6604,-5.6604,-5.6487,-5.565,-5.483,-5.399,-5.3093,-5.2195,-5.1492,-5.1394,-5.1394,-5.1394,-5.1394,-5.1394,-5.1394,-5.1394,-5.1394,-5.1394,-5.1394,-5.1394,-5.1392,-5.1384,-5.1366,-5.132,-5.1296,-5.1316,-5.1291,-5.123,-5.121,-5.1184,-5.115,-5.1108,-5.1089,-5.1042,-5.0978,-5.0914,-5.085,-5.0773,-5.0663,-5.0606,-5.0553,-5.0448,-5.0424,-5.0401,-5.0314,-5.0283,-5.0302,-5.0302,-5.0302,-5.0302,-5.0302,-5.0302,-5.0302,-5.0302,-5.0302,-5.0302,-5.0302,-5.0302,-5.0302,-5.0302,-5.0302,-5.0302,-5.0302,-5.0302,-5.0302,-5.0302,-5.0302,-5.0302,-5.0168,-4.9805,-4.9156,-4.8151,-4.7261,-4.695,-4.7491,-4.7805,-4.8489,-4.8962,-4.8932,-4.8787,-4.8569,-4.8323,-4.8068,-4.7907,-4.7804,-4.7738,-6.1698,-6.1698,-6.1698,-6.1698,-6.1698,-6.1698,-6.1698,-6.1698,-6.1698,-6.1698,-6.1698,-6.1698,-6.1347,-6.0686,-5.9866,-5.8968,-5.8168,-5.7328,-5.686,-5.6643,-5.6604,-5.6604,-5.6604,-5.6604,-5.6604,-5.6604,-5.6604,-5.6604,-5.6604,-5.6604,-5.6604,-5.6567,-5.5786,-5.4888,-5.401,-5.3151,-5.2273,-5.1511,-5.1394,-5.1394,-5.1394,-5.1394,-5.1394,-5.1394,-5.1394,-5.1394,-5.1394,-5.1394,-5.1394,-5.1394,-5.1384,-5.1396,-5.1366,-5.1369,-5.1353,-5.1316,-5.1285,-5.1284,-5.1278,-5.1254,-5.1229,-5.1192,-5.115,-5.112,-5.1063,-5.0988,-5.0902,-5.0822,-5.0793,-5.0692,-5.0586,-5.0534,-5.0489,-5.0401,-5.0337,-5.0302,-5.0302,-5.0302,-5.0302,-5.0302,-5.0302,-5.0302,-5.0302,-5.0302,-5.0302,-5.0302,-5.0302,-5.0302,-5.0302,-5.0302,-5.0302,-5.0302,-5.0302,-5.0302,-5.0302,-5.0302,-5.0302,-5.0302,-5.0054,-4.9767,-4.8667,-4.7556,-4.7697,-4.818,-4.789,-4.8296,-4.8957,-4.9324,-4.9062,-4.8787,-4.855,-4.8305,-4.8068,-4.7907,-4.7822,-6.1698,-6.1698,-6.1698,-6.1698,-6.1698,-6.1698,-6.1698,-6.1698,-6.1698,-6.1698,-6.1698,-6.1698,-6.1213,-6.0354,-5.9495,-5.8616,-5.7758,-5.6977,-5.6643,-5.6623,-5.6604,-5.6604,-5.6604,-5.6604,-5.6604,-5.6604,-5.6604,-5.6604,-5.6604,-5.6604,-5.6604,-5.6528,-5.6098,-5.524,-5.4029,-5.3522,-5.2605,-5.1648,-5.1394,-5.1394,-5.1394,-5.1394,-5.1394,-5.1394,-5.1394,-5.1394,-5.1394,-5.1394,-5.1394,-5.1392,-5.1388,-5.1384,-5.1399,-5.1391,-5.1378,-5.1343,-5.1343,-5.1353,-5.1331,-5.1312,-5.1291,-5.1244,-5.1225,-5.1189,-5.1144,-5.1082,-5.1017,-5.094,-5.0901,-5.0819,-5.0701,-5.0644,-5.0563,-5.0489,-5.0404,-5.0379,-5.0314,-5.0302,-5.0302,-5.0302,-5.0302,-5.0302,-5.0302,-5.0302,-5.0302,-5.0302,-5.0302,-5.0302,-5.0302,-5.0302,-5.0302,-5.0302,-5.0302,-5.0302,-5.0302,-5.0302,-5.0302,-5.0302,-5.0245,-4.9996,-4.9182,-4.8071,-4.8197,-4.8412,-4.8118,-4.8198,-4.9037,-4.9525,-4.9292,-4.9029,-4.8786,-4.855,-4.8286,-4.809,-4.7968,-6.1698,-6.1698,-6.1698,-6.1698,-6.1698,-6.1698,-6.1698,-6.1698,-6.1698,-6.1698,-6.1679,-6.1601,-6.0939,-6.0217,-5.9183,-5.846,-5.7601,-5.6899,-5.6682,-5.6604,-5.6604,-5.6604,-5.6604,-5.6604,-5.6604,-5.6604,-5.6604,-5.6604,-5.6604,-5.6604,-5.6604,-5.6586,-5.6547,-5.5611,-5.4322,-5.3912,-5.3034,-5.1687,-5.1394,-5.1394,-5.1394,-5.1394,-5.1394,-5.1394,-5.1394,-5.1394,-5.1394,-5.1394,-5.1394,-5.1394,-5.1394,-5.139,-5.1401,-5.1401,-5.1394,-5.1383,-5.1403,-5.138,-5.1394,-5.1349,-5.1312,-5.13,-5.1252,-5.123,-5.121,-5.1164,-5.1105,-5.105,-5.0954,-5.0898,-5.081,-5.0702,-5.0624,-5.0594,-5.0542,-5.0457,-5.0359,-5.0306,-5.0294,-5.0302,-5.0302,-5.0302,-5.0302,-5.0302,-5.0302,-5.0302,-5.0302,-5.0302,-5.0302,-5.0302,-5.0302,-5.0302,-5.0302,-5.0302,-5.0302,-5.0302,-5.0302,-5.0302,-5.0302,-5.0092,-4.9595,-4.8865,-4.8728,-4.8669,-4.8611,-4.889,-4.9492,-4.9669,-4.9461,-4.9257,-4.9027,-4.8786,-4.8569,-4.8363,-4.8228,-6.1698,-6.1698,-6.1698,-6.1698,-6.1698,-6.1698,-6.1698,-6.1698,-6.1698,-6.1679,-6.1542,-6.0998,-6.0217,-5.9339,-5.8519,-5.7641,-5.6996,-5.6701,-5.6623,-5.6604,-5.6604,-5.6604,-5.6604,-5.6604,-5.6604,-5.6604,-5.6604,-5.6604,-5.6604,-5.6604,-5.6604,-5.6604,-5.6506,-5.5747,-5.4303,-5.3971,-5.3132,-5.1726,-5.1414,-5.1394,-5.1394,-5.1394,-5.1394,-5.1394,-5.1394,-5.1394,-5.1394,-5.1394,-5.1394,-5.1394,-5.1394,-5.1392,-5.139,-5.139,-5.1388,-5.1386,-5.1384,-5.1401,-5.1394,-5.1386,-5.1358,-5.1362,-5.1349,-5.1339,-5.1284,-5.1272,-5.1235,-5.1178,-5.1087,-5.0997,-5.0898,-5.0819,-5.0739,-5.0692,-5.0634,-5.0582,-5.0521,-5.0446,-5.0359,-5.0325,-5.0302,-5.0302,-5.0302,-5.0302,-5.0302,-5.0302,-5.0302,-5.0302,-5.0302,-5.0302,-5.0302,-5.0302,-5.0302,-5.0302,-5.0302,-5.0302,-5.0302,-5.0302,-5.0302,-5.0283,-4.9786,-4.9519,-4.9324,-4.9251,-4.9241,-4.9619,-4.9935,-4.9866,-4.9683,-4.9457,-4.9273,-4.9027,-4.882,-4.8642,-4.8439,-6.1698,-6.1698,-6.1698,-6.1698,-6.1698,-6.1698,-6.1698,-6.1698,-6.1698,-6.1466,-6.1056,-6.0549,-5.969,-5.8499,-5.7992,-5.7367,-5.674,-5.6604,-5.6604,-5.6604,-5.6604,-5.6604,-5.6604,-5.6604,-5.6604,-5.6604,-5.6604,-5.6604,-5.6604,-5.6604,-5.6604,-5.6604,-5.6604,-5.5942,-5.4674,-5.4205,-5.3346,-5.2214,-5.157,-5.1394,-5.1394,-5.1394,-5.1394,-5.1394,-5.1394,-5.1394,-5.1394,-5.1394,-5.1394,-5.1394,-5.1394,-5.1394,-5.1394,-5.1394,-5.1394,-5.1394,-5.1394,-5.1392,-5.1388,-5.1401,-5.1394,-5.1389,-5.14,-5.1366,-5.1346,-5.1312,-5.1288,-5.1249,-5.1175,-5.1081,-5.1002,-5.0921,-5.0858,-5.0819,-5.0776,-5.0712,-5.0635,-5.0523,-5.0427,-5.0382,-5.0359,-5.0348,-5.0337,-5.0325,-5.0302,-5.0302,-5.0302,-5.0302,-5.0302,-5.0302,-5.0302,-5.0302,-5.0302,-5.0302,-5.0302,-5.0302,-5.0302,-5.0302,-5.0302,-5.0302,-5.0111,-4.9958,-4.9832,-4.9778,-4.9716,-4.9813,-5.0038,-4.9967,-4.9879,-4.9712,-4.9506,-4.9289,-4.9094,-4.8906,-4.8695,-6.1698,-6.1698,-6.1698,-6.1698,-6.1698,-6.1698,-6.1601,-6.1464,-6.1483,-6.0939,-6.0256,-6.0119,-5.9007,-5.8031,-5.7641,-5.7172,-5.676,-5.6604,-5.6604,-5.6604,-5.6604,-5.6604,-5.6604,-5.6604,-5.6604,-5.6604,-5.6604,-5.6604,-5.6604,-5.6604,-5.6604,-5.6604,-5.6604,-5.6059,-5.5259,-5.442,-5.3522,-5.2607,-5.1785,-5.1394,-5.1394,-5.1394,-5.1394,-5.1394,-5.1394,-5.1394,-5.1394,-5.1394,-5.1394,-5.1394,-5.1394,-5.1394,-5.1394,-5.1394,-5.1394,-5.1394,-5.1394,-5.1394,-5.1392,-5.1386,-5.1401,-5.1401,-5.1391,-5.14,-5.1372,-5.1353,-5.1316,-5.1284,-5.1225,-5.1173,-5.1114,-5.1042,-5.0986,-5.0941,-5.0921,-5.0872,-5.0766,-5.0615,-5.0565,-5.05,-5.0478,-5.0446,-5.0393,-5.0359,-5.0337,-5.0333,-5.0302,-5.0302,-5.0302,-5.0302,-5.0302,-5.0302,-5.0302,-5.0302,-5.0302,-5.0302,-5.0302,-5.0302,-5.0302,-5.0302,-5.0302,-5.0206,-5.008,-5.0176,-5.0178,-5.0181,-5.0125,-5.0057,-4.9986,-4.9879,-4.9741,-4.9521,-4.9352,-4.9193,-4.8957,-6.1698,-6.1698,-6.1698,-6.1698,-6.1698,-6.1698,-6.1269,-6.0686,-6.0646,-6.0119,-5.93,-5.8577,-5.8187,-5.7641,-5.7035,-5.6721,-5.6623,-5.6604,-5.6604,-5.6604,-5.6604,-5.6604,-5.6604,-5.6604,-5.6604,-5.6604,-5.6604,-5.6604,-5.6604,-5.6604,-5.6604,-5.6604,-5.6604,-5.6157,-5.5376,-5.4439,-5.3639,-5.2841,-5.1921,-5.1414,-5.1394,-5.1394,-5.1394,-5.1394,-5.1394,-5.1394,-5.1394,-5.1394,-5.1394,-5.1394,-5.1394,-5.1394,-5.1394,-5.1394,-5.1394,-5.1394,-5.1394,-5.1394,-5.1392,-5.1392,-5.1392,-5.1392,-5.1388,-5.1403,-5.1394,-5.1397,-5.1356,-5.1289,-5.1248,-5.1161,-5.1105,-5.1082,-5.1063,-5.1048,-5.1032,-5.0983,-5.0945,-5.0872,-5.0749,-5.0654,-5.0594,-5.0532,-5.0481,-5.0427,-5.0393,-5.0359,-5.0337,-5.0314,-5.0302,-5.0302,-5.0302,-5.0302,-5.0302,-5.0302,-5.0302,-5.0302,-5.0302,-5.0302,-5.0302,-5.0302,-5.0302,-5.0302,-5.029,-5.029,-5.029,-5.0248,-5.02,-5.0151,-5.0063,-4.9946,-4.9838,-4.9759,-4.9585,-4.9418,-4.9292,-6.1037,-6.1076,-6.1503,-6.1698,-6.162,-6.1213,-6.0803,-6.0373,-5.9924,-5.9241,-5.8519,-5.7972,-5.7543,-5.7172,-5.6821,-5.6604,-5.6604,-5.6604,-5.6604,-5.6604,-5.6604,-5.6604,-5.6604,-5.6604,-5.6604,-5.6604,-5.6604,-5.6604,-5.6604,-5.6604,-5.6604,-5.6604,-5.6604,-5.6372,-5.5747,-5.4674,-5.3893,-5.3132,-5.2136,-5.1394,-5.1394,-5.1394,-5.1394,-5.1394,-5.1394,-5.1394,-5.1394,-5.1394,-5.1394,-5.1394,-5.1394,-5.1394,-5.1394,-5.1394,-5.1394,-5.1394,-5.1394,-5.1394,-5.1394,-5.1394,-5.1394,-5.1394,-5.1394,-5.1392,-5.1384,-5.1389,-5.1366,-5.1292,-5.1252,-5.1201,-5.1169,-5.115,-5.1127,-5.1095,-5.1075,-5.1055,-5.1053,-5.1017,-5.0913,-5.0803,-5.0711,-5.0654,-5.0556,-5.0504,-5.0459,-5.0404,-5.0371,-5.0337,-5.0302,-5.0302,-5.0302,-5.0302,-5.0302,-5.0302,-5.0302,-5.0302,-5.0302,-5.0302,-5.0302,-5.0302,-5.0302,-5.0302,-5.0302,-5.029,-5.029,-5.0259,-5.0248,-5.02,-5.0114,-5.0012,-4.9952,-4.9843,-4.9731,-4.9619,-4.9495,-6.0139,-6.0198,-6.0898,-6.1191,-6.1056,-6.0451,-6.0002,-5.9749,-5.9124,-5.8363,-5.7621,-5.7504,-5.7172,-5.674,-5.6623,-5.6604,-5.6604,-5.6604,-5.6604,-5.6604,-5.6604,-5.6604,-5.6604,-5.6604,-5.6604,-5.6604,-5.6604,-5.6604,-5.6604,-5.6604,-5.6604,-5.6604,-5.6604,-5.6604,-5.6233,-5.483,-5.4244,-5.3463,-5.2312,-5.1433,-5.1394,-5.1394,-5.1394,-5.1394,-5.1394,-5.1394,-5.1394,-5.1394,-5.1394,-5.1394,-5.1394,-5.1394,-5.1394,-5.1394,-5.1394,-5.1394,-5.1394,-5.1394,-5.1394,-5.1394,-5.1394,-5.1394,-5.1394,-5.1394,-5.1388,-5.1391,-5.1362,-5.1304,-5.1248,-5.122,-5.1211,-5.1208,-5.1175,-5.1138,-5.1126,-5.1108,-5.1102,-5.1095,-5.1074,-5.0948,-5.0841,-5.0764,-5.0701,-5.0586,-5.0514,-5.0478,-5.0435,-5.0348,-5.0314,-5.0302,-5.0302,-5.0302,-5.0302,-5.0302,-5.0302,-5.0302,-5.0302,-5.0302,-5.0302,-5.0302,-5.0302,-5.0302,-5.0302,-5.0302,-5.0302,-5.029,-5.0278,-5.0267,-5.0175,-5.0101,-5.0031,-4.9952,-4.9857,-4.9774,-4.9673,-5.9239,-5.9258,-5.9378,-5.9395,-5.9456,-5.9317,-5.8812,-5.8207,-5.805,-5.7504,-5.686,-5.6779,-5.674,-5.6623,-5.6604,-5.6604,-5.6604,-5.6604,-5.6604,-5.6604,-5.6604,-5.6604,-5.6604,-5.6604,-5.6604,-5.6604,-5.6604,-5.6604,-5.6604,-5.6604,-5.6604,-5.6604,-5.6604,-5.6604,-5.6428,-5.5005,-5.4049,-5.3717,-5.2292,-5.1394,-5.1394,-5.1394,-5.1394,-5.1394,-5.1394,-5.1394,-5.1394,-5.1394,-5.1394,-5.1394,-5.1394,-5.1394,-5.1394,-5.1394,-5.1394,-5.1394,-5.1394,-5.1394,-5.1394,-5.1394,-5.1394,-5.1394,-5.1394,-5.1394,-5.1386,-5.1391,-5.1362,-5.1304,-5.1276,-5.1282,-5.1258,-5.1235,-5.1201,-5.118,-5.1184,-5.1178,-5.1181,-5.1152,-5.1127,-5.1102,-5.0969,-5.0933,-5.0888,-5.072,-5.0596,-5.0534,-5.0478,-5.0382,-5.0325,-5.0302,-5.0302,-5.0302,-5.0302,-5.0302,-5.0302,-5.0302,-5.0302,-5.0302,-5.0302,-5.0302,-5.0302,-5.0302,-5.0302,-5.0302,-5.0302,-5.0302,-5.029,-5.0278,-5.0236,-5.0188,-5.012,-5.0057,-5.0005,-4.9925,-4.983,-5.7953,-5.8421,-5.889,-5.9122,-5.9044,-5.8597,-5.8168,-5.7777,-5.7309,-5.6938,-5.6662,-5.6604,-5.6604,-5.6604,-5.6604,-5.6604,-5.6604,-5.6604,-5.6604,-5.6604,-5.6604,-5.6604,-5.6604,-5.6604,-5.6604,-5.6604,-5.6604,-5.6604,-5.6604,-5.6604,-5.6604,-5.6604,-5.6604,-5.6604,-5.6526,-5.5357,-5.4556,-5.3698,-5.2409,-5.1453,-5.1394,-5.1394,-5.1394,-5.1394,-5.1394,-5.1394,-5.1394,-5.1394,-5.1394,-5.1394,-5.1394,-5.1394,-5.1394,-5.1394,-5.1394,-5.1394,-5.1394,-5.1394,-5.1394,-5.1394,-5.1394,-5.1394,-5.1392,-5.1388,-5.1396,-5.1403,-5.1382,-5.1304,-5.1304,-5.131,-5.1287,-5.1244,-5.1215,-5.1206,-5.122,-5.1215,-5.121,-5.12,-5.1159,-5.1136,-5.1113,-5.1056,-5.0998,-5.088,-5.0711,-5.0594,-5.0521,-5.0435,-5.0348,-5.0302,-5.0302,-5.0302,-5.0302,-5.0302,-5.0302,-5.0302,-5.0302,-5.0302,-5.0302,-5.0302,-5.0302,-5.0302,-5.0302,-5.0302,-5.0302,-5.0302,-5.0302,-5.029,-5.0267,-5.0243,-5.0207,-5.0145,-5.0082,-5.0005,-4.9912,-5.6957,-5.7562,-5.8207,-5.8478,-5.8421,-5.7758,-5.7504,-5.7406,-5.6899,-5.6623,-5.6604,-5.6604,-5.6604,-5.6604,-5.6604,-5.6604,-5.6604,-5.6604,-5.6604,-5.6604,-5.6604,-5.6604,-5.6604,-5.6604,-5.6604,-5.6604,-5.6604,-5.6604,-5.6604,-5.6604,-5.6604,-5.6604,-5.6604,-5.6604,-5.6372,-5.563,-5.4752,-5.3463,-5.2156,-5.1472,-5.1394,-5.1394,-5.1394,-5.1394,-5.1394,-5.1394,-5.1394,-5.1394,-5.1394,-5.1394,-5.1394,-5.1394,-5.1394,-5.1394,-5.1394,-5.1394,-5.1394,-5.1394,-5.1394,-5.1394,-5.1394,-5.1394,-5.1392,-5.1386,-5.1389,-5.1397,-5.1366,-5.1296,-5.1312,-5.13,-5.1295,-5.1258,-5.1258,-5.1234,-5.1244,-5.122,-5.1215,-5.1206,-5.1196,-5.1175,-5.1153,-5.1125,-5.1063,-5.0983,-5.0846,-5.0673,-5.0572,-5.0468,-5.039,-5.0302,-5.0302,-5.0302,-5.0302,-5.0302,-5.0302,-5.0302,-5.0302,-5.0302,-5.0302,-5.0302,-5.0302,-5.0302,-5.0302,-5.0302,-5.0302,-5.0302,-5.0302,-5.029,-5.029,-5.0267,-5.0243,-5.0188,-5.0126,-5.007,-4.9965,-5.6623,-5.6701,-5.6779,-5.686,-5.6879,-5.674,-5.6701,-5.6801,-5.6662,-5.6604,-5.6604,-5.6604,-5.6604,-5.6604,-5.6604,-5.6604,-5.6604,-5.6604,-5.6604,-5.6604,-5.6604,-5.6604,-5.6604,-5.6604,-5.6604,-5.6604,-5.6604,-5.6604,-5.6604,-5.6604,-5.6604,-5.6604,-5.6604,-5.6604,-5.6352,-5.5728,-5.4556,-5.3307,-5.2097,-5.1531,-5.1433,-5.1394,-5.1394,-5.1394,-5.1394,-5.1394,-5.1394,-5.1394,-5.1394,-5.1394,-5.1394,-5.1394,-5.1394,-5.1394,-5.1394,-5.1394,-5.1394,-5.1394,-5.1394,-5.1394,-5.1394,-5.1394,-5.1392,-5.1388,-5.1394,-5.1403,-5.1349,-5.1314,-5.1312,-5.13,-5.1296,-5.1296,-5.1284,-5.128,-5.1272,-5.1267,-5.1258,-5.123,-5.1215,-5.1206,-5.1185,-5.1159,-5.1126,-5.1048,-5.0913,-5.074,-5.0553,-5.0457,-5.0359,-5.0302,-5.0302,-5.0302,-5.0302,-5.0302,-5.0302,-5.0302,-5.0302,-5.0302,-5.0302,-5.0302,-5.0302,-5.0302,-5.0302,-5.0302,-5.0302,-5.0302,-5.0302,-5.029,-5.029,-5.0302,-5.0278,-5.0212,-5.0151,-5.0076,-4.9978,-5.6604,-5.6604,-5.6604,-5.6604,-5.6604,-5.6604,-5.6604,-5.6604,-5.6604,-5.6604,-5.6604,-5.6604,-5.6604,-5.6604,-5.6604,-5.6604,-5.6604,-5.6604,-5.6604,-5.6604,-5.6604,-5.6604,-5.6604,-5.6604,-5.6604,-5.6604,-5.6604,-5.6604,-5.6604,-5.6604,-5.6604,-5.6604,-5.6604,-5.6604,-5.6333,-5.5747,-5.4654,-5.3659,-5.2624,-5.1999,-5.1433,-5.1394,-5.1394,-5.1394,-5.1394,-5.1394,-5.1394,-5.1394,-5.1394,-5.1394,-5.1394,-5.1394,-5.1394,-5.1394,-5.1394,-5.1394,-5.1394,-5.1394,-5.1394,-5.1394,-5.1394,-5.1394,-5.1394,-5.139,-5.1401,-5.1391,-5.14,-5.1369,-5.133,-5.1319,-5.13,-5.1308,-5.1296,-5.1296,-5.1296,-5.1308,-5.128,-5.1267,-5.1267,-5.1258,-5.1235,-5.1205,-5.115,-5.1108,-5.0956,-5.0793,-5.0605,-5.0427,-5.0359,-5.0302,-5.0302,-5.0302,-5.0302,-5.0302,-5.0302,-5.0302,-5.0302,-5.0302,-5.0302,-5.0302,-5.0302,-5.0302,-5.0302,-5.0302,-5.0302,-5.0302,-5.0302,-5.0302,-5.0302,-5.0302,-5.0278,-5.0236,-5.0163,-5.0089,-4.9992,-5.6604,-5.6604,-5.6604,-5.6604,-5.6604,-5.6604,-5.6604,-5.6604,-5.6604,-5.6604,-5.6604,-5.6604,-5.6604,-5.6604,-5.6604,-5.6604,-5.6604,-5.6604,-5.6604,-5.6604,-5.6604,-5.6604,-5.6604,-5.6604,-5.6604,-5.6604,-5.6604,-5.6604,-5.6604,-5.6604,-5.6604,-5.6604,-5.6604,-5.6604,-5.6411,-5.5747,-5.4986,-5.4322,-5.3249,-5.2509,-5.1843,-5.1531,-5.1394,-5.1394,-5.1394,-5.1394,-5.1394,-5.1394,-5.1394,-5.1394,-5.1394,-5.1394,-5.1394,-5.1394,-5.1394,-5.1394,-5.1394,-5.1394,-5.1394,-5.1394,-5.1394,-5.1394,-5.1394,-5.139,-5.1406,-5.1401,-5.1391,-5.1383,-5.1349,-5.134,-5.132,-5.133,-5.1319,-5.1319,-5.1296,-5.1308,-5.13,-5.1288,-5.1292,-5.1288,-5.1263,-5.123,-5.1167,-5.1101,-5.0956,-5.0791,-5.0654,-5.0502,-5.0401,-5.0337,-5.0325,-5.0314,-5.0302,-5.0302,-5.0302,-5.0302,-5.0302,-5.0302,-5.0302,-5.0302,-5.0302,-5.0302,-5.0302,-5.0302,-5.0302,-5.0302,-5.0302,-5.0302,-5.0302,-5.0302,-5.0278,-5.0248,-5.017,-5.0095,-5.0012,-5.6604,-5.6604,-5.6604,-5.6604,-5.6604,-5.6604,-5.6604,-5.6604,-5.6604,-5.6604,-5.6604,-5.6604,-5.6604,-5.6604,-5.6604,-5.6604,-5.6604,-5.6604,-5.6604,-5.6604,-5.6604,-5.6604,-5.6604,-5.6604,-5.6604,-5.6604,-5.6604,-5.6604,-5.6604,-5.6604,-5.6604,-5.6604,-5.6604,-5.6604,-5.6528,-5.5767,-5.5339,-5.5027,-5.3561,-5.3016,-5.2411,-5.1882,-5.1648,-5.1394,-5.1394,-5.1394,-5.1394,-5.1394,-5.1394,-5.1394,-5.1394,-5.1394,-5.1394,-5.1394,-5.1394,-5.1394,-5.1394,-5.1414,-5.1453,-5.1433,-5.1531,-5.1609,-5.1707,-5.1646,-5.1507,-5.1445,-5.1399,-5.1396,-5.1386,-5.1375,-5.1394,-5.1391,-5.1362,-5.1531,-5.1567,-5.1716,-5.1783,-5.16,-5.1678,-5.1593,-5.1416,-5.1273,-5.1194,-5.1088,-5.0917,-5.0799,-5.0673,-5.0566,-5.0448,-5.0412,-5.0393,-5.0359,-5.0337,-5.0325,-5.0325,-5.0302,-5.0302,-5.0302,-5.0302,-5.0302,-5.0302,-5.0302,-5.0302,-5.0302,-5.0302,-5.0302,-5.0302,-5.0302,-5.0302,-5.0302,-5.0302,-5.0267,-5.017,-5.0082,-5.0031,-5.6604,-5.6604,-5.6604,-5.6604,-5.6604,-5.6604,-5.6604,-5.6604,-5.6604,-5.6604,-5.6604,-5.6604,-5.6604,-5.6604,-5.6604,-5.6604,-5.6604,-5.6604,-5.6604,-5.6604,-5.6604,-5.6604,-5.6604,-5.6604,-5.6604,-5.6604,-5.6604,-5.6604,-5.6604,-5.6604,-5.6604,-5.6604,-5.6604,-5.6604,-5.6567,-5.6177,-5.5962,-5.5359,-5.4598,-5.3953,-5.2841,-5.237,-5.196,-5.1453,-5.1394,-5.1394,-5.1394,-5.1394,-5.1394,-5.1394,-5.1394,-5.1394,-5.1394,-5.1394,-5.1394,-5.1394,-5.1414,-5.1707,-5.2058,-5.2292,-5.2292,-5.2292,-5.2273,-5.2273,-5.2253,-5.1666,-5.1507,-5.1386,-5.1399,-5.1391,-5.1391,-5.1419,-5.1528,-5.2171,-5.2419,-5.2744,-5.2811,-5.2437,-5.2255,-5.2041,-5.1845,-5.1415,-5.1184,-5.1125,-5.0983,-5.0898,-5.0789,-5.0683,-5.0563,-5.0551,-5.0521,-5.0457,-5.0404,-5.039,-5.0367,-5.0356,-5.0314,-5.0314,-5.0302,-5.0302,-5.0302,-5.0302,-5.0302,-5.0302,-5.0302,-5.0302,-5.0302,-5.0302,-5.0302,-5.0302,-5.0302,-5.0278,-5.0194,-5.012,-5.007,-5.6604,-5.6604,-5.6604,-5.6604,-5.6604,-5.6604,-5.6604,-5.6604,-5.6604,-5.6604,-5.6604,-5.6604,-5.6604,-5.6604,-5.6604,-5.6604,-5.6604,-5.6604,-5.6604,-5.6604,-5.6604,-5.6604,-5.6604,-5.6604,-5.6604,-5.6604,-5.6604,-5.6604,-5.6604,-5.6604,-5.6604,-5.6604,-5.6604,-5.6604,-5.6586,-5.6469,-5.6313,-5.5767,-5.5298,-5.4498,-5.3483,-5.278,-5.2214,-5.1648,-5.1394,-5.1394,-5.1394,-5.1394,-5.1394,-5.1394,-5.1394,-5.1394,-5.1394,-5.1394,-5.1394,-5.1394,-5.1453,-5.1863,-5.2411,-5.3073,-5.3229,-5.3659,-5.3366,-5.2995,-5.2763,-5.2195,-5.1746,-5.1548,-5.1464,-5.1425,-5.146,-5.1489,-5.211,-5.2774,-5.3178,-5.3501,-5.3569,-5.3192,-5.285,-5.2633,-5.2223,-5.175,-5.1219,-5.1136,-5.1056,-5.0983,-5.0921,-5.081,-5.0693,-5.0654,-5.0624,-5.0554,-5.0502,-5.0489,-5.0446,-5.0401,-5.0359,-5.0337,-5.0325,-5.0314,-5.0302,-5.0302,-5.0302,-5.0302,-5.0302,-5.0302,-5.0302,-5.0302,-5.0302,-5.0302,-5.0302,-5.0267,-5.0219,-5.0158,-5.0095,-5.6604,-5.6604,-5.6604,-5.6604,-5.6604,-5.6604,-5.6604,-5.6604,-5.6604,-5.6604,-5.6604,-5.6604,-5.6604,-5.6604,-5.6604,-5.6604,-5.6604,-5.6604,-5.6604,-5.6604,-5.6604,-5.6604,-5.6604,-5.6604,-5.6604,-5.6604,-5.6604,-5.6604,-5.6604,-5.6604,-5.6604,-5.6604,-5.6604,-5.6604,-5.6604,-5.6584,-5.6508,-5.6216,-5.5825,-5.4947,-5.3893,-5.321,-5.2409,-5.1765,-5.1394,-5.1394,-5.1394,-5.1394,-5.1394,-5.1394,-5.1394,-5.1394,-5.1394,-5.1394,-5.1394,-5.1394,-5.1394,-5.1902,-5.2626,-5.3346,-5.4205,-5.4596,-5.4498,-5.3737,-5.3153,-5.2802,-5.2214,-5.1882,-5.1724,-5.1627,-5.1568,-5.2188,-5.283,-5.3316,-5.376,-5.4006,-5.4167,-5.3923,-5.3563,-5.3194,-5.2727,-5.2172,-5.1424,-5.119,-5.1147,-5.1107,-5.1043,-5.0974,-5.0858,-5.0766,-5.073,-5.0654,-5.0625,-5.0613,-5.0572,-5.05,-5.0457,-5.0446,-5.0367,-5.0344,-5.0314,-5.0302,-5.0302,-5.0302,-5.0302,-5.0302,-5.0302,-5.0302,-5.0302,-5.0302,-5.0302,-5.029,-5.0243,-5.0182,-5.0108,-5.6604,-5.6604,-5.6604,-5.6604,-5.6604,-5.6604,-5.6604,-5.6604,-5.6604,-5.6604,-5.6604,-5.6604,-5.6604,-5.6604,-5.6604,-5.6604,-5.6604,-5.6604,-5.6604,-5.6604,-5.6604,-5.6604,-5.6604,-5.6604,-5.6604,-5.6604,-5.6604,-5.6604,-5.6604,-5.6604,-5.6604,-5.6604,-5.6604,-5.6604,-5.6604,-5.6604,-5.6604,-5.6545,-5.6255,-5.5298,-5.4361,-5.3659,-5.2663,-5.1824,-5.1394,-5.1394,-5.1394,-5.1394,-5.1394,-5.1394,-5.1394,-5.1394,-5.1394,-5.1394,-5.1394,-5.1394,-5.1472,-5.1785,-5.2665,-5.3522,-5.4381,-5.524,-5.5474,-5.5396,-5.4578,-5.3583,-5.2802,-5.2487,-5.2351,-5.2331,-5.2526,-5.3053,-5.3676,-5.4201,-5.4628,-5.4933,-5.5059,-5.4914,-5.4512,-5.3786,-5.3319,-5.2247,-5.1544,-5.1278,-5.122,-5.12,-5.1147,-5.1088,-5.1023,-5.0921,-5.0852,-5.0791,-5.0738,-5.073,-5.0673,-5.0595,-5.0573,-5.054,-5.0457,-5.039,-5.0367,-5.0337,-5.0314,-5.0302,-5.0302,-5.0302,-5.0302,-5.0302,-5.0302,-5.0302,-5.0302,-5.029,-5.0267,-5.0207,-5.0145,-5.6604,-5.6604,-5.6604,-5.6604,-5.6604,-5.6604,-5.6604,-5.6604,-5.6604,-5.6604,-5.6604,-5.6604,-5.6604,-5.6604,-5.6604,-5.6604,-5.6604,-5.6604,-5.6604,-5.6604,-5.6604,-5.6604,-5.6604,-5.6604,-5.6604,-5.6604,-5.6604,-5.6604,-5.6604,-5.6604,-5.6604,-5.6604,-5.6604,-5.6604,-5.6604,-5.6604,-5.6604,-5.6604,-5.6331,-5.5493,-5.4693,-5.3951,-5.2897,-5.1824,-5.1453,-5.1394,-5.1394,-5.1394,-5.1394,-5.1394,-5.1394,-5.1394,-5.1394,-5.1394,-5.1394,-5.1394,-5.1414,-5.1863,-5.2646,-5.3502,-5.4361,-5.522,-5.6059,-5.6157,-5.563,-5.4713,-5.3912,-5.3346,-5.3268,-5.3288,-5.358,-5.3951,-5.4576,-5.5181,-5.5589,-5.5999,-5.5992,-5.5926,-5.5301,-5.4511,-5.3518,-5.2372,-5.1732,-5.1471,-5.1287,-5.1264,-5.1201,-5.115,-5.1093,-5.1024,-5.0993,-5.096,-5.0893,-5.0844,-5.0764,-5.0701,-5.0664,-5.0624,-5.0542,-5.0489,-5.0435,-5.0379,-5.0356,-5.0314,-5.0302,-5.0302,-5.0302,-5.0302,-5.0302,-5.0302,-5.0302,-5.029,-5.0278,-5.0243,-5.0194,-5.6604,-5.6604,-5.6604,-5.6604,-5.6604,-5.6604,-5.6604,-5.6604,-5.6604,-5.6604,-5.6604,-5.6604,-5.6604,-5.6604,-5.6604,-5.6604,-5.6604,-5.6604,-5.6604,-5.6604,-5.6604,-5.6604,-5.6604,-5.6604,-5.6604,-5.6604,-5.6604,-5.6604,-5.6604,-5.6604,-5.6604,-5.6604,-5.6604,-5.6604,-5.6604,-5.6604,-5.6604,-5.6604,-5.6428,-5.5845,-5.4654,-5.3893,-5.3249,-5.1882,-5.1492,-5.1394,-5.1394,-5.1394,-5.1394,-5.1394,-5.1394,-5.1394,-5.1394,-5.1394,-5.1394,-5.1394,-5.1394,-5.1726,-5.2468,-5.3366,-5.4205,-5.5103,-5.602,-5.6372,-5.604,-5.5357,-5.4556,-5.4225,-5.4127,-5.4108,-5.4342,-5.4888,-5.5493,-5.5786,-5.6059,-5.6292,-5.6328,-5.6104,-5.5525,-5.4704,-5.3731,-5.2586,-5.1577,-5.13,-5.1308,-5.1291,-5.1258,-5.122,-5.119,-5.1136,-5.1114,-5.1082,-5.1027,-5.0956,-5.0925,-5.085,-5.0764,-5.0692,-5.0635,-5.0554,-5.0483,-5.0438,-5.0379,-5.0356,-5.0314,-5.0302,-5.0302,-5.0302,-5.0302,-5.0302,-5.0302,-5.0302,-5.0278,-5.0255,-5.02,-5.6604,-5.6604,-5.6604,-5.6604,-5.6604,-5.6604,-5.6604,-5.6604,-5.6604,-5.6604,-5.6604,-5.6604,-5.6604,-5.6604,-5.6604,-5.6604,-5.6604,-5.6604,-5.6604,-5.6604,-5.6604,-5.6604,-5.6604,-5.6604,-5.6604,-5.6604,-5.6604,-5.6604,-5.6604,-5.6604,-5.6604,-5.6604,-5.6604,-5.6604,-5.6604,-5.6604,-5.6604,-5.6604,-5.6506,-5.6118,-5.5181,-5.4225,-5.3405,-5.2429,-5.1941,-5.1453,-5.1394,-5.1394,-5.1394,-5.1394,-5.1394,-5.1394,-5.1394,-5.1394,-5.1394,-5.1394,-5.1394,-5.159,-5.2117,-5.3093,-5.4068,-5.4752,-5.5552,-5.6255,-5.6313,-5.5689,-5.5261,-5.5083,-5.5005,-5.5005,-5.5162,-5.5767,-5.6235,-5.6333,-5.6411,-5.6508,-5.6604,-5.6165,-5.5667,-5.4817,-5.3888,-5.288,-5.1794,-5.1319,-5.1308,-5.13,-5.1292,-5.128,-5.1267,-5.1235,-5.1185,-5.1161,-5.1121,-5.1063,-5.1035,-5.0986,-5.089,-5.0825,-5.0784,-5.0682,-5.0557,-5.0502,-5.0435,-5.039,-5.0337,-5.0325,-5.0314,-5.0302,-5.0302,-5.0302,-5.0302,-5.0302,-5.0302,-5.0278,-5.0236,-5.6604,-5.6604,-5.6604,-5.6604,-5.6604,-5.6604,-5.6604,-5.6604,-5.6604,-5.6604,-5.6604,-5.6604,-5.6604,-5.6604,-5.6604,-5.6604,-5.6604,-5.6604,-5.6604,-5.6604,-5.6604,-5.6604,-5.6604,-5.6604,-5.6604,-5.6604,-5.6604,-5.6604,-5.6604,-5.6604,-5.6604,-5.6604,-5.6604,-5.6604,-5.6604,-5.6604,-5.6604,-5.6604,-5.6604,-5.6313,-5.565,-5.4693,-5.362,-5.2741,-5.198,-5.1511,-5.1394,-5.1394,-5.1394,-5.1394,-5.1394,-5.1394,-5.1394,-5.1394,-5.1394,-5.1394,-5.1394,-5.1394,-5.1902,-5.28,-5.3912,-5.4517,-5.5611,-5.6508,-5.6586,-5.6059,-5.602,-5.5884,-5.5884,-5.5884,-5.5903,-5.6352,-5.643,-5.6508,-5.6528,-5.6584,-5.6602,-5.6399,-5.5806,-5.5059,-5.417,-5.3303,-5.2298,-5.1496,-5.147,-5.1349,-5.1342,-5.1312,-5.13,-5.13,-5.1263,-5.1235,-5.1178,-5.1113,-5.1082,-5.1043,-5.0988,-5.0937,-5.0901,-5.0782,-5.0654,-5.0565,-5.0478,-5.0457,-5.0404,-5.0379,-5.0356,-5.0325,-5.0302,-5.0302,-5.0302,-5.0302,-5.0302,-5.0302,-5.0259,-5.6604,-5.6604,-5.6604,-5.6604,-5.6604,-5.6604,-5.6604,-5.6604,-5.6604,-5.6604,-5.6604,-5.6604,-5.6604,-5.6604,-5.6604,-5.6604,-5.6604,-5.6604,-5.6604,-5.6604,-5.6604,-5.6604,-5.6604,-5.6604,-5.6604,-5.6604,-5.6604,-5.6604,-5.6604,-5.6604,-5.6604,-5.6604,-5.6604,-5.6604,-5.6604,-5.6604,-5.6604,-5.6604,-5.6604,-5.6604,-5.5882,-5.4964,-5.3854,-5.2839,-5.198,-5.1472,-5.1394,-5.1394,-5.1394,-5.1394,-5.1394,-5.1394,-5.1394,-5.1394,-5.1394,-5.1394,-5.1394,-5.1394,-5.1765,-5.2995,-5.3678,-5.442,-5.5786,-5.6508,-5.6567,-5.6567,-5.6547,-5.6528,-5.6528,-5.6547,-5.6547,-5.6567,-5.6586,-5.6604,-5.6604,-5.6604,-5.658,-5.6538,-5.5948,-5.5282,-5.4555,-5.3724,-5.2785,-5.1963,-5.1628,-5.1511,-5.1366,-5.1336,-5.1307,-5.1304,-5.1284,-5.1263,-5.1225,-5.1169,-5.1122,-5.1094,-5.1069,-5.1016,-5.0959,-5.0858,-5.0764,-5.0683,-5.0605,-5.0544,-5.0502,-5.0457,-5.0401,-5.0348,-5.0325,-5.0302,-5.0302,-5.0302,-5.0302,-5.0302,-5.0302,-5.6604,-5.6604,-5.6604,-5.6606,-5.6606,-5.6606,-5.6604,-5.6604,-5.6606,-5.6604,-5.6606,-5.6606,-5.6604,-5.6604,-5.6604,-5.6604,-5.6604,-5.6604,-5.6604,-5.6604,-5.6604,-5.6604,-5.6604,-5.6604,-5.6604,-5.6604,-5.6604,-5.6604,-5.6604,-5.6604,-5.6604,-5.6604,-5.6604,-5.6604,-5.6604,-5.6604,-5.6604,-5.6604,-5.6604,-5.6604,-5.6135,-5.522,-5.4205,-5.321,-5.2253,-5.1687,-5.1394,-5.1394,-5.1394,-5.1394,-5.1394,-5.1394,-5.1394,-5.1394,-5.1394,-5.1394,-5.1394,-5.1394,-5.1921,-5.3132,-5.3795,-5.4166,-5.5454,-5.6567,-5.6606,-5.6606,-5.6586,-5.6586,-5.6586,-5.6586,-5.6586,-5.6586,-5.6604,-5.6604,-5.6604,-5.6604,-5.6602,-5.6504,-5.6192,-5.5665,-5.5116,-5.4094,-5.2974,-5.2367,-5.1993,-5.1773,-5.1369,-5.132,-5.1314,-5.1319,-5.13,-5.128,-5.1254,-5.122,-5.119,-5.1175,-5.1146,-5.1102,-5.1049,-5.0959,-5.0874,-5.0819,-5.0748,-5.0673,-5.0595,-5.0542,-5.0459,-5.0404,-5.0348,-5.0337,-5.0302,-5.0302,-5.0302,-5.0302,-5.0302]},{"header":{"parameterUnit":"m.s-1","parameterCategory":1,"la1":31.0,"la2":29.5877,"lo1":-88.7671,"lo2":-86.6584,"dy":0.0162,"dx":0.0185,"nx":115,"ny":88,"refTime":"2023-05-01T12:00:00:Z","depth":0,"parameterNumber":3,"parameterNumberName":"V-component_of_WINDS"},"data":[0.0,0.0,0.0,0.0,0.0,0.0,0.0,0.0,0.0,0.0,0.0,0.0,0.0,0.0,0.0,0.0,0.0,0.0,0.0,0.0,0.0,0.0,0.0,0.0,0.0,0.0,0.0,0.0,0.0,0.0,0.0,0.0,0.0,0.0,0.0,0.0,0.0,0.0,0.0,0.0,0.0,0.0,0.0,0.0,0.0,0.0,0.0,0.0,0.0,0.0,0.0,0.0,0.0,0.0,0.0,0.0,0.0,0.0,0.0,0.0,0.0,0.0,0.0,0.0,0.0,0.0,0.0,0.0,0.0,0.0,0.0,0.0,0.0,0.0,0.0,0.0,0.0,0.0,0.0,0.0,0.0,0.0,0.0,0.0,0.0,0.0,0.0,0.0,0.0,0.0,0.0,0.0,0.0,0.0,0.0,0.0,0.0,0.0,0.0,0.0,0.0,0.0,0.0,0.0,0.0,0.0,0.0,0.0,0.0,0.0,0.0,0.0,0.0,0.0,0.0,0.0,0.0,0.0,0.0,0.0,0.0,0.0,0.0,0.0,0.0,0.0,0.0,0.0,0.0,0.0,0.0,0.0,0.0,0.0,0.0,0.0,0.0,0.0,0.0,0.0,0.0,0.0,0.0,0.0,0.0,0.0,0.0,0.0,0.0,0.0,0.0,0.0,0.0,0.0,0.0,0.0,0.0,0.0,0.0,0.0,0.0,0.0,0.0,0.0,0.0,0.0,0.0,0.0,0.0,0.0,0.0,0.0,0.0,0.0,0.0,0.0,0.0,0.0,0.0,0.0,0.0,0.0,0.0,0.0,0.0,0.0,0.0,0.0,0.0,0.0,0.0,0.0,0.0,0.0,0.0,0.0,0.0,0.0,0.0,0.0,0.0,0.0,0.0,0.0,0.0,0.0,0.0,0.0,0.0,0.0,0.0,0.0,0.0,0.0,0.0,0.0,0.0,0.0,0.0,0.0,0.0,0.0,0.0,0.0,0.0,0.0,0.0,0.0,0.0,0.0,0.0,0.0,0.0,0.0,0.0,0.0,0.0,0.0,0.0,0.0,0.0,0.0,0.0,0.0,0.0,0.0,0.0,0.0,0.0,0.0,0.0,0.0,0.0,0.0,0.0,0.0,0.0,0.0,0.0,0.0,0.0,0.0,0.0,0.0,0.0,0.0,0.0,0.0,0.0,0.0,0.0,0.0,0.0,0.0,0.0,0.0,0.0,0.0,0.0,0.0,0.0,0.0,0.0,0.0,0.0,0.0,0.0,0.0,0.0,0.0,0.0,0.0,0.0,0.0,0.0,0.0,0.0,0.0,0.0,0.0,0.0,0.0,0.0,0.0,0.0,0.0,0.0,0.0,0.0,0.0,0.0,0.0,0.0,0.0,0.0,0.0,0.0,0.0,0.0,0.0,0.0,0.0,0.0,0.0,0.0,0.0,0.0,0.0,0.0,0.0,0.0,0.0,0.0,0.0,0.0,0.0,0.0,0.0,0.0,0.0,0.0,0.0,0.0,0.0,0.0,0.0,0.0,0.0,0.0,0.0,0.0,0.0,0.0,0.0,0.0,0.0,0.0,0.0,0.0,0.0,0.0,0.0,0.0,0.0,0.0,0.0,0.0,0.0,0.0,0.0,0.0,0.0,0.0,0.0,0.0,0.0,0.0,0.0,0.0,0.0,0.0,0.0,0.0,0.0,0.0,0.0,0.0,0.0,0.0,0.0,0.0,0.0,0.0,0.0,0.0,0.0,0.0,0.0,0.0,0.0,0.0,0.0,0.0,0.0,0.0,0.0,0.0,0.0,0.0,0.0,0.0,0.0,0.0,0.0,0.0,0.0,0.0,0.0,0.0,0.0,0.0,0.0,0.0,0.0,0.0,0.0,0.0,0.0,0.0,0.0,0.0,0.0,0.0,0.0,0.0,0.0,0.0,0.0,0.0,0.0,0.0,0.0,0.0,0.0,0.0,0.0,0.0,0.0,0.0,0.0,0.0,0.0,0.0,0.0,0.0,0.0,0.0,0.0,0.0,0.0,0.0,0.0,0.0,0.0,0.0,0.0,0.0,0.0,0.0,0.0,0.0,0.0,0.0,0.0,0.0,0.0,0.0,0.0,0.0,0.0,0.0,0.0,0.0,0.0,0.0,0.0,0.0,0.0,0.0,0.0,0.0,0.0,0.0,0.0,0.0,0.0,0.0,0.0,0.0,0.0,0.0,0.0,0.0,0.0,0.0,0.0,0.0,0.0,0.0,0.0,0.0,0.0,0.0,0.0,0.0,0.0,0.0,0.0,0.0,0.0,0.0,0.0,0.0,0.0,0.0,0.0,0.0,0.0,0.0,0.0,0.0,0.0,0.0,0.0,0.0,0.0,0.0,0.0,0.0,0.0,0.0,0.0,0.0,0.0,0.0,0.0,0.0,0.0,0.0,0.0,0.0,0.0,0.0,0.0,0.0,0.0,0.0,0.0,0.0,0.0,0.0,0.0,0.0,0.0,0.0,0.0,0.0,0.0,0.0,0.0,0.0,0.0,0.0,0.0,0.0,0.0,0.0,0.0,0.0,0.0,0.0,0.0,0.0,0.0,0.0,0.0,0.0,0.0,0.0,0.0,0.0,0.0,0.0,0.0,0.0,0.0,0.0,0.0,0.0,0.0,0.0,0.0,0.0,0.0,0.0,0.0,0.0,0.0,0.0,0.0,0.0,0.0,0.0,0.0,0.0,0.0,0.0,0.0,0.0,0.0,0.0,0.0,0.0,0.0,0.0,0.0,0.0,0.0,0.0,0.0,0.0,0.0,0.0,0.0,0.0,0.0,0.0,0.0,0.0,0.0,0.0,0.0,0.0,0.0,0.0,0.0,0.0,0.0,0.0,0.0,0.0,0.0,0.0,0.0,0.0,0.0,0.0,0.0,0.0,0.0,0.0,0.0,0.0,0.0,0.0,0.0,0.0,0.0,0.0,0.0,0.0,0.0,0.0,0.0,0.0,0.0,0.0,0.0,0.0,0.0,0.0,0.0,0.0,0.0,0.0,0.0,0.0,0.0,0.0,0.0,0.0,0.0,0.0,0.0,0.0,0.0,0.0,0.0,0.0,0.0,0.0,0.0,0.0,0.0,0.0,0.0,0.0,0.0,0.0,0.0,0.0,0.0,0.0,0.0,0.0,0.0,0.0,0.0,0.0,0.0,0.0,0.0,0.0,0.0,0.0,0.0,0.0,0.0,0.0,0.0,0.0,0.0,0.0,0.0,0.0,0.0,0.0,0.0,0.0,0.0,0.0,0.0,0.0,0.0,0.0,0.0,0.0,0.0,0.0,0.0,0.0,0.0,0.0,0.0,0.0,0.0,0.0,0.0,0.0,0.0,0.0,0.0,0.0,0.0,0.0,0.0,0.0,0.0,0.0,0.0,0.0,0.0,0.0,0.0,0.0,0.0,0.0,0.0,0.0,0.0,0.0,0.0,0.0,0.0,0.0,0.0,0.0,0.0,0.0,0.0,0.0,0.0,0.0,0.0,0.0,0.0,0.0,0.0,0.0,0.0,0.0,0.0,0.0,0.0,0.0,0.0,0.0,0.0,0.0,0.0,0.0,0.0,0.0,0.0,0.0,0.0,0.0,0.0,0.0,0.0,0.0,0.0,0.0,0.0,0.0,0.0,0.0,0.0,0.0,0.0,0.0,0.0,0.0,0.0,0.0,0.0,0.0,0.0,0.0,0.0,0.0,0.0,0.0,0.0,0.0,0.0,0.0,0.0,0.0,0.0,0.0,0.0,0.0,0.0,0.0,0.0,0.0,0.0,0.0,0.0,0.0,0.0,0.0,0.0,0.0,0.0,0.0,0.0,0.0,0.0,0.0,0.0,0.0,0.0,0.0,0.0,0.0,0.0,0.0,0.0,0.0,0.0,0.0,0.0,0.0,0.0,0.0,0.0,0.0,0.0,0.0,0.0,0.0,0.0,0.0,0.0,0.0,0.0,0.0,0.0,0.0,0.0,0.0,0.0,0.0,0.0,0.0,0.0,0.0,0.0,0.0,0.0,0.0,0.0,0.0,0.0,0.0,0.0,0.0,0.0,0.0,0.0,0.0,0.0,0.0,0.0,0.0,0.0,0.0,0.0,0.0,0.0,0.0,0.0,0.0,0.0,0.0,0.0,0.0,0.0,0.0,0.0,0.0,0.0,0.0,0.0,0.0,0.0,0.0,0.0,0.0,0.0,0.0,0.0,0.0,0.0,0.0,0.0,0.0,0.0,0.0,0.0,0.0,0.0,0.0,0.0,-0.139,0.0,0.0,0.0,0.0,0.0,0.0,0.0,0.0,0.0,0.0,0.0,0.0,0.0,0.0,0.0,0.0,0.0,0.0,0.0,0.0,0.0,0.0,0.0,0.0,0.0,0.0,0.0,0.0,0.0,0.0,0.0,0.0,0.0,0.0,0.0,0.0,0.0,0.0,0.0,0.0,0.0,0.0,0.0,0.0,0.0,0.0,0.0,0.0,0.0,0.0,0.0,0.0,0.0,0.0,0.0,0.0,0.0,0.0,0.0,0.0,0.0,0.0,0.0,0.0,0.0,0.0,0.0,0.0,0.0,0.0,0.0,0.0,0.0,0.0,0.0,0.0,0.0,0.0,0.0,0.0,0.0,0.0,0.0,0.0,0.0,0.0,0.0,0.0,0.0,0.0,0.0,0.0,0.0,0.0,0.0,0.0,0.0,0.0,0.0,0.0,0.0,0.0,0.0,0.0,0.0,0.0,0.0,0.0,0.0,0.0,-0.1391,-0.1391,-0.1391,-0.1391,-0.1389,0.0,0.0,0.0,0.0,0.0,0.0,0.0,0.0,0.0,0.0,0.0,0.0,0.0,0.0,0.0,0.0,0.0,0.0,0.0,0.0,0.0,0.0,0.0,0.0,0.0,0.0,0.0,0.0,0.0,0.0,0.0,0.0,0.0,0.0,0.0,0.0,0.0,0.0,0.0,0.0,0.0,0.0,0.0,0.0,0.0,0.0,0.0,0.0,0.0,0.0,0.0,0.0,0.0,0.0,0.0,0.0,0.0,0.0,0.0,0.0,0.0,0.0,0.0,0.0,0.0,0.0,0.0,0.0,0.0,0.0,0.0,0.0,0.0,0.0,0.0,0.0,0.0,0.0,0.0,0.0,0.0,0.0,0.0,0.0,0.0,0.0,0.0,0.0,0.0,0.0,0.0,0.0,0.0,0.0,0.0,0.0,0.0,0.0,0.0,0.0,0.0,0.0,0.0,0.0,0.0,0.0,0.0,0.0,0.0,0.0,0.0,0.0,-0.1391,-0.1384,-0.1371,0.0,0.0,0.0,0.0,0.0,0.0,0.0,0.0,0.0,0.0,0.0,0.0,0.0,0.0,0.0,0.0,0.0,0.0,0.0,0.0,0.0,0.0,0.0,0.0,0.0,0.0,0.0,0.0,0.0,0.0,0.0,0.0,0.0,0.0,0.0,0.0,0.0,0.0,0.0,0.0,0.0,0.0,0.0,0.0,0.0,0.0,0.0,0.0,0.0,0.0,0.0,0.0,0.0,0.0,0.0,0.0,0.0,0.0,0.0,0.0,0.0,0.0,0.0,0.0,0.0,0.0,0.0,0.0,0.0,0.0,0.0,0.0,0.0,0.0,0.0,0.0,0.0,0.0,0.0,0.0,0.0,0.0,0.0,0.0,0.0,0.0,0.0,0.0,0.0,0.0,0.0,0.0,0.0,0.0,0.0,0.0,0.0,0.0,0.0,0.0,0.0,0.0,0.0,0.0,0.0,0.0,0.0,0.0,0.0,0.0,-0.1391,-0.1391,-0.1391,0.0,-0.1318,0.0,0.0,0.0,0.0,0.0,0.0,0.0,0.0,0.0,0.0,0.0,0.0,0.0,0.0,0.0,0.0,0.0,0.0,0.0,0.0,0.0,0.0,0.0,0.0,0.0,0.0,0.0,0.0,0.0,0.0,0.0,0.0,0.0,0.0,0.0,0.0,0.0,0.0,0.0,0.0,0.0,0.0,0.0,0.0,0.0,0.0,0.0,0.0,0.0,0.0,0.0,0.0,0.0,0.0,0.0,0.0,0.0,0.0,0.0,0.0,0.0,0.0,0.0,0.0,0.0,0.0,0.0,0.0,0.0,0.0,0.0,0.0,0.0,0.0,0.0,0.0,0.0,0.0,0.0,0.0,0.0,0.0,0.0,0.0,0.0,0.0,0.0,0.0,0.0,0.0,0.0,0.0,0.0,0.0,0.0,0.0,0.0,0.0,0.0,0.0,0.0,0.0,0.0,0.0,0.0,0.0,0.0,0.0,0.0,0.0,-0.1391,-0.1391,-0.1391,-0.1364,0.0,0.0,0.0,0.0,0.0,0.0,0.0,0.0,0.0,0.0,0.0,0.0,0.0,0.0,0.0,0.0,0.0,0.0,0.0,0.0,0.0,0.0,0.0,0.0,0.0,0.0,0.0,0.0,0.0,0.0,0.0,0.0,0.0,0.0,0.0,0.0,0.0,0.0,0.0,0.0,0.0,0.0,0.0,0.0,0.0,0.0,0.0,0.0,0.0,0.0,0.0,0.0,0.0,0.0,0.0,0.0,0.0,0.0,0.0,0.0,0.0,0.0,0.0,0.0,0.0,0.0,0.0,0.0,0.0,0.0,0.0,0.0,0.0,0.0,0.0,0.0,0.0,0.0,0.0,0.0,0.0,0.0,0.0,0.0,0.0,0.0,0.0,0.0,0.0,0.0,0.0,0.0,0.0,0.0,0.0,0.0,0.0,0.0,0.0,0.0,0.0,0.0,0.0,0.0,0.0,0.0,0.0,0.0,0.0,0.0,-0.1391,-0.1391,-0.1391,-0.1391,-0.1364,-0.1308,0.0,0.0,0.0,0.0,0.0,0.0,0.0,0.0,0.0,0.0,0.0,0.0,0.0,0.0,0.0,0.0,0.0,0.0,0.0,0.0,0.0,0.0,0.0,0.0,0.0,0.0,0.0,0.0,0.0,0.0,0.0,0.0,0.0,0.0,0.0,0.0,0.0,0.0,0.0,0.0,0.0,0.0,0.0,0.0,0.0,0.0,0.0,0.0,0.0,0.0,0.0,0.0,0.0,0.0,0.0,0.0,0.0,0.0,0.0,0.0,0.0,0.0,0.0,0.0,0.0,0.0,0.0,0.0,0.0,0.0,0.0,0.0,0.0,0.0,0.0,0.0,0.0,0.0,0.0,0.0,0.0,0.0,0.0,0.0,0.0,0.0,0.0,0.0,0.0,0.0,0.0,0.0,0.0,0.0,0.0,0.0,0.0,0.0,0.0,0.0,0.0,0.0,0.0,0.0,0.0,0.0,0.0,0.0,-0.1391,-0.1391,-0.1391,-0.1391,-0.1391,-0.1364,0.0,0.0,0.0,0.0,0.0,0.0,0.0,0.0,0.0,0.0,0.0,0.0,0.0,0.0,0.0,0.0,0.0,0.0,0.0,0.0,0.0,0.0,0.0,0.0,0.0,0.0,0.0,0.0,0.0,0.0,0.0,0.0,0.0,0.0,0.0,0.0,0.0,0.0,0.0,0.0,0.0,0.0,0.0,0.0,0.0,0.0,0.0,0.0,0.0,0.0,0.0,0.0,0.0,0.0,0.0,0.0,0.0,0.0,0.0,0.0,0.0,0.0,0.0,0.0,0.0,0.0,0.0,0.0,0.0,0.0,0.0,0.0,0.0,0.0,0.0,0.0,0.0,0.0,0.0,0.0,0.0,0.0,0.0,0.0,0.0,0.0,0.0,0.0,0.0,0.0,0.0,0.0,0.0,0.0,0.0,0.0,0.0,0.0,0.0,0.0,0.0,0.0,0.0,0.0,0.0,0.0,0.0,0.0,0.0,-0.1391,-0.1391,-0.1391,-0.1391,-0.1391,-0.1364,0.0,0.0,0.0,0.0,0.0,0.0,0.0,0.0,0.0,0.0,0.0,0.0,0.0,0.0,0.0,0.0,0.0,0.0,0.0,0.0,0.0,0.0,0.0,0.0,0.0,0.0,0.0,0.0,0.0,0.0,0.0,0.0,0.0,0.0,0.0,0.0,0.0,0.0,0.0,0.0,0.0,0.0,0.0,0.0,0.0,0.0,0.0,0.0,0.0,0.0,0.0,0.0,0.0,0.0,0.0,0.0,0.0,0.0,0.0,0.0,0.0,0.0,0.0,0.0,0.0,0.0,0.0,0.0,0.0,0.0,0.0,0.0,0.0,0.0,0.0,0.0,0.0,0.0,0.0,0.0,0.0,0.0,0.0,0.0,0.0,0.0,0.0,0.0,0.0,0.0,0.0,0.0,0.0,0.0,0.0,0.0,0.0,0.0,0.0,0.0,0.0,0.0,0.0,0.0,0.0,0.0,0.0,0.0,0.0,-0.1391,0.0,-0.1391,-0.1391,-0.1391,-0.1368,0.0,0.0,0.0,0.0,0.0,0.0,0.0,0.0,0.0,0.0,0.0,0.0,0.0,0.0,0.0,0.0,0.0,0.0,0.0,0.0,0.0,0.0,0.0,0.0,0.0,0.0,0.0,0.0,0.0,0.0,0.0,0.0,0.0,0.0,0.0,0.0,0.0,0.0,0.0,0.0,0.0,0.0,0.0,0.0,0.0,0.0,0.0,0.0,0.0,0.0,0.0,0.0,0.0,0.0,0.0,0.0,0.0,0.0,0.0,0.0,0.0,0.0,0.0,0.0,0.0,0.0,0.0,0.0,0.0,0.0,0.0,0.0,0.0,0.0,0.0,0.0,0.0,0.0,0.0,0.0,0.0,0.0,0.0,0.0,0.0,0.0,0.0,0.0,0.0,0.0,0.0,0.0,0.0,0.0,0.0,0.0,0.0,0.0,0.0,0.0,0.0,0.0,0.0,0.0,0.0,0.0,0.0,0.0,-0.1391,-0.1391,-0.1391,-0.1391,-0.1391,-0.1391,-0.1421,0.0,0.0,0.0,0.0,0.0,0.0,0.0,0.0,0.0,0.0,0.0,0.0,0.0,0.0,0.0,0.0,0.0,0.0,0.0,0.0,0.0,0.0,0.0,0.0,0.0,0.0,0.0,0.0,0.0,0.0,0.0,0.0,0.0,0.0,0.0,0.0,0.0,0.0,0.0,0.0,0.0,0.0,0.0,0.0,0.0,0.0,0.0,0.0,0.0,0.0,0.0,0.0,0.0,0.0,0.0,0.0,0.0,0.0,0.0,0.0,0.0,0.0,0.0,0.0,0.0,0.0,0.0,0.0,0.0,0.0,0.0,0.0,0.0,0.0,0.0,0.0,0.0,0.0,0.0,0.0,0.0,0.0,0.0,0.0,0.0,0.0,0.0,0.0,0.0,0.0,0.0,0.0,0.0,0.0,0.0,0.0,0.0,0.0,0.0,0.0,0.0,0.0,0.0,0.0,0.0,0.0,0.0,0.0,0.0,-0.1391,-0.1391,-0.1391,-0.1391,-0.1391,-0.1421,0.0,0.0,0.0,0.0,0.0,0.0,0.0,0.0,0.0,0.0,0.0,0.0,0.0,0.0,0.0,0.0,0.0,0.0,0.0,0.0,0.0,0.0,0.0,0.0,0.0,0.0,0.0,0.0,0.0,0.0,0.0,0.0,0.0,0.0,0.0,0.0,0.0,0.0,0.0,0.0,0.0,0.0,0.0,0.0,0.0,0.0,0.0,0.0,0.0,0.0,0.0,0.0,0.0,0.0,0.0,0.0,0.0,0.0,0.0,0.0,0.0,0.0,0.0,0.0,0.0,0.0,0.0,0.0,0.0,0.0,0.0,0.0,0.0,0.0,0.0,0.0,0.0,0.0,0.0,0.0,0.0,0.0,0.0,0.0,0.0,0.0,0.0,0.0,0.0,0.0,0.0,0.0,0.0,0.0,0.0,0.0,0.0,0.0,0.0,0.0,0.0,0.0,0.0,0.0,0.0,0.0,0.0,0.0,0.0,-0.1451,-0.1396,-0.1395,-0.1453,-0.1397,-0.1426,-0.1406,0.0,0.0,0.0,0.0,0.0,0.0,0.0,0.0,0.0,0.0,0.0,0.0,0.0,0.0,0.0,0.0,0.0,0.0,0.0,0.0,0.0,0.0,0.0,0.0,0.0,0.0,0.0,0.0,0.0,0.0,0.0,0.0,0.0,0.0,0.0,0.0,0.0,0.0,0.0,0.0,0.0,0.0,0.0,0.0,0.0,0.0,0.0,0.0,0.0,0.0,0.0,0.0,0.0,0.0,0.0,0.0,0.0,0.0,0.0,0.0,0.0,0.0,0.0,0.0,0.0,0.0,0.0,0.0,0.0,0.0,0.0,0.0,0.0,0.0,0.0,0.0,0.0,0.0,0.0,0.0,0.0,0.0,0.0,0.0,0.0,0.0,0.0,0.0,0.0,0.0,0.0,0.0,0.0,0.0,0.0,0.0,0.0,0.0,0.0,0.0,0.0,0.0,0.0,0.0,0.0,0.0,0.0,0.0,-0.1483,-0.1453,-0.1451,-0.1479,-0.1453,-0.1393,0.0,0.0,0.0,0.0,0.0,0.0,0.0,0.0,0.0,0.0,0.0,0.0,0.0,0.0,0.0,0.0,0.0,0.0,0.0,0.0,0.0,0.0,0.0,0.0,0.0,0.0,0.0,0.0,0.0,0.0,0.0,0.0,0.0,0.0,0.0,0.0,0.0,0.0,0.0,0.0,0.0,0.0,0.0,0.0,0.0,0.0,0.0,0.0,0.0,0.0,0.0,0.0,0.0,0.0,0.0,0.0,0.0,0.0,0.0,0.0,0.0,0.0,0.0,0.0,0.0,0.0,0.0,0.0,0.0,0.0,0.0,0.0,0.0,0.0,0.0,0.0,0.0,0.0,0.0,0.0,0.0,0.0,0.0,0.0,0.0,0.0,0.0,0.0,0.0,0.0,0.0,0.0,0.0,0.0,0.0,0.0,0.0,0.0,0.0,0.0,0.0,0.0,0.0,0.0,0.0,0.0,0.0,0.0,0.0,-0.151,-0.1485,-0.1472,-0.148,-0.1473,-0.1458,0.0,0.0,0.0,0.0,0.0,0.0,0.0,0.0,0.0,0.0,0.0,0.0,0.0,0.0,0.0,0.0,0.0,0.0,0.0,0.0,0.0,0.0,0.0,0.0,0.0,0.0,0.0,0.0,0.0,0.0,0.0,0.0,0.0,0.0,0.0,0.0,0.0,0.0,0.0,0.0,0.0,0.0,0.0,0.0,0.0,0.0,0.0,0.0,0.0,0.0,0.0,0.0,0.0,0.0,0.0,0.0,0.0,0.0,0.0,0.0,0.0,0.0,0.0,0.0,0.0,0.0,0.0,0.0,0.0,0.0,0.0,0.0,0.0,0.0,0.0,0.0,0.0,0.0,0.0,0.0,0.0,0.0,0.0,0.0,0.0,0.0,0.0,0.0,0.0,0.0,0.0,0.0,0.0,0.0,0.0,0.0,0.0,0.0,0.0,0.0,0.0,0.0,0.0,0.0,0.0,0.0,0.0,0.0,-0.1419,-0.1477,-0.1509,-0.15,-0.15,-0.1488,-0.1466,0.0,0.0,0.0,0.0,0.0,0.0,0.0,0.0,0.0,0.0,0.0,0.0,0.0,0.0,0.0,0.0,0.0,0.0,0.0,0.0,0.0,0.0,0.0,0.0,0.0,0.0,0.0,0.0,0.0,0.0,0.0,0.0,0.0,0.0,0.0,0.0,0.0,0.0,0.0,0.0,0.0,0.0,0.0,0.0,0.0,0.0,0.0,0.0,0.0,0.0,0.0,0.0,0.0,0.0,0.0,0.0,0.0,0.0,0.0,0.0,0.0,0.0,0.0,0.0,0.0,0.0,0.0,0.0,0.0,0.0,0.0,0.0,0.0,0.0,0.0,0.0,0.0,0.0,0.0,0.0,0.0,0.0,0.0,0.0,0.0,0.0,0.0,0.0,0.0,0.0,0.0,0.0,0.0,0.0,0.0,0.0,0.0,0.0,0.0,0.0,0.0,0.0,0.0,0.0,0.0,0.0,0.0,0.0,-0.1511,-0.1572,-0.1574,-0.1574,-0.1525,-0.15,-0.147,0.0,0.0,0.0,0.0,0.0,0.0,0.0,0.0,0.0,0.0,0.0,0.0,0.0,0.0,0.0,0.0,0.0,0.0,0.0,0.0,0.0,0.0,0.0,0.0,0.0,0.0,0.0,0.0,0.0,0.0,0.0,0.0,0.0,0.0,0.0,0.0,0.0,0.0,0.0,0.0,0.0,0.0,0.0,0.0,0.0,0.0,0.0,0.0,0.0,0.0,0.0,0.0,0.0,0.0,0.0,0.0,0.0,0.0,0.0,0.0,0.0,0.0,0.0,0.0,0.0,0.0,0.0,0.0,0.0,0.0,0.0,0.0,0.0,0.0,0.0,0.0,0.0,0.0,0.0,0.0,0.0,0.0,0.0,0.0,0.0,0.0,0.0,0.0,0.0,0.0,0.0,0.0,0.0,0.0,0.0,0.0,0.0,0.0,0.0,0.0,0.0,0.0,0.0,0.0,0.0,0.0,0.0,0.0,-0.2061,-0.2096,-0.1908,-0.1813,-0.1813,-0.1615,-0.1444,0.0,0.0,0.0,0.0,0.0,0.0,0.0,0.0,0.0,0.0,0.0,0.0,0.0,0.0,0.0,0.0,0.0,0.0,0.0,0.0,0.0,0.0,0.0,0.0,0.0,0.0,0.0,0.0,0.0,0.0,0.0,0.0,0.0,0.0,0.0,0.0,0.0,0.0,0.0,0.0,0.0,0.0,0.0,0.0,0.0,0.0,0.0,0.0,-0.642,0.0,0.0,0.0,0.0,0.0,0.0,0.0,0.0,0.0,0.0,0.0,0.0,0.0,0.0,0.0,0.0,0.0,0.0,0.0,0.0,0.0,0.0,0.0,0.0,0.0,0.0,0.0,0.0,0.0,0.0,0.0,0.0,0.0,0.0,0.0,0.0,0.0,0.0,0.0,0.0,0.0,0.0,0.0,0.0,0.0,0.0,0.0,0.0,0.0,0.0,0.0,0.0,0.0,0.0,0.0,0.0,0.0,0.0,0.0,-0.222,-0.2288,-0.2071,-0.1926,-0.1909,-0.1622,-0.145,0.0,0.0,0.0,0.0,0.0,0.0,0.0,0.0,0.0,0.0,0.0,0.0,0.0,0.0,0.0,0.0,0.0,0.0,0.0,0.0,0.0,0.0,0.0,0.0,0.0,0.0,0.0,0.0,0.0,0.0,0.0,0.0,0.0,0.0,0.0,0.0,0.0,0.0,0.0,0.0,0.0,0.0,0.0,0.0,0.0,0.0,0.0,0.0,0.0,0.0,0.0,0.0,0.0,0.0,0.0,0.0,0.0,0.0,0.0,0.0,0.0,0.0,0.0,0.0,0.0,0.0,0.0,0.0,0.0,0.0,0.0,0.0,0.0,0.0,0.0,0.0,0.0,0.0,0.0,0.0,0.0,0.0,0.0,0.0,0.0,0.0,0.0,0.0,0.0,0.0,0.0,0.0,0.0,0.0,0.0,0.0,0.0,0.0,0.0,0.0,0.0,0.0,0.0,0.0,0.0,0.0,0.0,-0.2336,-0.2384,-0.2432,-0.2236,-0.2043,-0.1957,-0.1717,-0.1498,-0.1393,0.0,0.0,0.0,0.0,0.0,0.0,0.0,0.0,0.0,0.0,0.0,0.0,0.0,0.0,0.0,0.0,0.0,0.0,0.0,0.0,0.0,0.0,0.0,0.0,0.0,0.0,0.0,0.0,0.0,0.0,0.0,0.0,0.0,0.0,0.0,0.0,0.0,0.0,-0.6419,-0.6457,0.0,0.0,0.0,0.0,0.0,0.0,0.0,0.0,-0.6501,0.0,0.0,0.0,0.0,0.0,0.0,0.0,0.0,0.0,0.0,0.0,0.0,0.0,0.0,0.0,0.0,0.0,0.0,0.0,0.0,0.0,0.0,0.0,0.0,0.0,0.0,0.0,0.0,0.0,0.0,0.0,0.0,0.0,0.0,0.0,0.0,0.0,0.0,0.0,0.0,0.0,0.0,0.0,0.0,0.0,0.0,0.0,0.0,0.0,0.0,0.0,0.0,0.0,0.0,0.0,0.0,-0.2785,-0.2838,-0.2895,-0.2954,-0.272,-0.2479,-0.2244,-0.1956,-0.1685,-0.1439,0.0,0.0,0.0,0.0,0.0,0.0,0.0,0.0,0.0,0.0,0.0,0.0,0.0,0.0,0.0,0.0,0.0,0.0,0.0,0.0,0.0,0.0,0.0,0.0,0.0,0.0,0.0,0.0,0.0,0.0,0.0,0.0,0.0,0.0,0.0,0.0,0.0,0.0,0.0,-0.6643,-0.6704,0.0,0.0,0.0,0.0,0.0,0.0,0.0,0.0,-0.6853,0.0,0.0,0.0,0.0,0.0,0.0,0.0,0.0,0.0,0.0,0.0,0.0,0.0,0.0,0.0,0.0,0.0,0.0,0.0,0.0,0.0,0.0,0.0,0.0,0.0,0.0,0.0,0.0,0.0,0.0,0.0,0.0,0.0,0.0,0.0,0.0,0.0,0.0,0.0,0.0,0.0,0.0,0.0,0.0,0.0,0.0,0.0,0.0,0.0,0.0,0.0,0.0,0.0,0.0,0.0,-0.2879,-0.3007,-0.3068,-0.3098,-0.2844,-0.2604,-0.2293,-0.2051,-0.1731,0.0,0.0,0.0,0.0,0.0,0.0,0.0,0.0,0.0,0.0,0.0,0.0,0.0,0.0,0.0,0.0,0.0,0.0,0.0,0.0,0.0,0.0,0.0,0.0,0.0,0.0,0.0,0.0,0.0,0.0,0.0,0.0,0.0,0.0,0.0,0.0,0.0,0.0,0.0,0.0,-0.6804,-0.6894,-0.698,0.0,0.0,0.0,0.0,0.0,0.0,-0.6984,-0.6959,0.0,0.0,0.0,0.0,0.0,0.0,0.0,0.0,0.0,0.0,0.0,0.0,0.0,0.0,0.0,0.0,0.0,0.0,0.0,0.0,0.0,0.0,0.0,0.0,0.0,0.0,0.0,0.0,0.0,0.0,0.0,0.0,0.0,0.0,0.0,0.0,0.0,0.0,0.0,0.0,0.0,0.0,0.0,0.0,0.0,0.0,0.0,0.0,0.0,0.0,0.0,0.0,0.0,0.0,0.0,-0.2894,-0.3041,-0.3104,-0.3119,-0.2975,-0.2677,-0.2342,-0.2099,-0.1779,0.0,0.0,0.0,0.0,0.0,0.0,0.0,0.0,0.0,0.0,0.0,0.0,0.0,0.0,0.0,0.0,0.0,0.0,0.0,0.0,0.0,0.0,0.0,0.0,0.0,0.0,0.0,0.0,0.0,0.0,0.0,0.0,0.0,0.0,0.0,0.0,0.0,0.0,0.0,0.0,0.0,-0.7057,-0.7094,-0.7098,0.0,0.0,0.0,0.0,-0.7098,-0.7094,0.0,0.0,0.0,0.0,0.0,0.0,0.0,0.0,0.0,0.0,0.0,0.0,0.0,0.0,0.0,0.0,0.0,0.0,0.0,0.0,0.0,0.0,0.0,0.0,0.0,0.0,0.0,0.0,0.0,0.0,0.0,0.0,0.0,0.0,0.0,0.0,0.0,0.0,0.0,0.0,0.0,0.0,0.0,0.0,0.0,0.0,0.0,0.0,0.0,0.0,0.0,0.0,0.0,0.0,0.0,0.0,-0.2948,-0.3062,-0.3123,-0.3129,-0.3145,-0.2877,-0.2294,-0.2291,-0.2013,0.0,0.0,0.0,0.0,0.0,0.0,0.0,0.0,0.0,0.0,0.0,0.0,0.0,0.0,0.0,0.0,0.0,0.0,0.0,0.0,0.0,0.0,0.0,0.0,0.0,0.0,0.0,0.0,0.0,0.0,0.0,0.0,0.0,0.0,0.0,0.0,0.0,0.0,0.0,0.0,0.0,-0.7253,-0.7403,-0.7419,-0.7423,0.0,0.0,0.0,-0.7423,-0.7419,0.0,0.0,0.0,0.0,0.0,0.0,0.0,0.0,0.0,0.0,0.0,0.0,0.0,0.0,0.0,0.0,0.0,0.0,0.0,0.0,0.0,0.0,0.0,0.0,0.0,0.0,0.0,0.0,0.0,0.0,0.0,0.0,0.0,0.0,0.0,0.0,0.0,0.0,0.0,0.0,0.0,0.0,0.0,0.0,0.0,0.0,0.0,0.0,0.0,0.0,0.0,0.0,0.0,0.0,0.0,-0.2476,-0.2961,-0.3052,-0.3115,-0.3091,-0.2999,-0.279,-0.2376,-0.2206,-0.1883,0.0,0.0,0.0,0.0,0.0,0.0,0.0,0.0,0.0,0.0,0.0,0.0,0.0,0.0,0.0,0.0,0.0,0.0,0.0,0.0,0.0,0.0,0.0,0.0,0.0,0.0,0.0,0.0,0.0,0.0,0.0,0.0,0.0,0.0,0.0,0.0,0.0,0.0,0.0,0.0,0.0,0.0,-0.7764,-0.7784,0.0,0.0,0.0,-0.7784,-0.7784,0.0,0.0,0.0,0.0,0.0,0.0,0.0,0.0,0.0,0.0,0.0,0.0,0.0,0.0,0.0,0.0,0.0,0.0,0.0,0.0,0.0,0.0,0.0,0.0,0.0,0.0,0.0,0.0,0.0,0.0,0.0,0.0,0.0,0.0,0.0,0.0,0.0,0.0,0.0,0.0,0.0,0.0,0.0,0.0,0.0,0.0,0.0,0.0,0.0,0.0,0.0,0.0,0.0,0.0,0.0,0.0,0.0,-0.2936,-0.3036,-0.3098,-0.3114,-0.2906,-0.265,-0.2403,-0.2071,0.0,0.0,0.0,0.0,0.0,0.0,0.0,0.0,0.0,0.0,0.0,0.0,0.0,0.0,0.0,0.0,0.0,0.0,0.0,0.0,0.0,0.0,0.0,0.0,0.0,0.0,0.0,-0.681,0.0,0.0,0.0,0.0,0.0,0.0,0.0,0.0,0.0,0.0,0.0,0.0,0.0,0.0,-0.787,-0.7996,-0.8012,-0.8012,0.0,0.0,-0.8012,-0.8012,-0.8012,-0.7967,0.0,0.0,0.0,0.0,0.0,0.0,0.0,0.0,0.0,0.0,0.0,0.0,0.0,0.0,0.0,0.0,0.0,0.0,0.0,0.0,0.0,0.0,0.0,0.0,0.0,0.0,0.0,0.0,0.0,0.0,0.0,0.0,0.0,0.0,0.0,0.0,0.0,0.0,0.0,0.0,0.0,0.0,0.0,0.0,0.0,0.0,0.0,0.0,0.0,0.0,0.0,0.0,0.0,0.0,0.0,-0.2709,-0.2961,-0.3118,-0.3172,-0.2925,-0.2651,-0.2403,-0.2072,-0.1749,0.0,0.0,0.0,0.0,0.0,0.0,0.0,0.0,0.0,0.0,0.0,0.0,0.0,0.0,0.0,0.0,0.0,0.0,0.0,0.0,0.0,0.0,0.0,0.0,0.0,0.0,0.0,0.0,0.0,0.0,0.0,0.0,0.0,0.0,0.0,0.0,0.0,0.0,0.0,0.0,0.0,-0.8,-0.8012,-0.8012,-0.8012,0.0,0.0,-0.8012,-0.8012,-0.8016,-0.8012,-0.8,0.0,0.0,0.0,0.0,0.0,0.0,0.0,0.0,0.0,0.0,0.0,0.0,0.0,0.0,0.0,0.0,0.0,0.0,0.0,0.0,0.0,0.0,0.0,0.0,0.0,0.0,0.0,0.0,0.0,0.0,0.0,0.0,0.0,0.0,0.0,0.0,0.0,0.0,0.0,0.0,0.0,0.0,0.0,0.0,0.0,0.0,0.0,0.0,0.0,0.0,0.0,0.0,0.0,-0.2142,-0.2473,-0.2619,-0.2654,-0.2724,-0.2474,-0.2265,-0.2148,-0.1865,-0.1636,0.0,0.0,0.0,0.0,0.0,0.0,0.0,0.0,0.0,0.0,0.0,0.0,0.0,0.0,0.0,0.0,0.0,0.0,0.0,0.0,0.0,0.0,0.0,0.0,0.0,0.0,0.0,0.0,-0.7314,-0.7314,-0.7318,0.0,0.0,0.0,0.0,0.0,0.0,0.0,0.0,0.0,0.0,-0.8227,-0.8337,-0.8353,0.0,0.0,-0.8357,-0.8357,-0.8357,-0.8353,-0.8316,-0.8203,-0.8262,0.0,0.0,0.0,0.0,0.0,0.0,0.0,0.0,0.0,0.0,0.0,0.0,0.0,0.0,0.0,0.0,0.0,0.0,0.0,0.0,0.0,0.0,0.0,0.0,0.0,0.0,0.0,0.0,0.0,0.0,0.0,0.0,0.0,0.0,0.0,0.0,0.0,0.0,0.0,0.0,0.0,0.0,0.0,0.0,0.0,0.0,0.0,0.0,0.0,0.0,0.0,0.0,-0.2034,-0.2207,-0.2348,-0.2422,-0.2422,-0.2121,-0.2022,-0.202,-0.1736,-0.161,0.0,0.0,0.0,0.0,0.0,0.0,0.0,0.0,0.0,0.0,0.0,0.0,0.0,0.0,0.0,0.0,0.0,0.0,0.0,0.0,0.0,0.0,0.0,0.0,0.0,0.0,0.0,0.0,-0.7604,-0.7624,-0.7634,0.0,0.0,0.0,0.0,0.0,0.0,0.0,0.0,0.0,0.0,-0.8465,-0.8596,-0.8616,-0.8616,-0.8616,-0.8616,-0.8616,-0.8616,-0.8616,-0.8567,-0.848,0.0,0.0,0.0,0.0,0.0,0.0,0.0,0.0,0.0,0.0,0.0,0.0,0.0,0.0,0.0,0.0,0.0,0.0,0.0,0.0,0.0,0.0,0.0,0.0,0.0,0.0,0.0,0.0,0.0,0.0,-0.2913,0.0,0.0,0.0,0.0,0.0,0.0,0.0,0.0,0.0,0.0,0.0,0.0,0.0,0.0,0.0,0.0,0.0,0.0,0.0,0.0,0.0,0.0,0.0,-0.2015,-0.225,-0.2371,-0.2371,-0.2121,-0.1971,-0.197,-0.1736,-0.1571,-0.157,0.0,0.0,0.0,0.0,0.0,0.0,0.0,0.0,0.0,0.0,0.0,0.0,0.0,0.0,0.0,0.0,0.0,0.0,0.0,0.0,0.0,0.0,0.0,0.0,0.0,0.0,-0.7796,-0.7792,-0.7817,0.0,0.0,0.0,0.0,0.0,0.0,0.0,0.0,0.0,0.0,-0.8494,-0.8604,-0.8612,-0.8616,-0.8616,-0.8616,-0.8616,-0.8616,-0.8616,-0.8612,-0.8652,0.0,0.0,0.0,0.0,0.0,0.0,0.0,0.0,0.0,0.0,0.0,0.0,0.0,0.0,0.0,0.0,0.0,0.0,0.0,0.0,0.0,0.0,0.0,0.0,0.0,0.0,0.0,-0.3098,-0.3098,0.0,0.0,0.0,0.0,0.0,0.0,0.0,0.0,0.0,0.0,0.0,-0.1618,-0.1636,0.0,0.0,0.0,0.0,0.0,0.0,0.0,0.0,0.0,0.0,0.0,0.0,-0.173,-0.1751,-0.1813,-0.1869,-0.1869,-0.1768,-0.1718,-0.1718,-0.1657,-0.1692,-0.1866,0.0,0.0,0.0,0.0,0.0,0.0,0.0,0.0,0.0,0.0,0.0,0.0,0.0,0.0,0.0,0.0,0.0,0.0,0.0,0.0,0.0,0.0,0.0,0.0,0.0,-0.7927,0.0,0.0,0.0,0.0,0.0,0.0,0.0,0.0,0.0,0.0,0.0,-0.8475,-0.8518,-0.8571,-0.8616,-0.8616,-0.8616,-0.8616,0.0,0.0,0.0,0.0,0.0,0.0,0.0,0.0,0.0,0.0,0.0,0.0,0.0,0.0,-1.3439,-1.3494,-1.3542,-1.3627,-1.3776,0.0,0.0,0.0,0.0,0.0,0.0,0.0,0.0,0.0,0.0,0.0,0.0,0.0,0.0,0.0,0.0,-0.316,0.0,0.0,0.0,0.0,0.0,0.0,0.0,0.0,-0.1791,-0.1766,-0.1716,-0.1691,-0.1695,0.0,-0.1729,-0.1646,0.0,0.0,0.0,0.0,0.0,0.0,0.0,0.0,-0.1597,-0.1566,-0.1627,-0.1627,-0.1618,-0.1628,-0.1628,-0.1617,-0.1566,-0.1753,-0.1965,-0.1917,-0.2066,0.0,0.0,0.0,0.0,0.0,0.0,0.0,0.0,0.0,0.0,0.0,0.0,0.0,0.0,0.0,0.0,0.0,0.0,0.0,0.0,0.0,0.0,0.0,-0.8138,0.0,0.0,0.0,0.0,0.0,0.0,0.0,0.0,0.0,-0.8429,-0.8535,-0.8616,-0.8616,-0.8616,-0.8616,-0.8616,0.0,0.0,0.0,0.0,0.0,0.0,0.0,-0.8911,-0.9043,-0.9563,-1.0212,-1.0809,-1.2015,-1.3117,-1.3614,0.0,0.0,-1.4263,-1.4269,-1.4348,-1.4465,-1.4504,-1.4504,-1.4504,-1.4335,-1.4254,0.0,0.0,0.0,0.0,0.0,0.0,0.0,0.0,-0.369,-0.3589,0.0,-0.3332,0.0,0.0,0.0,0.0,0.0,0.0,0.0,0.0,-0.2063,-0.1975,-0.1719,-0.1695,-0.1707,-0.1705,-0.1705,-0.1704,-0.1699,-0.1645,0.0,0.0,0.0,0.0,0.0,0.0,-0.1569,-0.1622,-0.1701,-0.1701,-0.1623,-0.1647,-0.1647,-0.1618,-0.1566,-0.1753,-0.2018,-0.2013,-0.2315,-0.2971,-0.3007,0.0,0.0,0.0,0.0,0.0,0.0,0.0,0.0,0.0,0.0,0.0,0.0,0.0,0.0,0.0,0.0,0.0,0.0,0.0,0.0,-0.8191,0.0,0.0,0.0,0.0,0.0,0.0,0.0,0.0,0.0,0.0,-0.8633,-0.8629,-0.862,-0.8624,0.0,0.0,0.0,0.0,-0.8828,-0.8828,-0.8828,-0.8783,-0.8832,-0.8868,-0.902,-0.9288,0.0,0.0,-1.18,-1.279,-1.3646,-1.4265,-1.4768,-1.4937,-1.4388,-1.4452,-1.457,-1.457,-1.4577,-1.4548,-1.4548,-1.4562,-1.4533,-0.4849,0.0,0.0,0.0,0.0,-0.409,-0.3931,-0.3933,-0.362,-0.3441,-0.3399,-0.3296,0.0,0.0,0.0,0.0,0.0,0.0,-0.2316,-0.2063,-0.1965,-0.1832,-0.178,-0.1755,-0.1758,-0.1792,-0.1791,-0.1726,-0.1704,-0.1687,-0.1679,-0.1679,0.0,0.0,0.0,0.0,-0.1679,-0.168,-0.1688,-0.1688,-0.168,-0.1668,-0.1647,-0.1618,-0.1566,-0.1813,-0.2304,-0.2223,-0.2539,-0.3331,-0.3287,0.0,0.0,0.0,0.0,0.0,0.0,0.0,0.0,0.0,0.0,0.0,0.0,0.0,0.0,0.0,0.0,0.0,0.0,0.0,-0.8398,-0.8498,-0.8551,0.0,0.0,0.0,0.0,0.0,0.0,0.0,0.0,0.0,-0.8926,-0.8828,-0.8747,0.0,0.0,-0.8946,-0.8946,-0.8986,-0.9019,-0.9019,0.0,0.0,0.0,-0.9342,-0.9574,-0.9625,-1.0492,-1.1444,-1.2349,-1.3294,-1.4062,-1.4524,-1.4992,-1.524,-1.5129,-1.5119,-1.5153,-1.516,-1.5153,-1.5153,-1.5145,-1.4936,-1.4834,-0.5314,-0.5257,-0.499,-0.4786,-0.468,-0.4363,-0.4151,-0.3993,-0.3676,-0.3548,-0.3462,-0.3409,-0.3337,-0.3251,-0.3251,0.0,0.0,0.0,-0.2569,-0.231,-0.2051,-0.1914,-0.1807,-0.1781,-0.1786,-0.1823,-0.1823,-0.1759,-0.174,-0.174,-0.174,-0.1739,0.0,0.0,-0.1704,-0.1704,-0.1704,-0.1705,-0.1716,-0.1716,-0.1704,-0.1729,-0.1654,-0.1635,-0.1623,-0.1869,-0.237,-0.2445,-0.2866,-0.363,-0.3787,-0.4195,0.0,0.0,0.0,0.0,0.0,0.0,0.0,0.0,0.0,0.0,0.0,-0.7303,0.0,0.0,0.0,0.0,-0.8333,-0.8446,-0.86,-0.8616,0.0,0.0,0.0,0.0,0.0,0.0,0.0,-0.8913,-0.893,-0.8974,-0.908,-0.906,-0.9007,-0.8942,-0.9027,-0.9096,-0.9096,0.0,-0.9202,-0.9202,-0.9198,-0.9245,-0.9198,-0.9465,-0.974,-1.0158,-1.1065,-1.2059,-1.2885,-1.3803,-1.4498,-1.4873,-1.5276,-1.5542,-1.5418,-1.5389,-1.5389,-1.5389,-1.5389,-1.5389,-1.5389,-1.5228,-1.5155,-0.5461,-0.5384,-0.5144,-0.4929,-0.4699,-0.4701,-0.4488,-0.4171,-0.3903,-0.3793,-0.3735,-0.3524,-0.3417,-0.3413,-0.3413,0.0,-0.336,-0.3096,-0.2832,-0.2565,-0.2284,-0.2027,-0.1809,-0.1782,-0.1795,-0.1795,-0.1795,-0.1795,-0.1794,-0.1794,-0.1795,-0.1793,-0.1739,-0.1712,-0.1712,-0.1712,-0.1711,-0.1712,-0.1793,-0.1792,-0.1709,-0.1736,-0.1719,-0.1714,-0.1635,-0.1871,-0.2371,-0.2624,-0.3102,-0.3883,-0.4417,-0.5008,-0.5671,0.0,0.0,0.0,0.0,0.0,0.0,0.0,0.0,0.0,0.0,0.0,0.0,0.0,0.0,0.0,-0.8616,0.0,-0.8633,-0.8633,0.0,0.0,0.0,-0.8718,-0.8824,-0.884,-0.8913,-0.9096,0.0,0.0,-0.9141,0.0,-0.9363,-0.9161,-0.9137,-0.9141,-0.9141,-0.9279,-0.9429,-0.9424,-0.9424,-0.9424,-0.942,-0.9492,-0.9856,-1.0715,-1.1564,-1.2385,-1.3302,-1.425,-1.4912,-1.52,-1.5591,-1.587,-1.5555,-1.5555,-1.5504,-1.5498,-1.5425,-1.5389,-1.5389,-1.5374,-1.536,-0.4913,-0.4907,-0.4794,-0.4817,-0.4873,-0.4648,-0.4374,-0.4044,-0.3766,-0.3629,-0.353,-0.353,-0.3452,-0.3413,-0.3413,-0.3305,-0.3093,-0.281,-0.2555,-0.2285,-0.1991,-0.184,-0.1785,-0.1791,-0.1795,-0.1795,-0.1795,-0.1795,-0.1795,-0.1795,-0.1795,-0.1794,-0.178,-0.1774,-0.1773,-0.1773,-0.1773,-0.1773,-0.178,-0.1825,-0.1794,-0.1786,-0.1761,-0.1716,-0.1655,-0.1896,-0.2373,-0.2472,-0.297,-0.3906,-0.4248,-0.4842,-0.5785,-0.5963,0.0,0.0,0.0,0.0,0.0,0.0,0.0,0.0,0.0,-0.8056,-0.8412,0.0,-0.8476,0.0,-0.8616,-0.8621,-0.8751,-0.8759,0.0,0.0,-0.897,-0.8986,-0.9027,-0.9031,-0.9096,-0.9322,-0.9343,-0.9348,-0.9486,-0.9535,-0.9547,-0.9506,-0.9502,-0.9453,-0.9506,-0.9535,-0.9563,-0.9559,-0.9555,-0.9559,-0.9604,-0.9922,-1.0364,-1.1029,-1.1759,-1.259,-1.3368,-1.4276,-1.5057,-1.5478,-1.5957,-1.6228,-1.614,-1.6148,-1.614,-1.6111,-1.5767,-1.5389,-1.5389,-1.5396,-1.5396,-0.4758,-0.4754,-0.472,-0.4657,-0.4579,-0.4377,-0.4136,-0.3853,-0.3712,-0.3568,-0.3537,-0.3538,-0.3521,-0.3491,-0.3326,-0.3216,-0.3,-0.2643,-0.2324,-0.2214,-0.19,-0.1795,-0.1795,-0.1795,-0.1795,-0.1795,-0.1795,-0.1795,-0.1795,-0.1795,-0.1795,-0.1795,-0.1795,-0.1795,-0.1795,-0.1795,-0.1795,-0.1795,-0.1795,-0.1787,-0.1825,-0.1811,-0.1788,-0.1756,-0.1728,-0.1964,-0.2401,-0.2533,-0.3026,-0.3982,-0.4443,-0.5059,-0.5896,-0.6281,-0.6694,0.0,0.0,0.0,0.0,0.0,0.0,0.0,0.0,0.0,0.0,0.0,-0.88,0.0,-0.8849,-0.884,-0.8934,-0.8942,-0.8986,-0.9084,-0.9096,-0.9125,-0.9206,-0.9261,-0.9279,-0.9453,-0.9474,-0.9514,-0.9612,-0.9624,-0.9657,-0.973,-0.9742,-0.9713,-0.9595,-0.9624,-0.9624,-0.9624,-0.9624,-0.9624,-0.9624,-1.0068,-1.052,-1.1008,-1.1798,-1.2659,-1.3514,-1.4455,-1.5297,-1.5805,-1.6273,-1.6573,-1.6448,-1.6411,-1.6411,-1.6323,-1.6096,-1.5818,-1.5679,-1.565,-1.5579,-0.4727,-0.4662,-0.4649,-0.444,-0.4138,-0.4076,-0.393,-0.3744,-0.3634,-0.361,-0.3554,-0.3554,-0.355,-0.3487,-0.3149,-0.3033,-0.297,-0.2411,-0.219,-0.2138,-0.1913,-0.1802,-0.1806,-0.1806,-0.1805,-0.1801,-0.1801,-0.1799,-0.1795,-0.1795,-0.1795,-0.1795,-0.1795,-0.1795,-0.1795,-0.1795,-0.1795,-0.1795,-0.1795,-0.1795,-0.1794,-0.1824,-0.1808,-0.1802,-0.1754,-0.1929,-0.2437,-0.2655,-0.3136,-0.3883,-0.4688,-0.534,-0.5939,-0.6541,-0.707,0.0,-0.7818,0.0,0.0,0.0,0.0,0.0,0.0,0.0,0.0,-0.9096,-0.9096,-0.9096,-0.9096,-0.9108,-0.9129,-0.9133,-0.9141,-0.9161,-0.9165,-0.9226,-0.9416,-0.9457,-0.9531,-0.9644,-0.9681,-0.9693,-0.9709,-0.9697,-0.9758,-0.9892,-0.9925,-0.9876,-0.9738,-0.9717,-0.9726,-0.9697,-0.9677,-0.9681,-0.9718,-1.0085,-1.0511,-1.085,-1.1717,-1.271,-1.3734,-1.4686,-1.553,-1.6061,-1.6596,-1.6873,-1.6535,-1.6506,-1.6506,-1.6543,-1.6565,-1.6374,-1.6067,-1.5972,-1.5877,-0.4126,-0.4121,-0.4063,-0.4038,-0.3971,-0.391,-0.3856,-0.3811,-0.374,-0.3618,-0.3384,-0.3384,-0.3187,-0.2864,-0.2805,-0.2614,-0.2356,-0.2244,-0.2091,-0.1889,-0.1832,-0.1845,-0.1868,-0.1869,-0.1855,-0.1776,-0.1774,-0.1819,-0.1795,-0.1795,-0.1795,-0.1795,-0.1795,-0.1795,-0.1795,0.0,0.0,0.0,-0.1795,-0.1795,-0.1795,-0.1789,-0.1774,-0.1806,-0.1793,0.0,-0.2182,-0.2429,-0.2819,-0.3334,-0.4135,0.0,0.0,0.0,0.0,0.0,0.0,0.0,0.0,0.0,0.0,0.0,-0.9478,-0.9356,-0.9125,-0.9096,-0.9096,-0.9096,-0.9096,-0.9153,-0.9339,-0.9355,-0.9368,-0.951,-0.9527,-0.9494,-0.9579,-0.9697,-0.9803,-0.9831,-0.9969,-1.0054,-1.0046,-1.0114,-1.0071,-1.0151,-1.0107,-1.0095,-1.0118,-1.005,-1.0054,-1.0054,-0.9929,-0.9839,-0.9835,-1.017,-1.0529,-1.085,-1.1683,-1.27,-1.3715,-1.4717,-1.5629,-1.6343,-1.6919,-1.7216,-1.7143,-1.7104,-1.7106,-1.7143,-1.7135,-1.6974,-1.6455,-1.6287,-1.6265,-0.4079,0.0,-0.3986,-0.3958,0.0,-0.3959,-0.3913,-0.3854,-0.3794,-0.3592,-0.3297,-0.3297,-0.3107,-0.2734,-0.2562,-0.2434,-0.2242,-0.2128,-0.1964,-0.1862,-0.1863,-0.187,-0.1885,-0.1885,-0.1878,-0.1863,-0.1862,-0.1855,-0.184,-0.1824,-0.1817,-0.1817,-0.1803,-0.1795,-0.1795,-0.1795,-0.1795,-0.1795,-0.1795,-0.1795,-0.1795,-0.1795,-0.1787,-0.1828,0.0,0.0,0.0,0.0,0.0,0.0,0.0,0.0,0.0,0.0,0.0,-0.7394,-0.8035,-0.8531,-0.8775,-0.9278,-0.9624,-0.9624,-0.9624,-0.9551,-0.9368,-0.9312,-0.9356,-0.936,-0.936,-0.9397,-0.9478,-0.9486,-0.9559,-0.973,-0.9754,-0.9786,-0.988,-0.9969,-1.0018,-1.0077,-1.0103,-1.0212,-1.0212,-1.0212,-1.0253,-1.0278,-1.0298,-1.0327,-1.0387,-1.0322,-1.0212,-1.0212,-1.0147,-1.0026,-1.0061,-1.0327,-1.0608,-1.0852,-1.1565,-1.2467,-1.3366,-1.4388,-1.535,-1.6204,-1.6817,-1.7153,-1.7286,-1.7286,-1.7286,-1.7286,-1.7286,-1.7245,-1.6887,-1.6771,-1.6595,-0.4142,-0.4076,-0.4001,-0.3968,-0.3924,-0.3861,-0.3836,-0.3787,0.0,0.0,0.0,-0.3206,-0.2964,-0.2601,-0.2367,-0.2246,-0.224,-0.2003,-0.1889,-0.1894,-0.1894,-0.1896,-0.1902,-0.1902,-0.1899,-0.1894,-0.1894,-0.1891,-0.1885,-0.186,-0.1788,-0.1781,-0.1815,-0.18,-0.1795,-0.1795,-0.1795,-0.1795,-0.1795,-0.1795,-0.1795,-0.1795,-0.1795,-0.1795,-0.1826,-0.192,-0.2132,-0.234,-0.2667,-0.318,-0.3842,-0.4461,-0.5065,-0.5799,-0.6487,-0.7089,-0.7832,-0.8428,-0.8775,-0.9229,-0.9529,-0.9624,-0.9657,-0.9661,-0.9628,-0.9624,-0.9624,-0.9624,-0.9603,-0.9669,-0.9673,-0.9705,-0.9778,-0.992,-0.9933,-0.9998,-1.0192,-1.0197,-1.0209,-1.0213,-1.0298,-1.0257,-1.027,-1.0274,-1.0306,-1.044,-1.0481,-1.0467,-1.0619,-1.0448,-1.0286,-1.0343,-1.0253,-1.0213,-1.0293,-1.0527,-1.0722,-1.0806,-1.1496,-1.2286,-1.3045,-1.3991,-1.5022,-1.6048,-1.6636,-1.7019,-1.7239,-1.7286,-1.7286,-1.7286,-1.7286,-1.7286,-1.7264,-1.7121,-1.691,-0.4203,-0.42,-0.3824,-0.3669,-0.3661,-0.3343,-0.3212,-0.3262,-0.3479,-0.3373,-0.3003,-0.2758,-0.2374,-0.2044,-0.1984,-0.197,-0.1945,-0.1944,-0.19,0.0,-0.1865,-0.1939,-0.1963,-0.1964,-0.195,-0.1866,-0.1865,-0.1911,-0.1888,-0.1881,-0.1866,-0.1786,-0.1779,-0.1821,-0.1797,-0.1795,-0.1795,-0.1795,-0.1795,-0.1795,-0.1795,-0.1795,-0.1795,-0.1795,-0.1791,-0.1832,-0.1861,-0.2122,-0.2372,-0.271,-0.3184,-0.3824,-0.4543,-0.5086,-0.5792,-0.6792,-0.7388,-0.8028,-0.8779,-0.908,-0.9381,-0.9587,-0.9766,-0.9786,-0.964,-0.9624,-0.9624,-0.9632,-0.9766,-0.9851,-0.9855,-1.0037,-1.0079,-1.0167,-1.0123,-1.0192,-1.0233,-1.0306,-1.0396,-1.0396,-1.053,-1.0603,-1.0586,-1.0595,-1.0595,-1.0639,-1.0627,-1.0664,-1.0672,-1.0651,-1.0619,-1.0599,-1.0489,-1.0412,-1.0433,-1.0714,-1.0915,-1.0953,-1.1655,-1.2468,-1.3199,-1.4096,-1.5038,-1.6015,-1.6623,-1.7033,-1.7246,-1.7286,-1.7286,-1.7286,-1.7286,-1.7286,-1.7286,-1.7274,-1.7216,-0.3998,-0.3929,-0.3572,-0.335,-0.3326,-0.3172,-0.3098,-0.3094,-0.3054,-0.2895,-0.2748,-0.256,-0.2293,-0.1957,-0.1956,-0.1948,-0.1935,-0.1935,-0.1942,-0.1956,-0.1956,-0.1963,-0.1975,-0.2038,-0.1969,-0.1956,-0.1956,-0.1948,-0.1934,-0.1919,-0.1903,-0.1829,-0.1799,-0.1776,-0.182,-0.1803,-0.1795,-0.1795,-0.1795,-0.1795,-0.1795,-0.1795,-0.1795,-0.1795,-0.1795,-0.1789,-0.1774,-0.2033,-0.2344,-0.2595,-0.3081,-0.3734,-0.4573,-0.5108,-0.581,-0.6741,-0.7458,-0.8118,-0.8783,-0.9403,-0.9815,-0.9916,-0.9989,-1.0002,-0.9929,-0.9916,-0.9916,-0.992,-0.9994,-1.0086,-1.009,-1.0163,-1.0205,-1.0302,-1.031,-1.0351,-1.044,-1.0517,-1.0574,-1.0578,-1.0643,-1.0692,-1.0692,-1.0692,-1.0692,-1.0692,-1.0692,-1.0692,-1.0692,-1.0692,-1.0692,-1.0684,-1.0623,-1.0582,-1.0566,-1.0745,-1.0957,-1.1098,-1.1761,-1.246,-1.3145,-1.409,-1.5072,-1.5706,-1.6443,-1.6954,-1.7164,-1.7239,-1.7286,-1.7286,-1.7286,-1.7286,-1.7286,-1.7286,-1.7286,-0.3767,-0.3632,-0.3229,-0.301,-0.2912,-0.2881,-0.2866,-0.2867,-0.2606,-0.2456,-0.2423,-0.2414,-0.2264,-0.205,-0.1986,-0.1983,-0.2039,-0.2038,-0.2038,-0.2038,-0.2038,-0.2038,-0.2038,-0.2038,-0.2038,-0.2038,-0.2038,-0.2038,-0.1974,-0.1953,-0.1937,-0.1865,-0.1812,-0.1783,-0.1782,-0.181,-0.1795,-0.1795,-0.1795,-0.1795,-0.1795,-0.1795,-0.1795,-0.1795,-0.1795,-0.1795,-0.1794,-0.1994,-0.2256,-0.2584,-0.3029,-0.364,-0.4548,-0.5114,-0.5792,-0.664,-0.7487,-0.8223,-0.8954,-0.9686,-1.0112,-1.0216,-1.0201,-1.0273,-1.0229,-1.0314,-1.0294,-1.0233,-1.0193,-1.0221,-1.0229,-1.0322,-1.0339,-1.0423,-1.0435,-1.0538,-1.0664,-1.0692,-1.0692,-1.0692,-1.0692,-1.0692,-1.0692,-1.0692,-1.0692,-1.0692,-1.0692,-1.0692,-1.0692,-1.0692,-1.0692,-1.0692,-1.0692,-1.0684,-1.0739,-1.0799,-1.0986,-1.1241,-1.1767,-1.2333,-1.3019,-1.4072,-1.5034,-1.5518,-1.6366,-1.6988,-1.7125,-1.7276,-1.7374,-1.7323,-1.7286,-1.7286,-1.7286,-1.7286,-1.7286,-0.3565,-0.3228,-0.2895,-0.2557,-0.2283,-0.228,-0.2278,-0.2278,-0.2213,-0.2196,-0.2164,-0.2137,-0.2107,-0.2017,-0.2014,-0.2,-0.2041,-0.2038,-0.2038,-0.2038,-0.2038,-0.2038,-0.2038,-0.2038,-0.2038,-0.2038,-0.2038,-0.2038,-0.2038,-0.1973,-0.1958,-0.1927,-0.1812,-0.1784,-0.178,-0.181,-0.1795,-0.1795,-0.1795,-0.1795,-0.1795,-0.1795,-0.1795,-0.1795,-0.1795,-0.1795,-0.1795,-0.1849,-0.2126,-0.2627,-0.2698,-0.3164,-0.4247,-0.4834,-0.5534,-0.6378,-0.7176,-0.8121,-0.9122,-0.959,-0.9915,-1.0172,-1.0327,-1.0412,-1.0362,-1.055,-1.0497,-1.0335,-1.0322,-1.0404,-1.0366,-1.0534,-1.0615,-1.0631,-1.0651,-1.068,-1.0688,-1.0692,-1.0692,-1.0692,-1.0692,-1.0692,-1.0692,-1.0692,-1.0692,-1.0692,-1.0692,-1.0692,-1.0692,-1.0692,-1.0692,-1.0692,-1.0692,-1.0692,-1.0743,-1.0903,-1.1025,-1.1185,-1.1648,-1.2274,-1.29,-1.3661,-1.4564,-1.5398,-1.6467,-1.7062,-1.7322,-1.758,-1.7622,-1.7516,-1.7428,-1.734,-1.7286,-1.7286,-1.7286,-0.3029,-0.2827,-0.2558,-0.2357,-0.2222,-0.2222,-0.2222,-0.2222,-0.2222,-0.2214,-0.2136,-0.2189,-0.2091,-0.2044,-0.2027,-0.2011,-0.2001,-0.1984,-0.2038,-0.2038,-0.2038,-0.2038,-0.2038,-0.2038,-0.2038,-0.2038,-0.2038,-0.2038,-0.2038,-0.2038,-0.197,-0.1953,-0.1897,-0.1867,-0.1863,-0.1819,-0.1795,-0.1795,-0.1795,-0.1795,-0.1795,-0.1795,-0.1795,-0.1795,-0.1795,-0.1795,-0.1795,-0.1795,-0.2075,-0.2636,-0.2675,-0.3219,-0.4381,-0.4792,-0.5377,-0.6305,-0.7448,-0.853,-0.9561,-0.9885,-1.0154,-1.0473,-1.0542,-1.0586,-1.059,-1.0655,-1.0623,-1.0521,-1.0546,-1.0586,-1.059,-1.0647,-1.0692,-1.0692,-1.0692,-1.0692,-1.0692,-1.0692,-1.0692,-1.0692,-1.0692,-1.0692,-1.0692,-1.0692,-1.0692,-1.0692,-1.0692,-1.0692,-1.0692,-1.0692,-1.0692,-1.0692,-1.0692,-1.0692,-1.0692,-1.0747,-1.0911,-1.1151,-1.1518,-1.2051,-1.2564,-1.3551,-1.4499,-1.5067,-1.61,-1.6867,-1.7139,-1.7583,-1.7855,-1.7763,-1.7677,-1.7567,-1.733,-1.7286,-1.7286,-0.2627,-0.2559,-0.229,-0.2222,-0.2222,-0.2222,-0.2222,-0.2222,-0.2222,-0.2222,-0.2222,-0.2222,-0.2198,-0.2154,-0.2057,-0.2035,-0.2017,-0.1997,-0.2046,-0.204,-0.2038,-0.2038,-0.2038,-0.2038,-0.2038,-0.2038,-0.2038,-0.2038,-0.2038,-0.2038,-0.2038,-0.1968,-0.1915,-0.1885,-0.1879,-0.1825,-0.1795,-0.1795,-0.1795,-0.1795,-0.1795,-0.1795,-0.1795,-0.1795,-0.1795,-0.1795,-0.1795,-0.1795,-0.2075,-0.2637,-0.2693,-0.3197,-0.4313,-0.4706,-0.5377,-0.6492,-0.7657,-0.8706,-0.9478,-0.9868,-1.0198,-1.0527,-1.0582,-1.0637,-1.0692,-1.0692,-1.0692,-1.0684,-1.0692,-1.0688,-1.0692,-1.0692,-1.0692,-1.0692,-1.0692,-1.0692,-1.0692,-1.0692,-1.0692,-1.0692,-1.0692,-1.0692,-1.0692,-1.0692,-1.0692,-1.0692,-1.0692,-1.0692,-1.0692,-1.0692,-1.0692,-1.0692,-1.0692,-1.0692,-1.0692,-1.0747,-1.0802,-1.0983,-1.1302,-1.1603,-1.2116,-1.3196,-1.4171,-1.4584,-1.5725,-1.6542,-1.6965,-1.7394,-1.8031,-1.8129,-1.8101,-1.7889,-1.7728,-1.7625,-1.7611,-0.2492,-0.2223,-0.2222,-0.2222,-0.2222,-0.2222,-0.2222,-0.2222,-0.2222,-0.2222,-0.2222,-0.2222,-0.222,-0.2212,-0.2114,-0.2073,-0.2024,-0.2016,-0.2,-0.2041,-0.2038,-0.2038,-0.2038,-0.2038,-0.2038,-0.2038,-0.2038,-0.2038,-0.2038,-0.2038,-0.2038,-0.2035,-0.1915,-0.1885,-0.1877,-0.1825,-0.1795,-0.1795,-0.1795,-0.1795,-0.1795,-0.1795,-0.1795,-0.1795,-0.1795,-0.1795,-0.1795,-0.1795,-0.2075,-0.2693,-0.2693,-0.3086,-0.398,-0.4596,-0.5599,-0.6932,-0.7712,-0.8266,-0.8927,-0.9316,-0.9706,-1.0202,-1.0312,-1.0417,-1.0641,-1.0692,-1.0692,-1.0692,-1.0692,-1.0692,-1.0692,-1.0692,-1.0692,-1.0692,-1.0692,-1.0692,-1.0692,-1.0692,-1.0692,-1.0692,-1.0692,-1.0692,-1.0692,-1.0692,-1.0692,-1.0692,-1.0692,-1.0692,-1.0692,-1.0692,-1.0692,-1.0692,-1.0692,-1.0692,-1.0692,-1.0692,-1.0692,-1.0807,-1.0978,-1.1131,-1.166,-1.2341,-1.3162,-1.4104,-1.5112,-1.5959,-1.662,-1.7286,-1.7944,-1.8246,-1.8337,-1.8218,-1.8043,-1.8189,-1.8152,-0.229,-0.2222,-0.2222,-0.2222,-0.2222,-0.2222,-0.2222,-0.2222,-0.2222,-0.2222,-0.2222,-0.2222,-0.2222,-0.2221,-0.221,-0.2105,-0.2049,-0.2028,-0.2003,-0.2041,-0.2038,-0.2038,-0.2038,-0.2038,-0.2038,-0.2038,-0.2038,-0.2038,-0.2038,-0.2038,-0.2038,-0.2028,-0.1916,-0.1885,-0.1874,-0.1825,-0.1795,-0.1795,-0.1795,-0.1795,-0.1795,-0.1795,-0.1795,-0.1795,-0.1795,-0.1795,-0.1795,-0.1795,-0.2075,-0.2637,-0.2693,-0.3086,-0.398,-0.4761,-0.5708,-0.6765,-0.7268,-0.7928,-0.8754,-0.8978,-0.9316,-0.9871,-0.9981,-1.0091,-1.0366,-1.0421,-1.0527,-1.0637,-1.0692,-1.0692,-1.0692,-1.0692,-1.0692,-1.0692,-1.0692,-1.0692,-1.0692,-1.0692,-1.0692,-1.0692,-1.0692,-1.0692,-1.0692,-1.0692,-1.0692,-1.0692,-1.0692,-1.0692,-1.0692,-1.0692,-1.0692,-1.0692,-1.0692,-1.0692,-1.0692,-1.0692,-1.0731,-1.0707,-1.0779,-1.0888,-1.127,-1.1591,-1.2336,-1.3252,-1.4381,-1.5552,-1.6268,-1.7615,-1.8175,-1.8376,-1.847,-1.8533,-1.8335,-1.8445,-1.8401,-0.2222,-0.2222,-0.2222,-0.2222,-0.2222,-0.2222,-0.2222,-0.2222,-0.2222,-0.2222,-0.2222,-0.2222,-0.2222,-0.2222,-0.2222,-0.2188,-0.2131,-0.2041,-0.2013,-0.2041,-0.2038,-0.2038,-0.2038,-0.2038,-0.2038,-0.2038,-0.2038,-0.2038,-0.2038,-0.2038,-0.2038,-0.2035,-0.1916,-0.1885,-0.1876,-0.1825,-0.1795,-0.1795,-0.1795,-0.1795,-0.1795,-0.1795,-0.1795,-0.1795,-0.1795,-0.1795,-0.1795,-0.1795,-0.2019,-0.2468,-0.2637,-0.3086,-0.398,-0.4761,-0.5541,-0.6212,-0.6877,-0.7543,-0.8205,-0.8481,-0.8816,-0.9316,-0.9482,-0.9647,-0.9981,-1.0202,-1.0363,-1.0527,-1.0692,-1.0692,-1.0692,-1.0692,-1.0692,-1.0692,-1.0692,-1.0692,-1.0692,-1.0692,-1.0692,-1.0692,-1.0692,-1.0692,-1.0692,-1.0692,-1.0692,-1.0692,-1.0692,-1.0692,-1.0692,-1.0692,-1.0692,-1.0692,-1.0692,-1.0692,-1.0692,-1.0692,-1.0692,-1.0682,-1.0543,-1.0608,-1.0766,-1.1108,-1.1577,-1.2541,-1.364,-1.4878,-1.6268,-1.7654,-1.8272,-1.8466,-1.8745,-1.8899,-1.8767,-1.8672,-1.8672,-0.2222,-0.2222,-0.2222,-0.2222,-0.2222,-0.2222,-0.2222,-0.2222,-0.2222,-0.2222,-0.2222,-0.2222,-0.2222,-0.2222,-0.2218,-0.2185,-0.2136,-0.2057,-0.2026,-0.2042,-0.2038,-0.2038,-0.2038,-0.2038,-0.2038,-0.2038,-0.2038,-0.2038,-0.2038,-0.2038,-0.2038,-0.1966,-0.1915,-0.1885,-0.1885,-0.1827,-0.1795,-0.1795,-0.1795,-0.1795,-0.1795,-0.1795,-0.1795,-0.1795,-0.1795,-0.1795,-0.1795,-0.1795,-0.1963,-0.2244,-0.2524,-0.3086,-0.3868,-0.454,-0.5041,-0.5594,-0.6541,-0.7099,-0.7265,-0.7709,-0.81,-0.8488,-0.8758,-0.8982,-0.9372,-0.9871,-1.0198,-1.0257,-1.0527,-1.0692,-1.0692,-1.0692,-1.0692,-1.0692,-1.0692,-1.0692,-1.0692,-1.0692,-1.0692,-1.0692,-1.0692,-1.0692,-1.0692,-1.0692,-1.0692,-1.0692,-1.0692,-1.0692,-1.0692,-1.0692,-1.0692,-1.0692,-1.0692,-1.0692,-1.0692,-1.0692,-1.0692,-1.0706,-1.0461,-1.0346,-1.0489,-1.0736,-1.1083,-1.1906,-1.3205,-1.4447,-1.5895,-1.7265,-1.8069,-1.8383,-1.8783,-1.9139,-1.9089,-1.8994,-1.9074,-0.2222,-0.2222,-0.2222,-0.2222,-0.2222,-0.2222,-0.2222,-0.2222,-0.2222,-0.2222,-0.2222,-0.2222,-0.2222,-0.2217,-0.2133,-0.2102,-0.2128,-0.2042,-0.2012,-0.2044,-0.2038,-0.2038,-0.2038,-0.2038,-0.2038,-0.2038,-0.2038,-0.2038,-0.2038,-0.2038,-0.2038,-0.2027,-0.1916,-0.1887,-0.1883,-0.1827,-0.1795,-0.1795,-0.1795,-0.1795,-0.1795,-0.1795,-0.1795,-0.1795,-0.1795,-0.1795,-0.1795,-0.1795,-0.1907,-0.2188,-0.23,-0.2748,-0.3589,-0.4092,-0.465,-0.5316,-0.5706,-0.6262,-0.6768,-0.7046,-0.7324,-0.7768,-0.7989,-0.8266,-0.8709,-0.9151,-0.9482,-0.9706,-1.0091,-1.0421,-1.0472,-1.0586,-1.0692,-1.0692,-1.0692,-1.0692,-1.0692,-1.0692,-1.0692,-1.0692,-1.0692,-1.0692,-1.0692,-1.0692,-1.0692,-1.0692,-1.0692,-1.0692,-1.0692,-1.0692,-1.0692,-1.0692,-1.0692,-1.0692,-1.0692,-1.0692,-1.0692,-1.0655,-1.0461,-1.029,-1.0352,-1.039,-1.0748,-1.155,-1.2779,-1.4068,-1.5506,-1.6683,-1.7483,-1.8174,-1.8572,-1.8885,-1.9168,-1.9272,-1.9272,-0.2222,-0.2222,-0.2222,-0.2222,-0.2222,-0.2222,-0.2222,-0.2222,-0.2222,-0.2222,-0.2222,-0.2222,-0.2222,-0.2216,-0.2123,-0.2093,-0.2127,-0.2032,-0.2003,-0.2042,-0.2038,-0.2038,-0.2038,-0.2038,-0.2038,-0.2038,-0.2038,-0.2038,-0.2038,-0.2038,-0.2038,-0.2029,-0.1927,-0.1896,-0.1883,-0.1838,-0.1808,-0.1797,-0.1795,-0.1795,-0.1795,-0.1795,-0.1795,-0.1795,-0.1795,-0.1795,-0.1795,-0.1795,-0.1907,-0.2019,-0.2132,-0.2579,-0.3306,-0.3699,-0.4147,-0.4704,-0.5094,-0.5487,-0.5989,-0.6212,-0.649,-0.6882,-0.716,-0.7493,-0.7986,-0.8315,-0.8706,-0.9203,-0.9651,-1.0091,-1.0257,-1.0421,-1.0582,-1.0692,-1.0692,-1.0692,-1.0692,-1.0692,-1.0692,-1.0692,-1.0692,-1.0692,-1.0692,-1.0692,-1.0692,-1.0692,-1.0692,-1.0692,-1.0692,-1.0692,-1.0692,-1.0692,-1.0692,-1.0692,-1.0692,-1.0692,-1.0692,-1.0631,-1.0534,-1.0335,-1.0289,-1.0172,-1.0378,-1.1424,-1.2581,-1.3662,-1.4992,-1.6133,-1.7014,-1.7602,-1.8233,-1.8646,-1.9011,-1.922,-1.9272,-0.2222,-0.2222,-0.2222,-0.2222,-0.2222,-0.2222,-0.2222,-0.2222,-0.2222,-0.2222,-0.2222,-0.2222,-0.222,-0.2212,-0.2115,-0.2086,-0.2059,-0.2026,-0.2,-0.2044,-0.2038,-0.2038,-0.2038,-0.2038,-0.2038,-0.2038,-0.2038,-0.2038,-0.2038,-0.2038,-0.2038,-0.2034,-0.1943,-0.1915,-0.1885,-0.1854,-0.1823,-0.1798,-0.1795,-0.1795,-0.1795,-0.1795,-0.1795,-0.1795,-0.1795,-0.1795,-0.1795,-0.1795,-0.1795,-0.1851,-0.2075,-0.2467,-0.297,-0.3362,-0.3645,-0.398,-0.4482,-0.4706,-0.4985,-0.532,-0.571,-0.5877,-0.6267,-0.6768,-0.7099,-0.7543,-0.8042,-0.8592,-0.9037,-0.9541,-0.9978,-1.0202,-1.0312,-1.0637,-1.0688,-1.0692,-1.0692,-1.0692,-1.0692,-1.0692,-1.0692,-1.0692,-1.0692,-1.0692,-1.0692,-1.0692,-1.0692,-1.0692,-1.0692,-1.0692,-1.0692,-1.0692,-1.0692,-1.0692,-1.0692,-1.0692,-1.0692,-1.0664,-1.0586,-1.0448,-1.029,-1.0154,-1.0301,-1.1347,-1.2196,-1.3276,-1.4329,-1.537,-1.6324,-1.702,-1.7648,-1.8331,-1.875,-1.9011,-1.9227,-0.2222,-0.2222,-0.2222,-0.2222,-0.2222,-0.2222,-0.2222,-0.2222,-0.2222,-0.2222,-0.2222,-0.2222,-0.2209,-0.2119,-0.2091,-0.2059,-0.2031,-0.2002,-0.1986,-0.204,-0.2038,-0.2038,-0.2038,-0.2038,-0.2038,-0.2038,-0.2038,-0.2038,-0.2038,-0.2038,-0.2038,-0.1975,-0.1948,-0.1917,-0.1886,-0.1856,-0.1825,-0.1799,-0.1795,-0.1795,-0.1795,-0.1795,-0.1795,-0.1795,-0.1795,-0.1795,-0.1795,-0.1795,-0.1795,-0.1795,-0.2075,-0.2244,-0.2467,-0.2805,-0.3085,-0.3363,-0.353,-0.3811,-0.4148,-0.4428,-0.4707,-0.5098,-0.532,-0.5599,-0.61,-0.6543,-0.7041,-0.7595,-0.8045,-0.8654,-0.9147,-0.9537,-0.9871,-1.0312,-1.0527,-1.0692,-1.0692,-1.0692,-1.0692,-1.0692,-1.0692,-1.0692,-1.0692,-1.0692,-1.0692,-1.0692,-1.0692,-1.0692,-1.0692,-1.0692,-1.0692,-1.0692,-1.0692,-1.0692,-1.0692,-1.0692,-1.0692,-1.0692,-1.0639,-1.0578,-1.04,-1.0271,-1.0629,-1.1234,-1.1774,-1.2715,-1.3635,-1.4552,-1.541,-1.6324,-1.7014,-1.7641,-1.8331,-1.875,-1.9018,-0.2222,-0.2222,-0.2222,-0.2222,-0.2222,-0.2222,-0.2222,-0.2222,-0.2222,-0.2222,-0.2222,-0.2222,-0.2138,-0.2108,-0.2078,-0.2047,-0.2017,-0.199,-0.204,-0.2039,-0.2038,-0.2038,-0.2038,-0.2038,-0.2038,-0.2038,-0.2038,-0.2038,-0.2038,-0.2038,-0.2038,-0.1974,-0.1959,-0.1929,-0.1887,-0.1869,-0.1837,-0.1804,-0.1795,-0.1795,-0.1795,-0.1795,-0.1795,-0.1795,-0.1795,-0.1795,-0.1795,-0.1795,-0.1795,-0.1851,-0.1963,-0.2075,-0.2188,-0.2356,-0.2636,-0.2915,-0.2915,-0.3085,-0.3421,-0.3701,-0.398,-0.4314,-0.4538,-0.4929,-0.5375,-0.5764,-0.6151,-0.6763,-0.7324,-0.7878,-0.8484,-0.9044,-0.9485,-0.9871,-1.0198,-1.0421,-1.0637,-1.0692,-1.0692,-1.0692,-1.0692,-1.0692,-1.0692,-1.0692,-1.0692,-1.0692,-1.0692,-1.0692,-1.0692,-1.0692,-1.0692,-1.0692,-1.0692,-1.0692,-1.0692,-1.0692,-1.0692,-1.0692,-1.068,-1.0627,-1.051,-1.0382,-1.063,-1.101,-1.1497,-1.2073,-1.2968,-1.3851,-1.4659,-1.5517,-1.6264,-1.7014,-1.7694,-1.822,-1.8593,-0.2222,-0.2222,-0.2222,-0.2222,-0.2222,-0.2222,-0.2222,-0.2222,-0.2222,-0.2222,-0.2221,-0.2218,-0.2128,-0.2103,-0.2067,-0.2041,-0.2011,-0.1987,-0.2041,-0.2038,-0.2038,-0.2038,-0.2038,-0.2038,-0.2038,-0.2038,-0.2038,-0.2038,-0.2038,-0.2038,-0.2038,-0.1976,-0.1975,-0.1942,-0.1897,-0.1883,-0.1852,-0.1805,-0.1795,-0.1795,-0.1795,-0.1795,-0.1795,-0.1795,-0.1795,-0.1795,-0.1795,-0.1795,-0.1795,-0.1795,-0.1795,-0.1907,-0.2132,-0.2132,-0.23,-0.2524,-0.2525,-0.258,-0.2693,-0.3141,-0.3419,-0.3587,-0.3977,-0.4482,-0.4706,-0.4983,-0.5371,-0.6042,-0.6652,-0.721,-0.7934,-0.8712,-0.9154,-0.932,-0.9596,-1.0036,-1.0417,-1.0578,-1.0633,-1.0692,-1.0692,-1.0692,-1.0692,-1.0692,-1.0692,-1.0692,-1.0692,-1.0692,-1.0692,-1.0692,-1.0692,-1.0692,-1.0692,-1.0692,-1.0692,-1.0692,-1.0692,-1.0692,-1.0692,-1.0647,-1.0542,-1.0498,-1.058,-1.0845,-1.1279,-1.1794,-1.2454,-1.3251,-1.4008,-1.4708,-1.5458,-1.6264,-1.6961,-1.7483,-1.7852,-0.2222,-0.2222,-0.2222,-0.2222,-0.2222,-0.2222,-0.2222,-0.2222,-0.2222,-0.2221,-0.2216,-0.213,-0.2103,-0.2072,-0.2044,-0.2013,-0.199,-0.2042,-0.2039,-0.2038,-0.2038,-0.2038,-0.2038,-0.2038,-0.2038,-0.2038,-0.2038,-0.2038,-0.2038,-0.2038,-0.2038,-0.2038,-0.2035,-0.1947,-0.1896,-0.1885,-0.1855,-0.1806,-0.1795,-0.1795,-0.1795,-0.1795,-0.1795,-0.1795,-0.1795,-0.1795,-0.1795,-0.1795,-0.1795,-0.1795,-0.1795,-0.1851,-0.1907,-0.1907,-0.1963,-0.2019,-0.2075,-0.2132,-0.23,-0.2468,-0.2635,-0.2917,-0.3141,-0.3309,-0.3811,-0.3979,-0.4426,-0.5041,-0.5539,-0.6318,-0.721,-0.7878,-0.8377,-0.8654,-0.9099,-0.9489,-0.9706,-1.0091,-1.0417,-1.0582,-1.0692,-1.0692,-1.0692,-1.0692,-1.0692,-1.0692,-1.0692,-1.0692,-1.0692,-1.0692,-1.0692,-1.0692,-1.0692,-1.0692,-1.0692,-1.0692,-1.0692,-1.0692,-1.0692,-1.0688,-1.0582,-1.0526,-1.0597,-1.075,-1.0973,-1.1513,-1.2046,-1.2491,-1.3197,-1.3948,-1.4654,-1.5458,-1.6099,-1.663,-1.7213,-0.2222,-0.2222,-0.2222,-0.2222,-0.2222,-0.2222,-0.2222,-0.2222,-0.2222,-0.2146,-0.2132,-0.2114,-0.2084,-0.2043,-0.2025,-0.2003,-0.2043,-0.2038,-0.2038,-0.2038,-0.2038,-0.2038,-0.2038,-0.2038,-0.2038,-0.2038,-0.2038,-0.2038,-0.2038,-0.2038,-0.2038,-0.2038,-0.2038,-0.1954,-0.1909,-0.1893,-0.1863,-0.1823,-0.1801,-0.1795,-0.1795,-0.1795,-0.1795,-0.1795,-0.1795,-0.1795,-0.1795,-0.1795,-0.1795,-0.1795,-0.1795,-0.1795,-0.1795,-0.1795,-0.1795,-0.1795,-0.1795,-0.1851,-0.1963,-0.2132,-0.23,-0.2412,-0.2581,-0.2861,-0.3197,-0.3419,-0.3755,-0.4258,-0.4871,-0.5594,-0.6432,-0.7043,-0.7487,-0.7878,-0.8269,-0.8657,-0.8985,-0.9592,-1.0088,-1.0308,-1.0417,-1.0472,-1.0527,-1.0582,-1.0692,-1.0692,-1.0692,-1.0692,-1.0692,-1.0692,-1.0692,-1.0692,-1.0692,-1.0692,-1.0692,-1.0692,-1.0692,-1.0692,-1.0692,-1.0692,-1.0651,-1.0619,-1.0649,-1.0808,-1.0908,-1.11,-1.161,-1.1996,-1.2436,-1.3088,-1.3846,-1.46,-1.5244,-1.5773,-1.6411,-0.2222,-0.2222,-0.2222,-0.2222,-0.2222,-0.2222,-0.2218,-0.2213,-0.2214,-0.2128,-0.2104,-0.2099,-0.2061,-0.2026,-0.2013,-0.1996,-0.2044,-0.2038,-0.2038,-0.2038,-0.2038,-0.2038,-0.2038,-0.2038,-0.2038,-0.2038,-0.2038,-0.2038,-0.2038,-0.2038,-0.2038,-0.2038,-0.2038,-0.1958,-0.193,-0.19,-0.1869,-0.178,-0.1808,-0.1795,-0.1795,-0.1795,-0.1795,-0.1795,-0.1795,-0.1795,-0.1795,-0.1795,-0.1795,-0.1795,-0.1795,-0.1795,-0.1795,-0.1795,-0.1795,-0.1795,-0.1795,-0.1795,-0.1851,-0.2019,-0.2132,-0.2132,-0.2356,-0.2581,-0.2748,-0.3085,-0.3363,-0.3811,-0.4313,-0.5096,-0.5654,-0.6267,-0.6712,-0.7046,-0.7326,-0.766,-0.8211,-0.8982,-0.9372,-0.9816,-0.9926,-1.0091,-1.0253,-1.0417,-1.0527,-1.0641,-1.0692,-1.0692,-1.0692,-1.0692,-1.0692,-1.0692,-1.0692,-1.0692,-1.0692,-1.0692,-1.0692,-1.0692,-1.0692,-1.0692,-1.0692,-1.0672,-1.0702,-1.0722,-1.0895,-1.1067,-1.1227,-1.1614,-1.2001,-1.2436,-1.298,-1.3792,-1.4385,-1.4922,-1.5613,-0.2222,-0.2222,-0.2222,-0.2222,-0.2222,-0.2222,-0.2206,-0.2119,-0.2118,-0.2099,-0.2071,-0.2046,-0.2032,-0.2013,-0.1992,-0.2043,-0.2039,-0.2038,-0.2038,-0.2038,-0.2038,-0.2038,-0.2038,-0.2038,-0.2038,-0.2038,-0.2038,-0.2038,-0.2038,-0.2038,-0.2038,-0.2038,-0.2038,-0.1961,-0.1934,-0.1901,-0.1873,-0.1788,-0.1813,-0.1795,-0.1795,-0.1795,-0.1795,-0.1795,-0.1795,-0.1795,-0.1795,-0.1795,-0.1795,-0.1795,-0.1795,-0.1795,-0.1795,-0.1795,-0.1795,-0.1795,-0.1795,-0.1795,-0.1851,-0.1851,-0.1851,-0.1851,-0.1963,-0.2076,-0.23,-0.2637,-0.3029,-0.3474,-0.4033,-0.4814,-0.5371,-0.5764,-0.61,-0.6381,-0.6662,-0.6882,-0.716,-0.766,-0.8436,-0.8989,-0.932,-0.9651,-0.9812,-1.0088,-1.0253,-1.0417,-1.0527,-1.0637,-1.0692,-1.0692,-1.0692,-1.0692,-1.0692,-1.0692,-1.0692,-1.0692,-1.0692,-1.0692,-1.0692,-1.0692,-1.0692,-1.0692,-1.0747,-1.0747,-1.0747,-1.0852,-1.1072,-1.1291,-1.1673,-1.2164,-1.2599,-1.2985,-1.3635,-1.4229,-1.4659,-0.2131,-0.2133,-0.2215,-0.2222,-0.2219,-0.2138,-0.2123,-0.2108,-0.2093,-0.2069,-0.2044,-0.2024,-0.2009,-0.1996,-0.1984,-0.2038,-0.2038,-0.2038,-0.2038,-0.2038,-0.2038,-0.2038,-0.2038,-0.2038,-0.2038,-0.2038,-0.2038,-0.2038,-0.2038,-0.2038,-0.2038,-0.2038,-0.2038,-0.1969,-0.1947,-0.1909,-0.1882,-0.1855,-0.1821,-0.1795,-0.1795,-0.1795,-0.1795,-0.1795,-0.1795,-0.1795,-0.1795,-0.1795,-0.1795,-0.1795,-0.1795,-0.1795,-0.1795,-0.1795,-0.1795,-0.1795,-0.1795,-0.1795,-0.1795,-0.1795,-0.1795,-0.1795,-0.1795,-0.1851,-0.2075,-0.2412,-0.2861,-0.3418,-0.3977,-0.4592,-0.4927,-0.532,-0.5712,-0.5991,-0.6158,-0.6325,-0.6495,-0.6773,-0.7382,-0.8103,-0.8543,-0.8875,-0.9313,-0.9588,-0.9923,-1.0198,-1.0363,-1.0527,-1.0692,-1.0692,-1.0692,-1.0692,-1.0692,-1.0692,-1.0692,-1.0692,-1.0692,-1.0692,-1.0692,-1.0692,-1.0692,-1.0692,-1.0692,-1.0747,-1.0747,-1.0798,-1.0852,-1.1072,-1.1455,-1.1891,-1.2223,-1.2659,-1.3093,-1.3586,-1.3959,-0.21,-0.2102,-0.2193,-0.2204,-0.2132,-0.2111,-0.2095,-0.2086,-0.2065,-0.2038,-0.2012,-0.2008,-0.1996,-0.2043,-0.2039,-0.2038,-0.2038,-0.2038,-0.2038,-0.2038,-0.2038,-0.2038,-0.2038,-0.2038,-0.2038,-0.2038,-0.2038,-0.2038,-0.2038,-0.2038,-0.2038,-0.2038,-0.2038,-0.2038,-0.2025,-0.1915,-0.1894,-0.1867,-0.1827,-0.1796,-0.1795,-0.1795,-0.1795,-0.1795,-0.1795,-0.1795,-0.1795,-0.1795,-0.1795,-0.1795,-0.1795,-0.1795,-0.1795,-0.1795,-0.1795,-0.1795,-0.1795,-0.1795,-0.1795,-0.1795,-0.1795,-0.1795,-0.1795,-0.1795,-0.1963,-0.2356,-0.2917,-0.3531,-0.4033,-0.4369,-0.448,-0.4931,-0.5266,-0.5431,-0.5543,-0.571,-0.5935,-0.6161,-0.6328,-0.699,-0.7598,-0.8097,-0.8484,-0.9147,-0.9533,-0.9926,-1.0147,-1.0472,-1.0637,-1.0692,-1.0692,-1.0692,-1.0692,-1.0692,-1.0692,-1.0692,-1.0692,-1.0692,-1.0692,-1.0692,-1.0692,-1.0692,-1.0692,-1.0692,-1.0692,-1.0747,-1.0802,-1.0857,-1.1181,-1.1509,-1.1896,-1.2223,-1.2604,-1.293,-1.331,-0.2133,-0.2134,-0.2074,-0.2139,-0.2076,-0.2136,-0.2054,-0.2033,-0.2027,-0.2008,-0.1986,-0.2045,-0.2043,-0.2039,-0.2038,-0.2038,-0.2038,-0.2038,-0.2038,-0.2038,-0.2038,-0.2038,-0.2038,-0.2038,-0.2038,-0.2038,-0.2038,-0.2038,-0.2038,-0.2038,-0.2038,-0.2038,-0.2038,-0.2038,-0.2032,-0.1921,-0.1887,-0.1876,-0.1826,-0.1795,-0.1795,-0.1795,-0.1795,-0.1795,-0.1795,-0.1795,-0.1795,-0.1795,-0.1795,-0.1795,-0.1795,-0.1795,-0.1795,-0.1795,-0.1795,-0.1795,-0.1795,-0.1795,-0.1795,-0.1795,-0.1795,-0.1795,-0.1795,-0.1795,-0.2019,-0.2356,-0.2917,-0.3531,-0.3923,-0.4092,-0.4147,-0.4426,-0.4592,-0.4815,-0.4985,-0.5041,-0.521,-0.5489,-0.5712,-0.5935,-0.6541,-0.7102,-0.7549,-0.8374,-0.9092,-0.9537,-0.9926,-1.0308,-1.0582,-1.0692,-1.0692,-1.0692,-1.0692,-1.0692,-1.0692,-1.0692,-1.0692,-1.0692,-1.0692,-1.0692,-1.0692,-1.0692,-1.0692,-1.0692,-1.0692,-1.0692,-1.0747,-1.0802,-1.0907,-1.1126,-1.1514,-1.1787,-1.2005,-1.2332,-1.2713,-0.2024,-0.204,-0.2056,-0.2129,-0.2126,-0.2046,-0.2031,-0.2018,-0.2001,-0.1988,-0.2041,-0.2038,-0.2038,-0.2038,-0.2038,-0.2038,-0.2038,-0.2038,-0.2038,-0.2038,-0.2038,-0.2038,-0.2038,-0.2038,-0.2038,-0.2038,-0.2038,-0.2038,-0.2038,-0.2038,-0.2038,-0.2038,-0.2038,-0.2038,-0.2036,-0.1933,-0.1905,-0.1875,-0.183,-0.1797,-0.1795,-0.1795,-0.1795,-0.1795,-0.1795,-0.1795,-0.1795,-0.1795,-0.1795,-0.1795,-0.1795,-0.1795,-0.1795,-0.1795,-0.1795,-0.1795,-0.1795,-0.1795,-0.1795,-0.1795,-0.1795,-0.1795,-0.1851,-0.1963,-0.2244,-0.2525,-0.2918,-0.3531,-0.3813,-0.3982,-0.4036,-0.4314,-0.4424,-0.4536,-0.4594,-0.465,-0.4706,-0.4817,-0.5039,-0.5262,-0.5485,-0.6156,-0.6771,-0.7604,-0.8543,-0.932,-0.9706,-1.0147,-1.0472,-1.0692,-1.0692,-1.0692,-1.0692,-1.0692,-1.0692,-1.0692,-1.0692,-1.0692,-1.0692,-1.0692,-1.0692,-1.0692,-1.0692,-1.0692,-1.0692,-1.0692,-1.0692,-1.0747,-1.0857,-1.0966,-1.1131,-1.1404,-1.1678,-1.2005,-1.2387,-0.1989,-0.201,-0.2033,-0.2106,-0.204,-0.2017,-0.2008,-0.2005,-0.1987,-0.2039,-0.2038,-0.2038,-0.2038,-0.2038,-0.2038,-0.2038,-0.2038,-0.2038,-0.2038,-0.2038,-0.2038,-0.2038,-0.2038,-0.2038,-0.2038,-0.2038,-0.2038,-0.2038,-0.2038,-0.2038,-0.2038,-0.2038,-0.2038,-0.2038,-0.1969,-0.1943,-0.1912,-0.1867,-0.1821,-0.1797,-0.1795,-0.1795,-0.1795,-0.1795,-0.1795,-0.1795,-0.1795,-0.1795,-0.1795,-0.1795,-0.1795,-0.1795,-0.1795,-0.1795,-0.1795,-0.1795,-0.1795,-0.1795,-0.1795,-0.1795,-0.1795,-0.1795,-0.1851,-0.2019,-0.2412,-0.2637,-0.2861,-0.3362,-0.3701,-0.3868,-0.3924,-0.4147,-0.4147,-0.4201,-0.4314,-0.4369,-0.4424,-0.4536,-0.4648,-0.4871,-0.5094,-0.5373,-0.61,-0.6882,-0.7826,-0.8878,-0.9544,-0.9981,-1.0366,-1.0692,-1.0692,-1.0692,-1.0692,-1.0692,-1.0692,-1.0692,-1.0692,-1.0692,-1.0692,-1.0692,-1.0692,-1.0692,-1.0692,-1.0692,-1.0692,-1.0692,-1.0692,-1.0747,-1.0747,-1.0857,-1.0966,-1.1126,-1.14,-1.1732,-1.2169,-0.2039,-0.2042,-0.2045,-0.1986,-0.1986,-0.2043,-0.2042,-0.1984,-0.2041,-0.2038,-0.2038,-0.2038,-0.2038,-0.2038,-0.2038,-0.2038,-0.2038,-0.2038,-0.2038,-0.2038,-0.2038,-0.2038,-0.2038,-0.2038,-0.2038,-0.2038,-0.2038,-0.2038,-0.2038,-0.2038,-0.2038,-0.2038,-0.2038,-0.2038,-0.1968,-0.1946,-0.1905,-0.1862,-0.1819,-0.18,-0.1796,-0.1795,-0.1795,-0.1795,-0.1795,-0.1795,-0.1795,-0.1795,-0.1795,-0.1795,-0.1795,-0.1795,-0.1795,-0.1795,-0.1795,-0.1795,-0.1795,-0.1795,-0.1795,-0.1795,-0.1795,-0.1795,-0.1851,-0.1963,-0.23,-0.2525,-0.2803,-0.3082,-0.3419,-0.3587,-0.3643,-0.3643,-0.3811,-0.3867,-0.3979,-0.4035,-0.4147,-0.4257,-0.4424,-0.4536,-0.476,-0.5039,-0.5543,-0.6381,-0.7382,-0.8491,-0.9541,-1.0036,-1.0417,-1.0692,-1.0692,-1.0692,-1.0692,-1.0692,-1.0692,-1.0692,-1.0692,-1.0692,-1.0692,-1.0692,-1.0692,-1.0692,-1.0692,-1.0692,-1.0692,-1.0692,-1.0692,-1.0747,-1.0747,-1.0692,-1.0802,-1.1017,-1.1291,-1.1618,-1.2114,-0.2038,-0.2038,-0.2038,-0.2038,-0.2038,-0.2038,-0.2038,-0.2038,-0.2038,-0.2038,-0.2038,-0.2038,-0.2038,-0.2038,-0.2038,-0.2038,-0.2038,-0.2038,-0.2038,-0.2038,-0.2038,-0.2038,-0.2038,-0.2038,-0.2038,-0.2038,-0.2038,-0.2038,-0.2038,-0.2038,-0.2038,-0.2038,-0.2038,-0.2038,-0.1967,-0.1947,-0.1909,-0.1874,-0.1838,-0.1816,-0.1796,-0.1795,-0.1795,-0.1795,-0.1795,-0.1795,-0.1795,-0.1795,-0.1795,-0.1795,-0.1795,-0.1795,-0.1795,-0.1795,-0.1795,-0.1795,-0.1795,-0.1795,-0.1795,-0.1795,-0.1795,-0.1795,-0.1795,-0.1907,-0.2132,-0.2356,-0.2581,-0.2805,-0.3139,-0.3307,-0.3306,-0.3475,-0.3643,-0.3643,-0.3643,-0.3757,-0.3867,-0.4035,-0.4035,-0.4147,-0.4426,-0.4761,-0.532,-0.588,-0.6935,-0.8045,-0.9151,-1.0088,-1.0417,-1.0692,-1.0692,-1.0692,-1.0692,-1.0692,-1.0692,-1.0692,-1.0692,-1.0692,-1.0692,-1.0692,-1.0692,-1.0692,-1.0692,-1.0692,-1.0692,-1.0692,-1.0692,-1.0692,-1.0692,-1.0692,-1.0802,-1.0907,-1.1236,-1.1564,-1.206,-0.2038,-0.2038,-0.2038,-0.2038,-0.2038,-0.2038,-0.2038,-0.2038,-0.2038,-0.2038,-0.2038,-0.2038,-0.2038,-0.2038,-0.2038,-0.2038,-0.2038,-0.2038,-0.2038,-0.2038,-0.2038,-0.2038,-0.2038,-0.2038,-0.2038,-0.2038,-0.2038,-0.2038,-0.2038,-0.2038,-0.2038,-0.2038,-0.2038,-0.2038,-0.197,-0.1947,-0.192,-0.1897,-0.1859,-0.1776,-0.181,-0.18,-0.1795,-0.1795,-0.1795,-0.1795,-0.1795,-0.1795,-0.1795,-0.1795,-0.1795,-0.1795,-0.1795,-0.1795,-0.1795,-0.1795,-0.1795,-0.1795,-0.1795,-0.1795,-0.1795,-0.1795,-0.1795,-0.1907,-0.202,-0.2132,-0.2356,-0.2524,-0.2803,-0.2971,-0.297,-0.3139,-0.3307,-0.3307,-0.3362,-0.3475,-0.3587,-0.3755,-0.3699,-0.3755,-0.4091,-0.4482,-0.5152,-0.5766,-0.6935,-0.7931,-0.8761,-0.9702,-1.0312,-1.0527,-1.0582,-1.0637,-1.0692,-1.0692,-1.0692,-1.0692,-1.0692,-1.0692,-1.0692,-1.0692,-1.0692,-1.0692,-1.0692,-1.0692,-1.0692,-1.0692,-1.0692,-1.0692,-1.0692,-1.0692,-1.0802,-1.0852,-1.1295,-1.1623,-1.1891,-0.2038,-0.2038,-0.2038,-0.2038,-0.2038,-0.2038,-0.2038,-0.2038,-0.2038,-0.2038,-0.2038,-0.2038,-0.2038,-0.2038,-0.2038,-0.2038,-0.2038,-0.2038,-0.2038,-0.2038,-0.2038,-0.2038,-0.2038,-0.2038,-0.2038,-0.2038,-0.2038,-0.2038,-0.2038,-0.2038,-0.2038,-0.2038,-0.2038,-0.2038,-0.1974,-0.1947,-0.1872,-0.1861,-0.187,-0.1793,-0.1773,-0.1812,-0.1804,-0.1795,-0.1795,-0.1795,-0.1795,-0.1795,-0.1795,-0.1795,-0.1795,-0.1795,-0.1795,-0.1795,-0.1795,-0.1795,-0.1795,-0.1795,-0.1797,-0.1796,-0.18,-0.1802,-0.1806,-0.186,-0.1911,-0.2021,-0.2188,-0.2244,-0.2468,-0.2692,-0.2693,-0.275,-0.2917,-0.3039,-0.3098,-0.322,-0.3394,-0.3495,-0.35,-0.3608,-0.3877,-0.4204,-0.4873,-0.5708,-0.693,-0.7875,-0.8537,-0.9258,-0.9978,-1.0257,-1.0253,-1.0417,-1.0527,-1.0582,-1.0582,-1.0692,-1.0692,-1.0692,-1.0692,-1.0692,-1.0692,-1.0692,-1.0692,-1.0692,-1.0692,-1.0692,-1.0692,-1.0692,-1.0692,-1.0692,-1.0692,-1.0857,-1.1295,-1.1678,-1.1896,-0.2038,-0.2038,-0.2038,-0.2038,-0.2038,-0.2038,-0.2038,-0.2038,-0.2038,-0.2038,-0.2038,-0.2038,-0.2038,-0.2038,-0.2038,-0.2038,-0.2038,-0.2038,-0.2038,-0.2038,-0.2038,-0.2038,-0.2038,-0.2038,-0.2038,-0.2038,-0.2038,-0.2038,-0.2038,-0.2038,-0.2038,-0.2038,-0.2038,-0.2038,-0.1975,-0.1962,-0.1954,-0.1873,-0.1847,-0.1825,-0.1788,-0.1829,-0.1814,-0.1797,-0.1795,-0.1795,-0.1795,-0.1795,-0.1795,-0.1795,-0.1795,-0.1795,-0.1795,-0.1795,-0.1795,-0.1795,-0.1795,-0.1806,-0.1818,-0.1826,-0.1826,-0.1826,-0.1825,-0.1825,-0.1825,-0.1861,-0.1911,-0.2019,-0.2188,-0.2356,-0.2356,-0.2582,-0.2757,-0.2791,-0.2919,-0.3053,-0.323,-0.3265,-0.3368,-0.3639,-0.391,-0.4385,-0.4985,-0.5373,-0.6429,-0.721,-0.7817,-0.8709,-0.9485,-0.9655,-0.9706,-1.0036,-1.0198,-1.0366,-1.0476,-1.0531,-1.0637,-1.0637,-1.0692,-1.0692,-1.0692,-1.0692,-1.0692,-1.0692,-1.0692,-1.0692,-1.0692,-1.0692,-1.0692,-1.0692,-1.0692,-1.0802,-1.1185,-1.1514,-1.1732,-0.2038,-0.2038,-0.2038,-0.2038,-0.2038,-0.2038,-0.2038,-0.2038,-0.2038,-0.2038,-0.2038,-0.2038,-0.2038,-0.2038,-0.2038,-0.2038,-0.2038,-0.2038,-0.2038,-0.2038,-0.2038,-0.2038,-0.2038,-0.2038,-0.2038,-0.2038,-0.2038,-0.2038,-0.2038,-0.2038,-0.2038,-0.2038,-0.2038,-0.2038,-0.1976,-0.1972,-0.1967,-0.1947,-0.1931,-0.1903,-0.1868,-0.1843,-0.1823,-0.1804,-0.1795,-0.1795,-0.1795,-0.1795,-0.1795,-0.1795,-0.1795,-0.1795,-0.1795,-0.1795,-0.1795,-0.1795,-0.1797,-0.1811,-0.1773,-0.1853,-0.1859,-0.1874,-0.1864,-0.1851,-0.1785,-0.1823,-0.1807,-0.1856,-0.2022,-0.202,-0.2134,-0.2361,-0.2446,-0.2477,-0.2612,-0.2804,-0.2983,-0.3079,-0.3232,-0.3565,-0.3824,-0.4357,-0.4819,-0.5262,-0.5817,-0.6429,-0.7043,-0.7934,-0.8768,-0.8989,-0.9154,-0.9427,-0.9702,-0.9871,-1.0091,-1.0312,-1.0417,-1.0527,-1.0582,-1.0637,-1.0692,-1.0692,-1.0692,-1.0692,-1.0692,-1.0692,-1.0692,-1.0692,-1.0692,-1.0692,-1.0692,-1.0857,-1.1076,-1.135,-1.1623,-0.2038,-0.2038,-0.2038,-0.2038,-0.2038,-0.2038,-0.2038,-0.2038,-0.2038,-0.2038,-0.2038,-0.2038,-0.2038,-0.2038,-0.2038,-0.2038,-0.2038,-0.2038,-0.2038,-0.2038,-0.2038,-0.2038,-0.2038,-0.2038,-0.2038,-0.2038,-0.2038,-0.2038,-0.2038,-0.2038,-0.2038,-0.2038,-0.2038,-0.2038,-0.2038,-0.2038,-0.1973,-0.1963,-0.1949,-0.1919,-0.1882,-0.1858,-0.183,-0.1808,-0.1795,-0.1795,-0.1795,-0.1795,-0.1795,-0.1795,-0.1795,-0.1795,-0.1795,-0.1795,-0.1795,-0.1795,-0.1795,-0.1812,-0.178,-0.1863,-0.1893,-0.1907,-0.1903,-0.1877,-0.1798,-0.1786,-0.1823,-0.1812,-0.1863,-0.1859,-0.1857,-0.1993,-0.2076,-0.2153,-0.2288,-0.2476,-0.278,-0.2944,-0.31,-0.337,-0.3629,-0.3991,-0.4273,-0.4704,-0.515,-0.5541,-0.6098,-0.6654,-0.7487,-0.8211,-0.8432,-0.8761,-0.904,-0.9323,-0.9544,-0.9816,-1.0036,-1.0091,-1.0476,-1.0586,-1.0637,-1.0692,-1.0692,-1.0692,-1.0692,-1.0692,-1.0692,-1.0692,-1.0692,-1.0692,-1.0692,-1.0747,-1.0966,-1.124,-1.1568,-0.2038,-0.2038,-0.2038,-0.2038,-0.2038,-0.2038,-0.2038,-0.2038,-0.2038,-0.2038,-0.2038,-0.2038,-0.2038,-0.2038,-0.2038,-0.2038,-0.2038,-0.2038,-0.2038,-0.2038,-0.2038,-0.2038,-0.2038,-0.2038,-0.2038,-0.2038,-0.2038,-0.2038,-0.2038,-0.2038,-0.2038,-0.2038,-0.2038,-0.2038,-0.2038,-0.2038,-0.2038,-0.2036,-0.1964,-0.1931,-0.1898,-0.1874,-0.1839,-0.181,-0.1795,-0.1795,-0.1795,-0.1795,-0.1795,-0.1795,-0.1795,-0.1795,-0.1795,-0.1795,-0.1795,-0.1795,-0.1797,-0.1808,-0.1782,-0.1869,-0.1899,-0.1929,-0.1937,-0.1934,-0.1846,-0.1813,-0.1786,-0.1833,-0.1828,-0.1827,-0.1834,-0.1853,-0.1933,-0.2011,-0.2087,-0.2278,-0.2524,-0.2698,-0.2916,-0.329,-0.3553,-0.3768,-0.4,-0.4148,-0.4594,-0.4817,-0.515,-0.5708,-0.6265,-0.7043,-0.7657,-0.7931,-0.8263,-0.8546,-0.8878,-0.9206,-0.943,-0.971,-1.0036,-1.0366,-1.0476,-1.0527,-1.0637,-1.0692,-1.0692,-1.0692,-1.0692,-1.0692,-1.0692,-1.0692,-1.0692,-1.0747,-1.0857,-1.1131,-1.1404,-0.2038,-0.2038,-0.2038,-0.2038,-0.2038,-0.2038,-0.2038,-0.2038,-0.2038,-0.2038,-0.2038,-0.2038,-0.2038,-0.2038,-0.2038,-0.2038,-0.2038,-0.2038,-0.2038,-0.2038,-0.2038,-0.2038,-0.2038,-0.2038,-0.2038,-0.2038,-0.2038,-0.2038,-0.2038,-0.2038,-0.2038,-0.2038,-0.2038,-0.2038,-0.2038,-0.2038,-0.2038,-0.2038,-0.2029,-0.1938,-0.191,-0.1884,-0.1847,-0.181,-0.1797,-0.1795,-0.1795,-0.1795,-0.1795,-0.1795,-0.1795,-0.1795,-0.1795,-0.1795,-0.1795,-0.1795,-0.1795,-0.1811,-0.1781,-0.1868,-0.1898,-0.1928,-0.1958,-0.1961,-0.1943,-0.1911,-0.1883,-0.1863,-0.186,-0.1861,-0.1871,-0.1884,-0.1906,-0.1927,-0.2002,-0.2017,-0.22,-0.2381,-0.2777,-0.3274,-0.3508,-0.3662,-0.3844,-0.3938,-0.4036,-0.4316,-0.4592,-0.4925,-0.5483,-0.6096,-0.6657,-0.7049,-0.7379,-0.7712,-0.8097,-0.8484,-0.8819,-0.9154,-0.9596,-0.9871,-1.0147,-1.0421,-1.0531,-1.0637,-1.0692,-1.0692,-1.0692,-1.0692,-1.0692,-1.0692,-1.0692,-1.0747,-1.0802,-1.0966,-1.1185,-0.2038,-0.2038,-0.2038,-0.2038,-0.2038,-0.2038,-0.2038,-0.2038,-0.2038,-0.2038,-0.2038,-0.2038,-0.2038,-0.2038,-0.2038,-0.2038,-0.2038,-0.2038,-0.2038,-0.2038,-0.2038,-0.2038,-0.2038,-0.2038,-0.2038,-0.2038,-0.2038,-0.2038,-0.2038,-0.2038,-0.2038,-0.2038,-0.2038,-0.2038,-0.2038,-0.2038,-0.2038,-0.2038,-0.2032,-0.195,-0.1909,-0.1882,-0.1859,-0.1812,-0.1798,-0.1795,-0.1795,-0.1795,-0.1795,-0.1795,-0.1795,-0.1795,-0.1795,-0.1795,-0.1795,-0.1795,-0.1795,-0.1806,-0.1832,-0.1864,-0.1893,-0.1924,-0.1956,-0.1969,-0.1957,-0.1933,-0.1905,-0.1894,-0.189,-0.1889,-0.1898,-0.1917,-0.1938,-0.1948,-0.1958,-0.2027,-0.209,-0.2327,-0.2606,-0.2987,-0.3228,-0.3389,-0.355,-0.3587,-0.3757,-0.398,-0.4147,-0.4369,-0.4704,-0.5262,-0.5654,-0.6102,-0.6548,-0.6935,-0.7157,-0.7543,-0.8097,-0.854,-0.8985,-0.9427,-0.9699,-1.0033,-1.0421,-1.0531,-1.0637,-1.0692,-1.0692,-1.0692,-1.0692,-1.0692,-1.0692,-1.0692,-1.0802,-1.0911,-1.1072,-0.2038,-0.2038,-0.2038,-0.2038,-0.2038,-0.2038,-0.2038,-0.2038,-0.2038,-0.2038,-0.2038,-0.2038,-0.2038,-0.2038,-0.2038,-0.2038,-0.2038,-0.2038,-0.2038,-0.2038,-0.2038,-0.2038,-0.2038,-0.2038,-0.2038,-0.2038,-0.2038,-0.2038,-0.2038,-0.2038,-0.2038,-0.2038,-0.2038,-0.2038,-0.2038,-0.2038,-0.2038,-0.2038,-0.2035,-0.196,-0.1927,-0.1894,-0.1865,-0.1831,-0.1814,-0.1797,-0.1795,-0.1795,-0.1795,-0.1795,-0.1795,-0.1795,-0.1795,-0.1795,-0.1795,-0.1795,-0.1795,-0.1802,-0.182,-0.1854,-0.1888,-0.1912,-0.194,-0.1964,-0.1967,-0.1945,-0.1869,-0.1924,-0.1921,-0.1921,-0.1926,-0.1947,-0.1964,-0.1967,-0.197,-0.1973,-0.2038,-0.2268,-0.2491,-0.2693,-0.2883,-0.3061,-0.3225,-0.3307,-0.3475,-0.3587,-0.3699,-0.3867,-0.4035,-0.4426,-0.476,-0.5208,-0.5768,-0.61,-0.6323,-0.6712,-0.7265,-0.7709,-0.81,-0.8595,-0.9199,-0.9702,-1.0147,-1.0366,-1.0527,-1.0582,-1.0637,-1.0692,-1.0692,-1.0692,-1.0692,-1.0692,-1.0692,-1.0802,-1.0907,-0.2038,-0.2038,-0.2038,-0.2038,-0.2038,-0.2038,-0.2038,-0.2038,-0.2038,-0.2038,-0.2038,-0.2038,-0.2038,-0.2038,-0.2038,-0.2038,-0.2038,-0.2038,-0.2038,-0.2038,-0.2038,-0.2038,-0.2038,-0.2038,-0.2038,-0.2038,-0.2038,-0.2038,-0.2038,-0.2038,-0.2038,-0.2038,-0.2038,-0.2038,-0.2038,-0.2038,-0.2038,-0.2038,-0.2038,-0.1967,-0.1943,-0.191,-0.1872,-0.1842,-0.1815,-0.1799,-0.1795,-0.1795,-0.1795,-0.1795,-0.1795,-0.1795,-0.1795,-0.1795,-0.1795,-0.1795,-0.1795,-0.1795,-0.1812,-0.1844,-0.1883,-0.1904,-0.1942,-0.1973,-0.1976,-0.1958,-0.1956,-0.1952,-0.1952,-0.1952,-0.1952,-0.1968,-0.1971,-0.1973,-0.1974,-0.2038,-0.21,-0.2278,-0.2437,-0.2524,-0.272,-0.2852,-0.297,-0.298,-0.3092,-0.3141,-0.3253,-0.3419,-0.3587,-0.3868,-0.4091,-0.4426,-0.5041,-0.5485,-0.5764,-0.6098,-0.6543,-0.6932,-0.7324,-0.7986,-0.8647,-0.9372,-0.9926,-1.0036,-1.0198,-1.0421,-1.0531,-1.0582,-1.0692,-1.0692,-1.0692,-1.0692,-1.0692,-1.0692,-1.0798,-0.2038,-0.2038,-0.2038,-0.2038,-0.2038,-0.2038,-0.2038,-0.2038,-0.2038,-0.2038,-0.2038,-0.2038,-0.2038,-0.2038,-0.2038,-0.2038,-0.2038,-0.2038,-0.2038,-0.2038,-0.2038,-0.2038,-0.2038,-0.2038,-0.2038,-0.2038,-0.2038,-0.2038,-0.2038,-0.2038,-0.2038,-0.2038,-0.2038,-0.2038,-0.2038,-0.2038,-0.2038,-0.2038,-0.2038,-0.2038,-0.2012,-0.1979,-0.1881,-0.1845,-0.1815,-0.1797,-0.1795,-0.1795,-0.1795,-0.1795,-0.1795,-0.1795,-0.1795,-0.1795,-0.1795,-0.1795,-0.1795,-0.1795,-0.1808,-0.1851,-0.1874,-0.19,-0.1948,-0.1973,-0.1975,-0.1975,-0.1975,-0.1974,-0.1974,-0.1975,-0.1975,-0.1975,-0.1976,-0.2038,-0.2038,-0.2038,-0.2161,-0.2221,-0.232,-0.2353,-0.2442,-0.2639,-0.2651,-0.2666,-0.2706,-0.27,-0.2861,-0.3027,-0.3194,-0.3531,-0.3811,-0.4091,-0.4538,-0.4927,-0.5204,-0.5652,-0.6044,-0.632,-0.6765,-0.7487,-0.8097,-0.8709,-0.9151,-0.9482,-0.9702,-1.0036,-1.0312,-1.0472,-1.0582,-1.0692,-1.0692,-1.0692,-1.0692,-1.0692,-1.0692,-0.2038,-0.2038,-0.2038,-0.1977,-0.1977,-0.1977,-0.2038,-0.2038,-0.1977,-0.2038,-0.1977,-0.1977,-0.2038,-0.2038,-0.2038,-0.2038,-0.2038,-0.2038,-0.2038,-0.2038,-0.2038,-0.2038,-0.2038,-0.2038,-0.2038,-0.2038,-0.2038,-0.2038,-0.2038,-0.2038,-0.2038,-0.2038,-0.2038,-0.2038,-0.2038,-0.2038,-0.2038,-0.2038,-0.2038,-0.2038,-0.2022,-0.1928,-0.1893,-0.1858,-0.1825,-0.1805,-0.1795,-0.1795,-0.1795,-0.1795,-0.1795,-0.1795,-0.1795,-0.1795,-0.1795,-0.1795,-0.1795,-0.1795,-0.1813,-0.1855,-0.1879,-0.1892,-0.1937,-0.1975,-0.1977,-0.1977,-0.1976,-0.1976,-0.1976,-0.1976,-0.1976,-0.1976,-0.2038,-0.2038,-0.2038,-0.2038,-0.21,-0.2097,-0.2085,-0.2065,-0.2105,-0.2244,-0.2371,-0.2401,-0.2441,-0.2543,-0.2805,-0.297,-0.3082,-0.3307,-0.3587,-0.3867,-0.4203,-0.4369,-0.4704,-0.5266,-0.5714,-0.5935,-0.6212,-0.6765,-0.7376,-0.7878,-0.8322,-0.865,-0.9206,-0.9596,-0.9923,-1.0198,-1.0472,-1.0527,-1.0692,-1.0692,-1.0692,-1.0692,-1.0692]}]]